[[[{"header":{"parameterUnit":"kt","parameterCategory":2,"dx":1,"dy":1,"la1":29.285339999999998,"la2":30.599998999999997,"lo1":-89.70041500000002,"lo2":-87.6738589999976,"nx":112,"ny":82,"refTime":"2022-10-29T12:00:00:Z","depth":0,"parameterNumber":1,"parameterNumberName":"U-component_of_WINDS"},"data":[2.81,2.8515,2.8359,2.5295,2.4542,2.3685,2.0464,2.0776,2.1091,1.8818,1.9158,1.9497,1.802,1.7413,1.7104,1.7331,1.7645,1.7638,0.0,1.6803,1.6725,1.7088,1.8906,2.0335,2.0776,2.1737,2.397,2.7918,2.7424,2.8645,3.2514,3.3449,3.4332,3.5293,3.6072,3.6774,3.7345,3.7553,3.7657,3.7657,3.802,3.828,3.8514,3.9241,3.9812,4.0202,4.0565,4.0851,4.1033,4.1033,4.1033,4.1033,4.1033,4.1033,4.1033,4.1033,4.1033,4.1033,4.1033,4.1033,4.1033,4.1033,4.1033,4.1033,4.1033,4.1033,4.1033,4.1033,4.1033,3.9503,3.2692,3.0933,2.9166,2.2363,2.0833,2.0833,2.0833,2.0833,2.0833,2.0833,2.0833,2.0833,2.0833,2.0833,2.0833,2.0833,2.0872,1.9074,1.4621,-0.026,-1.045,-1.043,-2.3764,-3.6457,-4.6173,-6.1644,-7.6916,-9.0635,-9.4434,-9.988,-10.7919,-11.485,-12.0156,-12.4184,-12.8071,-13.0576,-13.1573,-13.4713,-13.6282,-13.6354,-13.9895,-14.1544,2.7009,2.7502,2.7346,2.3685,2.2906,2.2204,1.8984,1.927,1.9867,1.8517,1.9208,1.9535,1.833,1.7764,1.7518,1.7457,1.7805,1.7837,0.0,1.6958,1.714,1.7893,2.049,2.223,2.2282,2.3815,2.5918,2.8593,2.8437,2.9788,3.3423,3.4177,3.5008,3.6202,3.6592,3.7059,3.7631,3.7657,3.7657,3.7657,3.8228,3.8591,3.8799,3.976,4.0305,4.0513,4.0877,4.1033,4.1033,4.1033,4.1033,4.1033,4.1033,4.1033,4.1033,4.1033,4.1033,4.1033,4.1033,4.1033,4.1033,4.1033,4.1033,4.1033,4.1033,4.1033,4.1033,4.1033,4.1033,3.9503,3.2692,3.0933,2.9166,2.2363,2.0833,2.0833,2.0833,2.0833,2.0833,2.0833,2.0833,2.0833,2.0833,2.0833,2.0833,2.0833,2.0872,1.8274,1.147,0.4429,-0.365,-1.3069,-2.5204,-3.4479,-3.9255,-5.4512,-7.1145,-8.757,-9.3098,-9.9025,-10.6519,-11.3478,-11.9274,-12.4146,-12.7341,-12.995,-13.1573,-13.4213,-13.5712,-13.6282,-13.8922,-14.0421,2.6126,2.5944,2.5451,2.1503,2.0958,2.062,1.7815,1.8413,1.9426,1.8906,2.0101,2.1062,2.0665,1.8913,1.7825,1.8756,1.7761,0.0,0.0,1.7763,1.8457,1.9475,2.2149,2.4291,2.5505,2.4111,2.5014,0.0,2.7802,2.8905,3.3969,3.48,3.5417,3.6527,3.6579,3.6863,3.7631,3.7631,3.7657,3.7682,3.8254,3.8799,3.9371,3.9942,4.0513,4.1033,4.1033,4.1033,4.1033,4.1033,4.1033,4.1033,4.1033,4.1033,4.1033,4.1033,4.1033,4.1033,4.1033,4.1033,4.1033,4.1033,4.1033,4.1033,4.1033,4.1033,4.1033,4.1033,4.1033,3.9256,3.2692,3.0933,2.9185,2.2363,2.0833,2.0833,2.0833,2.0833,2.0833,2.0833,2.0833,2.0833,2.0833,2.0833,2.0833,2.0833,2.0872,1.8274,1.1729,1.651,0.9935,-1.7324,-2.6887,-3.4764,-4.2258,-4.9517,-6.155,-8.09,-8.9122,-9.6767,-10.4035,-11.1131,-11.7822,-12.4215,-12.7411,-12.9838,-13.1573,-13.3143,-13.4713,-13.6282,-13.7852,-13.9422,2.2568,2.2957,2.3451,2.124,2.0958,2.0828,1.8802,1.8075,1.7893,1.8153,1.8231,0.0,0.0,0.0,1.7549,1.8612,0.0,1.9371,1.8974,2.088,2.1171,1.8295,2.0423,2.2899,2.4862,2.4977,2.636,2.974,3.0116,3.1761,3.5267,3.602,3.5342,3.3354,3.3732,3.4218,3.4361,3.4384,3.5741,3.8254,3.8825,3.9397,3.9968,4.0539,4.0877,4.1033,4.1033,4.1033,4.1033,4.1033,4.1033,4.1033,4.1033,4.1033,4.1033,4.1033,4.1033,4.1033,4.1033,4.1033,4.1033,4.1033,4.1033,4.1033,4.1033,4.1033,4.1033,4.1033,3.9256,3.6234,3.1939,2.9166,2.6156,2.1849,2.0833,2.0833,2.0833,2.0833,2.0833,2.0833,2.0833,2.0833,2.0833,2.0833,2.0833,2.0833,2.0872,2.011,1.8274,1.515,0.8337,-0.4426,-0.7906,-1.5644,-3.1415,-4.0799,-5.0367,-6.0979,-8.0498,-9.5823,-10.5421,-11.1319,-11.8053,-12.5601,-12.665,-12.8586,-13.1573,-13.3143,-13.4713,-13.6282,-13.6711,-13.8352,2.1297,2.1945,2.2594,2.0646,2.114,2.1373,1.8724,1.7971,1.7789,1.7634,0.0,0.0,0.0,0.0,0.0,0.0,2.0386,2.0989,1.9275,2.1136,2.1751,1.87,2.0779,2.2878,2.4132,2.426,2.6052,3.0117,3.0128,3.1818,3.615,3.5248,3.414,3.2537,3.2834,3.2971,3.2971,3.4598,3.6495,3.8488,3.9319,3.9864,4.0202,4.0773,4.1033,4.1033,3.9503,3.975,4.0787,3.9503,3.9775,4.1033,4.1033,4.1033,4.1033,4.1033,4.1033,4.1033,4.1033,4.1033,4.1033,4.1033,4.1033,4.1033,4.1033,4.1033,4.1033,4.1033,3.8515,3.5215,3.1688,2.8425,2.488,2.1592,2.0833,2.0833,2.0833,2.0833,2.0833,2.0833,2.0833,2.0833,2.0833,2.0833,2.0833,2.0833,2.0859,2.0886,2.0899,1.7226,1.3296,0.9117,0.3152,-0.6594,-2.1632,-3.5066,-4.5834,-5.3132,-7.0975,-8.6075,-9.6796,-10.6559,-11.5608,-12.36,-12.5429,-12.7795,-13.0576,-13.2111,-13.407,-13.6282,-13.6282,-13.7923,2.0853,2.1529,2.2023,1.9808,2.0858,2.1581,1.8413,0.0,1.875,1.8127,0.0,1.7616,1.8173,0.0,0.0,1.8733,2.1342,2.2157,1.8677,2.003,2.0917,1.9693,2.2143,2.3507,2.2539,2.2539,2.4801,2.9668,2.8632,3.0141,3.5398,3.3225,3.1839,3.2035,3.2057,3.2057,3.2057,3.56,3.7563,3.8103,3.9444,4.0228,4.0305,4.0309,4.0515,4.0268,3.6731,3.6979,3.9775,3.6979,3.7747,4.0515,4.0515,4.0787,4.1033,4.1033,4.1033,4.1033,4.1033,4.1033,4.1033,4.1033,4.1033,4.1033,4.1033,4.1033,4.1033,4.1033,3.8243,3.4716,3.1688,2.8172,2.4641,2.1606,2.0833,2.0833,2.0833,2.0833,2.0833,2.0833,2.0833,2.0833,2.0833,2.0833,2.0833,2.0833,2.0833,2.0846,2.0886,2.0899,2.0666,2.0744,0.7891,-0.4746,-1.4686,-3.1318,-4.4643,-5.2669,-6.2007,-7.2353,-8.368,-9.9005,-11.1257,-12.0055,-12.4082,-12.7052,-12.9078,-13.0576,-13.293,-13.5993,-13.6316,-13.8138,1.709,1.7527,1.8591,1.7588,1.7812,1.8776,0.0,0.0,0.0,2.2776,2.1389,1.9725,2.0362,1.8485,1.7101,1.8089,2.1638,2.3044,1.9622,2.0101,2.0097,1.7959,2.0349,2.1155,1.858,2.0681,2.2905,2.471,2.6572,2.8327,2.9826,2.9409,2.805,2.5596,2.5596,2.5596,2.5596,2.9045,3.2518,3.555,3.8642,4.0435,4.0877,3.8194,3.6979,3.6731,3.3444,3.219,3.2943,3.5215,3.6234,3.6979,3.6979,3.849,4.1033,4.1033,4.1033,4.1033,4.1033,4.1033,4.1033,4.1033,4.1033,4.1033,4.1033,4.1033,4.1033,4.1033,3.6482,3.1688,3.1185,2.6394,2.1606,2.0833,2.0833,2.0833,2.0833,2.0833,2.0833,2.0833,2.0833,2.0833,2.0833,2.0833,2.0833,2.0833,2.0833,2.0846,2.0846,2.0886,2.0666,2.0744,0.8353,-0.5484,-1.8401,-2.7014,-3.6983,-5.02,-5.6741,-6.6407,-8.0593,-9.3692,-10.6928,-12.0055,-12.3024,-12.5898,-12.9078,-12.9426,-13.1159,-13.4305,-13.6941,-13.9136,1.4622,1.5473,1.6757,1.5973,1.7061,0.0,0.0,1.9244,1.9509,2.0528,1.9523,1.8634,1.9206,1.8248,1.7669,1.8409,2.1244,2.2221,1.8737,1.9809,2.0133,1.7567,1.878,1.9082,1.7793,1.9148,2.0398,2.0902,2.3813,2.6535,2.8378,2.6989,2.5363,2.3748,2.3748,2.383,2.4027,2.77,3.1238,3.5107,3.7101,3.8246,3.849,3.6731,3.4965,3.3215,2.9924,2.9419,3.0933,3.0933,3.1939,3.3716,3.5215,3.7995,4.1033,4.1033,4.1033,4.1033,4.1033,4.1033,4.1033,4.1033,4.1033,4.1033,4.1033,4.1033,4.1033,4.1033,3.6234,3.0933,3.0933,2.5901,2.0833,2.0833,2.0833,2.0833,2.0833,2.0833,2.0833,2.0833,2.0833,2.0833,2.0833,2.0833,2.0833,2.0833,2.0833,2.0833,2.0833,2.0872,1.9851,1.7496,0.7027,-0.4168,-1.4658,-2.1237,-3.2115,-4.922,-5.4909,-6.3823,-7.7354,-9.0257,-10.1411,-11.0161,-11.808,-12.3523,-12.6486,-12.8134,-13.06,-13.3829,-13.7113,-13.9422,1.2709,1.3834,1.5114,1.4471,1.6245,0.0,1.7121,1.7817,1.8452,1.8039,1.7593,1.7438,1.8066,1.807,1.807,1.8358,2.0402,2.0856,1.7531,1.9105,1.9937,1.766,1.7655,1.7813,1.7879,1.8143,1.842,1.8657,2.1242,2.3982,2.6525,2.4215,2.2812,2.2812,2.2812,2.2986,2.3109,2.7036,3.0358,3.3254,3.4473,3.4965,3.4965,3.4216,3.2441,2.9672,2.6394,2.6394,2.8679,2.6648,2.741,3.0177,3.3716,3.6979,4.0022,4.0787,4.1033,4.1033,4.1033,4.1033,4.1033,4.1033,4.1033,4.0787,4.0268,4.0022,4.0022,4.0022,3.5736,3.0933,3.0933,2.5901,2.0833,2.0833,2.0833,2.0833,2.0833,2.0833,2.0833,2.0833,2.0833,2.0833,2.0833,2.0833,2.0833,2.0833,2.0833,2.0833,2.0833,2.0886,1.8803,1.3789,0.5207,-0.2348,-0.8082,-1.4815,-2.7381,-4.775,-5.3474,-6.2264,-7.5328,-8.8467,-9.7115,-10.0521,-11.2861,-12.0621,-12.386,-12.571,-12.89,-13.3273,-13.6928,-13.9422,1.0377,1.1388,1.2656,1.22,1.2267,0.0,1.8168,1.8168,1.8335,2.1794,2.0809,1.9434,1.9475,1.8091,1.6751,1.6779,1.9344,2.0399,1.77,1.7567,1.7673,1.7721,1.7774,1.7892,1.8156,1.8459,1.8644,1.867,1.9168,1.9787,2.0023,1.9787,1.9551,1.9551,1.9551,1.97,2.001,2.368,2.598,2.6587,2.9985,3.1436,3.1436,2.8407,2.6648,2.6156,2.2863,2.1592,2.2106,2.4896,2.6156,2.6648,3.0177,3.3465,3.6979,4.0022,4.1033,4.1033,4.1033,4.1033,4.1033,4.1033,4.1033,4.0515,3.7499,3.6482,3.6482,3.6482,3.3716,3.0933,3.0933,2.5901,2.0833,2.0833,2.0833,2.0833,2.0833,2.0833,2.0833,2.0833,2.0833,2.0833,2.0833,2.0833,2.0833,2.0833,2.0833,2.0833,2.0833,2.0925,1.8331,1.147,0.4437,-0.0262,-0.1046,-0.7561,-2.0846,-4.2357,-4.9357,-5.9568,-7.5284,-8.8467,-9.7115,-10.0521,-11.0004,-11.7936,-12.386,-12.0624,-12.3308,-13.1418,-13.6396,-13.9422,0.8381,0.9401,1.0651,1.0518,0.0,0.0,1.5625,1.6399,1.7153,1.857,1.8456,1.7906,1.7918,1.7352,1.6798,1.697,1.8144,1.8483,1.7352,1.751,1.7655,1.7774,1.8103,1.8354,1.8486,1.875,1.8921,1.8921,1.9026,1.9092,1.9092,1.9092,1.9092,1.9092,1.9264,1.9488,1.9791,2.1542,2.3578,2.5671,2.7341,2.7918,2.7918,2.6394,2.4896,2.2863,2.1348,2.0833,2.0833,2.2363,2.4129,2.5901,2.741,2.9924,3.3194,3.4716,3.5215,3.5215,3.5215,3.5215,3.5215,3.5215,3.5215,3.4965,3.3465,3.2943,3.3465,3.5464,3.4965,3.3465,3.1436,2.5901,2.0833,2.0833,2.0833,2.0833,2.0833,2.0833,2.0833,2.0833,2.0833,2.0833,2.0833,2.0833,2.0833,2.0833,2.0833,2.0833,2.0833,2.0679,1.8071,1.121,0.4176,-0.0,-0.0,-0.6553,-1.9864,-4.1695,-4.8747,-5.9714,-7.6066,-8.882,-9.6726,-9.9191,-10.7811,-11.4136,-11.8258,-11.8031,-12.1322,-12.8302,-13.4323,-13.8489,0.7083,0.0,0.0,0.0,0.0,0.0,1.3953,1.4972,1.5646,1.5836,1.6263,1.6546,1.6499,1.6798,1.7128,1.7339,1.7378,1.7378,1.7378,1.7616,1.7827,1.7906,1.8367,1.871,1.8789,1.8974,1.9092,1.9092,1.9092,1.9092,1.9092,1.9092,1.9092,1.9092,1.9382,1.9686,1.9976,2.0253,2.1798,2.4385,2.4385,2.4385,2.4385,2.4385,2.3119,2.0833,2.0833,2.0833,2.0833,2.0833,2.2363,2.4641,2.5391,2.741,2.9672,3.0429,3.0933,3.0933,3.0933,3.0933,3.0933,3.0933,3.0933,3.0681,2.9672,2.9419,3.0177,3.3716,3.3966,3.2692,3.1185,2.5901,2.0833,2.0833,2.0833,2.0833,2.0833,2.0833,2.0833,2.0833,2.0833,2.0833,2.0833,2.0833,2.0833,2.0833,2.0833,2.0833,2.0833,2.0679,1.8071,1.121,0.4176,-0.0,-0.0,-0.6573,-1.9914,-4.1481,-4.8898,-5.9311,-7.5196,-8.8602,-9.6425,-9.8524,-10.6678,-11.2006,-11.4322,-11.642,-12.0251,-12.5619,-13.1298,-13.597,0.0,0.0,0.0,1.068,1.0919,1.136,1.4496,1.4398,1.4161,1.5335,1.6033,1.6442,1.6482,1.697,1.7365,1.7378,1.7378,1.7378,1.7378,1.7616,1.7892,1.8183,1.8486,1.8789,1.9053,1.9092,1.9092,1.9092,1.9092,1.9092,1.9092,1.9092,1.9092,1.9092,1.9382,1.9686,1.9976,2.0253,2.0543,2.0833,2.0833,2.0833,2.0833,2.0833,2.0833,2.0833,2.0833,2.0833,2.0833,2.0833,2.0833,2.1348,2.4641,2.5901,2.6394,2.9672,3.0933,3.0933,3.0933,3.0933,3.0933,3.0933,3.0933,3.0177,2.6902,2.5901,2.6648,3.0177,2.8679,2.6902,3.0177,2.5901,2.0833,2.0833,2.0833,2.0833,2.0833,2.0833,2.0833,2.0833,2.0833,2.0833,2.0833,2.0833,2.0833,2.0833,2.0833,2.0833,2.0833,2.0679,1.8071,1.121,0.4176,-0.0,-0.0,-0.6573,-1.9914,-4.1481,-4.8898,-5.807,-7.1098,-8.7077,-9.6425,-9.8524,-10.6678,-11.2006,-11.4322,-11.5805,-11.9023,-12.3995,-12.7035,-13.1243,0.7212,0.8126,0.9467,1.0917,1.1867,1.2777,1.4029,1.4688,1.515,1.5545,1.6086,1.6482,1.6482,1.697,1.7378,1.7378,1.7378,1.7444,1.7629,1.7906,1.8196,1.8499,1.8776,1.8987,1.9079,1.9092,1.9092,1.9092,1.9092,1.9092,1.9092,1.9092,1.9092,1.9092,1.9382,1.9765,2.0253,2.0543,2.0741,2.0833,2.0833,2.0833,2.0833,2.0833,2.0833,2.0833,2.0833,2.0833,2.0833,2.0833,2.0833,2.0833,2.2106,2.262,2.2606,2.3873,2.4129,2.4129,2.4129,2.4129,2.4129,2.4129,2.4129,2.3873,2.2863,2.262,2.3119,2.6648,2.6648,2.6156,2.7156,2.5901,2.3617,2.1348,2.0833,2.0833,2.0833,2.0833,2.0833,2.0833,2.0833,2.0833,2.0833,2.0833,2.0833,2.0833,2.0833,2.0833,2.0833,2.0679,1.8071,1.121,0.4176,-0.0,-0.0,-1.0641,-2.4554,-4.1832,-5.0513,-5.8621,-6.6889,-8.3286,-9.4047,-9.7343,-10.4671,-11.047,-11.4322,-11.5628,-11.8829,-12.3706,-12.6779,-13.0345,0.7806,0.89,1.0087,1.1669,1.2922,1.3911,1.4398,1.5084,1.5664,1.577,1.6165,1.6521,1.6627,1.7049,1.7378,1.7378,1.7378,1.7471,1.7747,1.8051,1.8341,1.8644,1.8921,1.9092,1.9092,1.9092,1.9092,1.9092,1.9092,1.9092,1.9092,1.9092,1.9092,1.9092,1.9382,1.9765,2.0239,2.0635,2.0833,2.0833,2.0833,2.0833,2.0833,2.0833,2.0833,2.0833,2.0833,2.0833,2.0833,2.0833,2.0833,2.0833,2.0833,2.0833,2.0833,2.0833,2.0833,2.0833,2.0833,2.0833,2.0833,2.0833,2.0833,2.0833,2.0833,2.0833,2.1606,2.488,2.488,2.4385,2.5646,2.488,2.3632,2.1348,2.0833,2.0833,2.0833,2.0833,2.0833,2.0833,2.0833,2.0833,2.0833,2.0833,2.0833,2.0833,2.0833,2.0833,2.0833,2.0679,1.8071,1.121,0.4176,-0.0,-0.0,-1.285,-2.7002,-4.144,-4.9735,-5.794,-6.6842,-8.1231,-9.1504,-9.6963,-10.3813,-10.959,-11.4322,-11.5628,-11.8809,-12.3494,-12.5602,-12.8942,0.8369,0.9428,1.068,1.2961,1.3963,1.4596,1.544,1.5625,1.5717,1.602,1.6297,1.6587,1.6904,1.718,1.7378,1.7378,1.7378,1.7484,1.7774,1.8064,1.8354,1.8657,1.8934,1.9092,1.9092,1.9092,1.9092,1.9092,1.9092,1.9092,1.9092,1.9092,1.9092,1.9092,1.9396,1.9699,1.9976,2.0556,2.0833,2.0833,2.0833,2.0833,2.0833,2.0833,2.0833,2.0833,2.0833,2.0833,2.0833,2.0833,2.0833,2.0833,2.0833,2.0833,2.0833,2.0833,2.0833,2.0833,2.0833,2.0833,2.0833,2.0833,2.0833,2.0833,2.0833,2.0833,2.1348,2.4641,2.3376,2.1606,2.4896,2.3119,2.0833,2.0833,2.0833,2.0833,2.0833,2.0833,2.0833,2.0833,2.0833,2.0833,2.0833,2.0833,2.0833,2.0833,2.0833,2.0833,2.0833,2.0679,1.8071,1.121,0.4176,-0.0,-0.0,-1.2035,-2.5467,-3.9131,-4.5329,-5.531,-7.0335,-8.0337,-8.9002,-9.6645,-10.3756,-10.959,-11.4147,-11.5691,-11.8809,-12.3273,-12.3404,-12.7033,0.9269,1.1089,1.2605,1.4069,1.4702,1.5084,1.5519,1.5625,1.5717,1.602,1.6297,1.664,1.7167,1.7326,1.7378,1.7378,1.7378,1.755,1.8051,1.8183,1.842,1.8921,1.9053,1.9092,1.9092,1.9092,1.9092,1.9092,1.9092,1.9092,1.9092,1.9092,1.9092,1.9092,1.9593,1.991,1.9989,2.0556,2.0833,2.0833,2.0833,2.0833,2.0833,2.0833,2.0833,2.0833,2.0833,2.0833,2.0833,2.0833,2.0833,2.0833,2.0833,2.0833,2.0833,2.0833,2.0833,2.0833,2.0833,2.0833,2.0833,2.0833,2.0833,2.0833,2.0833,2.0833,2.1091,2.1849,2.1348,2.1091,2.1849,2.1348,2.0833,2.0833,2.0833,2.0833,2.0833,2.0833,2.0833,2.0833,2.0833,2.0833,2.0833,2.0833,2.0833,2.0833,2.0833,2.0833,2.0833,2.0679,1.8071,1.121,0.4176,-0.0,-0.0,-0.3186,-1.1242,-2.5169,-3.2695,-4.5299,-6.4091,-7.555,-8.5964,-9.5725,-10.3359,-10.8696,-11.1642,-11.4917,-11.7889,-12.0936,-12.3624,-12.6599,0.9064,1.1208,1.3304,1.4477,1.5071,1.5427,1.5585,1.5625,1.5743,1.6178,1.6376,1.6666,1.726,1.7378,1.7378,1.7378,1.7378,1.7536,1.7985,1.8156,1.8407,1.8855,1.9013,1.9092,1.9092,1.9092,1.9092,1.9092,1.9092,1.9092,1.9092,1.9092,1.9092,1.9092,1.9673,1.9989,1.9989,2.0556,2.0833,2.0833,2.0833,2.0833,2.0833,2.0833,2.0833,2.0833,2.0833,2.0833,2.0833,2.0833,2.0833,2.0833,2.0833,2.0833,2.0833,2.0833,2.0833,2.0833,2.0833,2.0833,2.0833,2.0833,2.0833,2.0833,2.0833,2.0833,2.0833,2.0833,2.0833,2.0833,2.0833,2.0833,2.0833,2.0833,2.0833,2.0833,2.0833,2.0833,2.0833,2.0833,2.0833,2.0833,2.0833,2.0833,2.0833,2.0833,2.0833,2.0833,2.0833,2.0679,1.8071,1.121,0.4176,-0.0,-0.0,-0.0,-0.3214,-1.1063,-2.1902,-3.8293,-6.1521,-7.2349,-8.3487,-9.5295,-10.3188,-10.9079,-11.2368,-11.4539,-11.6977,-12.0049,-12.3203,-12.5895,0.8596,1.0772,1.3212,1.4464,1.5203,1.5625,1.5625,1.5625,1.5796,1.6363,1.6482,1.6653,1.722,1.7352,1.7378,1.7378,1.7378,1.7471,1.7747,1.8051,1.8341,1.8644,1.8921,1.9092,1.9092,1.9092,1.9092,1.9092,1.9092,1.9092,1.9092,1.9092,1.9092,1.9092,1.9673,1.9989,1.9989,2.0556,2.0833,2.0833,2.0833,2.0833,2.0833,2.0833,2.0833,2.0833,2.0833,2.0833,2.0833,2.0833,2.0833,2.0833,2.0833,2.0833,2.0833,2.0833,2.0833,2.0833,2.0833,2.0833,2.0833,2.0833,2.0833,2.0833,2.0833,2.0833,2.0833,2.0833,2.0833,2.0833,2.0833,2.0833,2.0833,2.0833,2.0833,2.0833,2.0833,2.0833,2.0833,2.0833,2.0833,2.0833,2.0833,2.0833,2.0833,2.0833,2.0833,2.0846,2.0846,2.0679,1.7811,0.9903,0.3654,-0.0,-0.0,-0.0,-0.0,-0.0,-1.3925,-3.4094,-6.1171,-7.0484,-8.1302,-9.4565,-10.2731,-10.896,-11.3442,-11.3972,-11.5988,-11.9229,-12.213,-12.4814,1.0575,1.1709,1.2711,1.4359,1.5203,1.5625,1.5625,1.5625,1.5796,1.6363,1.6482,1.6587,1.6943,1.7207,1.7378,1.7378,1.7378,1.7471,1.7747,1.8051,1.8341,1.8644,1.8921,1.9092,1.9092,1.9092,1.9092,1.9092,1.9092,1.9092,1.9092,1.9092,1.9092,1.9092,1.9673,1.9989,1.9989,2.0556,2.0833,2.0833,2.0833,2.0833,2.0833,2.0833,2.0833,2.0833,2.0833,2.0833,2.0833,2.0833,2.0833,2.0833,2.0833,2.0833,2.0833,2.0833,2.0833,2.0833,2.0833,2.0833,2.0833,2.0833,2.0833,2.0833,2.0833,2.0833,2.0833,2.0833,2.0833,2.0833,2.0833,2.0833,2.0833,2.0833,2.0833,2.0833,2.0833,2.0833,2.0833,2.0833,2.0833,2.0833,2.0833,2.0833,2.0833,2.0833,2.0833,2.0846,2.0886,2.0692,1.5959,0.3129,0.0784,-0.0,-0.0,-0.0,-0.0,-0.0,-1.316,-3.3424,-6.1136,-7.0134,-7.9617,-9.1355,-9.9541,-10.5243,-10.8504,-11.2368,-11.4621,-11.5392,-12.097,-12.3057,1.006,1.1247,1.2473,1.3765,1.4873,1.5625,1.5625,1.5625,1.5796,1.6363,1.6482,1.6574,1.6877,1.7167,1.7378,1.7378,1.7378,1.7418,1.755,1.7958,1.8288,1.8433,1.8829,1.9092,1.9092,1.9092,1.9092,1.9092,1.9092,1.9092,1.9092,1.9092,1.9092,1.9092,1.9514,1.9831,1.9989,2.0398,2.0688,2.0833,2.0833,2.0833,2.0833,2.0833,2.0833,2.0833,2.0833,2.0833,2.0833,2.0833,2.0833,2.0833,2.0833,2.0833,2.0833,2.0833,2.0833,2.0833,2.0833,2.0833,2.0833,2.0833,2.0833,2.0833,2.0833,2.0833,2.0833,2.0833,2.0833,2.0833,2.0833,2.0833,2.0833,2.0833,2.0833,2.0833,2.0833,2.0833,2.0833,2.0833,2.0833,2.0833,2.0833,2.0833,2.0833,2.0833,2.0833,2.0859,2.0899,1.7767,1.1484,0.1043,-0.0,-0.0,-0.0,-0.0,-0.0,-0.0,-1.2833,-3.3128,-6.127,-6.6415,-7.6047,-9.1616,-9.8646,-10.5037,-11.0967,-11.3265,-11.4844,-11.6273,-12.1226,-12.31,0.9533,1.0799,1.2315,1.3304,1.4372,1.5255,1.5638,1.5677,1.5756,1.6205,1.6403,1.6561,1.6785,1.7128,1.7378,1.7378,1.7378,1.7378,1.7378,1.7813,1.8169,1.8222,1.8684,1.9026,1.9079,1.9092,1.9092,1.9092,1.9092,1.9092,1.9092,1.9092,1.9092,1.9092,1.9382,1.9686,1.9976,2.0253,2.0543,2.0833,2.0833,2.0833,2.0833,2.0833,2.0833,2.0833,2.0833,2.0833,2.0833,2.0833,2.0833,2.0833,2.0833,2.0833,2.0833,2.0833,2.0833,2.0833,2.0833,2.0833,2.0833,2.0833,2.0833,2.0833,2.0833,2.0833,2.0833,2.0833,2.0833,2.0833,2.0833,2.0833,2.0833,2.0833,2.0833,2.0833,2.0833,2.0833,2.0833,2.0833,2.0833,2.0833,2.0833,2.0833,2.0833,2.0833,2.0846,2.0872,2.0666,1.3564,0.5995,0.0522,-0.0,-0.0,-0.0,-0.0,-0.0,-0.0,-1.2922,-3.3183,-6.1182,-6.259,-7.1307,-8.9985,-9.7434,-10.5147,-11.3619,-11.4497,-11.6041,-11.7833,-12.1376,-12.3165,1.0865,1.1418,1.2091,1.3489,1.3752,1.4082,1.5677,1.5822,1.5638,1.5691,1.6126,1.6495,1.6521,1.6996,1.7378,1.7378,1.7378,1.7378,1.7378,1.7642,1.7932,1.8209,1.8525,1.8815,1.9066,1.9092,1.9092,1.9092,1.9092,1.9092,1.9092,1.9092,1.9092,1.9092,1.9382,1.9686,1.9976,2.0253,2.0543,2.0833,2.0833,2.0833,2.0833,2.0833,2.0833,2.0833,2.0833,2.0833,2.0833,2.0833,2.0833,2.0833,2.0833,2.0833,2.0833,2.0833,2.0833,2.0833,2.0833,2.0833,2.0833,2.0833,2.0833,2.0833,2.0833,2.0833,2.0833,2.0833,2.0833,2.0833,2.0833,2.0833,2.0833,2.0833,2.0833,2.0833,2.0833,2.0833,2.0833,2.0833,2.0833,2.0833,2.0833,2.0833,2.0833,2.0833,2.0872,2.0679,2.0783,0.914,0.0783,-0.0,-0.0,-0.0,-0.0,-0.0,-0.0,-0.0,-1.2945,-3.3077,-6.1164,-6.0527,-6.6491,-8.0968,-9.3923,-10.4139,-11.1152,-11.536,-11.7605,-11.7769,-12.0397,-12.2179,0.9401,1.0311,1.1379,1.213,1.3291,1.4438,1.5137,1.5466,1.5677,1.5862,1.6218,1.6482,1.6482,1.6824,1.7167,1.7339,1.7378,1.7378,1.7378,1.7616,1.7906,1.8196,1.8499,1.8789,1.9066,1.9092,1.9092,1.9092,1.9092,1.9092,1.9092,1.9092,1.9092,1.9092,1.9211,1.9409,1.9712,2.0002,2.0292,2.0569,2.0754,2.0833,2.0833,2.0833,2.0833,2.0833,2.0833,2.0833,2.0833,2.0833,2.0833,2.0833,2.0833,2.0833,2.0833,2.0833,2.0833,2.0833,2.0833,2.0833,2.0833,2.0833,2.0833,2.0833,2.0833,2.0833,2.0833,2.0833,2.0833,2.0833,2.0833,2.0833,2.0833,2.0833,2.0833,2.0833,2.0833,2.0833,2.0833,2.0833,2.0833,2.0833,2.0833,2.0833,2.0833,2.0833,2.0872,1.7755,0.9401,0.3391,-0.0,-0.0,-0.0,-0.0,-0.0,-0.0,-0.0,-0.0,-1.2985,-2.9212,-4.882,-5.7277,-6.7447,-7.9646,-9.2711,-10.4044,-11.2908,-11.621,-11.8484,-11.9888,-12.0886,-12.2508,0.857,0.9414,1.0482,1.1023,1.2526,1.3963,1.4306,1.4833,1.5374,1.5849,1.6165,1.6389,1.6468,1.6732,1.7035,1.7326,1.7378,1.7378,1.7378,1.755,1.7774,1.8064,1.8367,1.8657,1.8934,1.904,1.9092,1.9092,1.9092,1.9092,1.9092,1.9092,1.9092,1.9092,1.9092,1.9237,1.9527,1.9831,2.0121,2.0398,2.0701,2.0833,2.0833,2.0833,2.0833,2.0833,2.0833,2.0833,2.0833,2.0833,2.0833,2.0833,2.0833,2.0833,2.0833,2.0833,2.0833,2.0833,2.0833,2.0833,2.0833,2.0833,2.0833,2.0833,2.0833,2.0833,2.0833,2.0833,2.0833,2.0833,2.0833,2.0833,2.0833,2.0833,2.0833,2.0833,2.0833,2.0833,2.0833,2.0833,2.0833,2.0833,2.0833,2.0833,2.0833,2.0833,2.0886,1.6448,0.4689,0.1304,0.1566,0.5756,0.2354,-0.0,-0.0,-0.0,-0.0,-0.0,-1.3344,-2.5384,-3.4749,-5.1182,-6.5968,-7.8127,-9.1974,-10.4032,-11.4322,-11.6546,-11.903,-12.1258,-12.1719,-12.3231,0.9111,0.9124,0.9414,1.0575,1.1313,1.2051,1.3212,1.3924,1.4583,1.5453,1.5875,1.6165,1.6442,1.6732,1.7035,1.7326,1.7378,1.7378,1.7378,1.7378,1.7484,1.7761,1.8064,1.8354,1.8657,1.8934,1.9092,1.9092,1.9092,1.9092,1.9092,1.9092,1.9092,1.9092,1.9092,1.9237,1.9527,1.9831,2.0121,2.0398,2.0701,2.0833,2.0833,2.0833,2.0833,2.0833,2.0833,2.0833,2.0833,2.0833,2.0833,2.0833,2.0833,2.0833,2.0833,2.0833,2.0833,2.0833,2.0833,2.0833,2.0833,2.0833,2.0833,2.0833,2.0833,2.0833,2.0833,2.0833,2.0833,2.0833,2.0833,2.0833,2.0833,2.0833,2.0833,2.0833,2.0833,2.0833,2.0833,2.0833,2.0833,2.0833,2.0833,2.0833,2.0833,2.0833,2.0666,1.8343,1.121,0.4429,0.522,1.9195,0.8113,-0.0,-0.0,-0.0,-0.0,-0.0,-1.4097,-2.1929,-2.0728,-4.1543,-6.0035,-7.4796,-9.0887,-10.4032,-11.4322,-11.6546,-11.903,-12.1324,-12.2771,-12.4218,0.8425,0.8821,0.9401,1.0575,1.1458,1.2223,1.2988,1.3765,1.4517,1.5189,1.5242,1.5335,1.5809,1.6139,1.6508,1.6996,1.7075,1.7141,1.7352,1.7378,1.7484,1.7761,1.7879,1.813,1.8631,1.8763,1.8895,1.9079,1.9092,1.9092,1.9092,1.9092,1.9092,1.9092,1.9092,1.9132,1.9224,1.9738,2.0029,2.0121,2.0609,2.0833,2.0833,2.0833,2.0833,2.0833,2.0833,2.0833,2.0833,2.0833,2.0833,2.0833,2.0833,2.0833,2.0833,2.0833,2.0833,2.0833,2.0833,2.0833,2.0833,2.0833,2.0833,2.0833,2.0833,2.0833,2.0833,2.0833,2.0833,2.0833,2.0833,2.0833,2.0833,2.0833,2.0833,2.0833,2.0833,2.0833,2.0833,2.0833,2.0833,2.0833,2.0833,2.0833,2.0846,2.0872,2.0692,1.649,0.4953,0.968,1.604,2.0326,0.8385,-0.0,-0.0,-0.0,-0.0,-0.0,-0.4372,-1.373,-2.8678,-4.329,-5.8897,-7.5268,-9.0995,-10.4032,-11.4322,-11.6546,-11.9548,-12.2771,-12.3231,-12.4744,0.8728,0.897,0.9282,1.068,1.1273,1.1722,1.2513,1.304,1.3541,1.4227,1.4319,1.4451,1.5031,1.573,1.635,1.6706,1.6851,1.6996,1.718,1.7207,1.7312,1.7602,1.7721,1.7985,1.8459,1.8618,1.8789,1.9066,1.9092,1.9092,1.9092,1.9092,1.9092,1.9092,1.9092,1.9092,1.9092,1.9686,2.0042,2.0147,2.0609,2.0833,2.0833,2.0833,2.0833,2.0833,2.0833,2.0833,2.0833,2.0833,2.0833,2.0833,2.0833,2.0833,2.0833,2.0833,2.0833,2.0833,2.0833,2.0833,2.0833,2.0833,2.0833,2.0833,2.0833,2.0833,2.0833,2.0833,2.0833,2.0833,2.0833,2.0833,2.0833,2.0833,2.0833,2.0833,2.0833,2.0833,2.0833,2.0833,2.0833,2.0833,2.0833,2.0846,2.0872,2.0899,1.6199,0.9916,0.1043,1.205,1.8708,1.3397,0.5233,-0.0,-0.0,-0.0,-0.0,-0.0,-0.2718,-1.3096,-3.2669,-4.4995,-5.9003,-7.5433,-9.0158,-10.3006,-11.4322,-11.5702,-11.8866,-12.3494,-12.402,-12.5467,0.9787,0.9562,0.9111,1.0772,1.0852,1.0946,1.2067,1.192,1.192,1.2737,1.3133,1.3515,1.4095,1.5348,1.6337,1.6442,1.6706,1.6917,1.6983,1.7009,1.7128,1.7405,1.7668,1.7932,1.8209,1.8486,1.8776,1.9066,1.9092,1.9092,1.9092,1.9092,1.9092,1.9092,1.9092,1.9106,1.9119,1.9699,2.0121,2.0398,2.0701,2.0833,2.0833,2.0833,2.0833,2.0833,2.0833,2.0833,2.0833,2.0833,2.0833,2.0833,2.0833,2.0833,2.0833,2.0833,2.0833,2.0833,2.0833,2.0833,2.0833,2.0833,2.0833,2.0833,2.0833,2.0833,2.0833,2.0833,2.0833,2.0833,2.0833,2.0833,2.0833,2.0833,2.0833,2.0833,2.0833,2.0833,2.0833,2.0833,2.0833,2.0833,2.0833,2.0872,2.064,2.011,0.8592,-0.0,-0.0,1.1252,1.4425,0.1308,-0.0,-0.0,-0.0,-0.0,-0.0,-0.0,-0.706,-1.7967,-3.2845,-4.6196,-6.0227,-7.5477,-8.8863,-10.1599,-11.3972,-11.4147,-11.7371,-12.3313,-12.4941,-12.6388,0.849,0.8903,0.9217,1.006,1.0852,1.155,1.2051,1.1761,1.1432,1.1643,1.192,1.2302,1.2882,1.3818,1.486,1.5994,1.6403,1.6824,1.7497,1.7787,1.7958,1.8024,1.809,1.8156,1.8222,1.8301,1.8552,1.9053,1.9092,1.9092,1.9092,1.9092,1.9092,1.9092,1.9092,1.9198,1.9422,1.9791,2.0121,2.0398,2.0701,2.0833,2.0833,2.0833,2.0833,2.0833,2.0833,2.0833,2.0833,2.0833,2.0833,2.0833,2.0833,2.0833,2.0833,2.0833,2.0833,2.0833,2.0833,2.0833,2.0833,2.0833,2.0833,2.0833,2.0833,2.0833,2.0833,2.0833,2.0833,2.0833,2.0833,2.0833,2.0833,2.0833,2.0833,2.0833,2.0833,2.0833,2.0833,2.0833,2.0833,2.0833,2.0833,2.0872,1.9062,1.3815,0.547,-0.0,-0.0,0.2877,0.3661,0.0262,-0.0,-0.0,-0.0,-0.0,-0.0,-0.0,-0.7021,-1.7967,-3.2845,-4.6871,-6.1013,-7.5477,-8.9574,-10.1507,-11.1642,-11.3442,-11.7133,-12.2385,-12.4539,-12.6914,0.9212,0.9672,0.9742,0.9414,1.0292,1.1053,1.0919,1.0627,1.0482,1.0482,1.072,1.1221,1.221,1.2658,1.3449,1.5189,1.5704,1.6152,1.6904,1.7246,1.7576,1.7985,1.7919,1.7998,1.8394,1.8314,1.842,1.8868,1.9013,1.9092,1.9092,1.9092,1.9092,1.9092,1.9092,1.9237,1.9527,1.9831,2.0187,2.0595,2.0754,2.0833,2.0833,2.0833,2.0833,2.0833,2.0833,2.0833,2.0833,2.0833,2.0833,2.0833,2.0833,2.0833,2.0833,2.0833,2.0833,2.0833,2.0833,2.0833,2.0833,2.0833,2.0833,2.0833,2.0833,2.0833,2.0833,2.0833,2.0833,2.0833,2.0833,2.0833,2.0833,2.0833,2.0833,2.0833,2.0833,2.0833,2.0833,2.0833,2.0833,2.0833,2.0833,2.0899,1.8568,1.147,0.4434,-0.0,-0.0,-0.0,-0.0,-0.0,-0.0,-0.0,-0.0,-0.0,-0.0,-0.0,-0.7184,-1.7994,-3.282,-4.7101,-6.0563,-7.3632,-8.9005,-10.1474,-11.042,-11.2963,-11.7493,-12.3792,-12.5056,-12.7111,1.0256,1.0779,1.042,0.8697,0.9297,1.0078,0.9207,0.922,0.9454,0.9454,0.9662,1.0248,1.1669,1.1801,1.2315,1.4095,1.4715,1.5255,1.6033,1.6455,1.6956,1.7708,1.7629,1.78,1.8539,1.838,1.838,1.8723,1.896,1.9092,1.9092,1.9092,1.9092,1.9092,1.9092,1.9251,1.9593,1.9857,2.0266,2.0833,2.0833,2.0833,2.0833,2.0833,2.0833,2.0833,2.0833,2.0833,2.0833,2.0833,2.0833,2.0833,2.0833,2.0833,2.0833,2.0833,2.0833,2.0833,2.0833,2.0833,2.0833,2.0833,2.0833,2.0833,2.0833,2.0833,2.0833,2.0833,2.0833,2.0833,2.0833,2.0833,2.0833,2.0833,2.0833,2.0833,2.0833,2.0833,2.0833,2.0833,2.0833,2.0833,2.0833,2.0666,1.8343,1.1477,0.4437,-0.0,-0.0,-0.0,-0.0,-0.0,-0.0,-0.0,-0.0,-0.0,-0.0,-0.0,-0.709,-1.6961,-2.946,-4.3732,-5.7861,-7.1386,-8.7902,-10.0699,-10.9444,-11.2662,-11.7878,-12.4728,-12.5309,-12.6979,0.9012,1.0515,1.1074,0.7398,0.7701,0.8939,0.8859,0.8798,0.9005,0.9348,0.9471,0.9801,1.0614,1.1552,1.2241,1.25,1.3423,1.4623,1.6205,1.7101,1.7642,1.7774,1.7972,1.8156,1.8288,1.8262,1.8459,1.8987,1.9066,1.9092,1.9092,1.9092,1.9092,1.9092,1.9092,1.9356,1.991,1.9963,2.0266,2.0833,2.0833,2.0833,2.0833,2.0833,2.0833,2.0833,2.0833,2.0833,2.0833,2.0833,2.0833,2.0833,2.0833,2.0833,2.0833,2.0833,2.0833,2.0833,2.0833,2.0833,2.0833,2.0833,2.0833,2.0833,2.0833,2.0833,2.0833,2.0833,2.0833,2.0833,2.0833,2.0833,2.0833,2.0833,2.0833,2.0833,2.0833,2.0833,2.0833,2.0833,2.0833,2.0833,2.0833,2.0666,1.8343,1.1477,0.4437,-0.0,-0.0,-0.0,-0.0,-0.0,-0.0,-0.0,-0.0,-0.0,-0.0,-0.0,-0.7152,-1.2339,-1.4619,-2.8925,-4.7642,-7.1104,-8.5745,-9.7593,-10.6969,-11.1943,-11.652,-12.0866,-12.4081,-12.6453,0.7843,0.7261,0.5984,0.7218,0.8167,0.8348,0.6662,0.6374,0.6344,0.6599,0.8129,0.9376,0.8706,1.0093,1.1453,1.1742,1.3013,1.4363,1.5212,1.6343,1.7207,1.7523,1.7682,1.7892,1.8209,1.8235,1.8341,1.8604,1.8921,1.9092,1.9092,1.9092,1.9092,1.9092,1.9092,1.9382,1.9976,2.0134,2.0424,2.0833,2.0833,2.0833,2.0833,2.0833,2.0833,2.0833,2.0833,2.0833,2.0833,2.0833,2.0833,2.0833,2.0833,2.0833,2.0833,2.0833,2.0833,2.0833,2.0833,2.0833,2.0833,2.0833,2.0833,2.0833,2.0833,2.0833,2.0833,2.0833,2.0833,2.0833,2.0833,2.0833,2.0833,2.0833,2.0833,2.0833,2.0833,2.0833,2.0833,2.0833,2.0833,2.0846,2.0872,2.0692,1.728,0.6515,0.2088,-0.0,-0.0,-0.0,-0.0,-0.0,-0.0,-0.0,-0.0,-0.0,-0.0,-0.0,-0.3196,-0.8897,-1.7079,-2.7676,-4.3329,-6.4379,-8.2923,-9.6748,-10.598,-11.158,-11.6969,-12.1876,-12.3615,-12.5599,0.5418,0.0,0.1101,0.5551,0.6679,0.6073,0.0,0.322,0.3697,0.5415,0.6613,0.7129,0.6654,0.8792,1.0756,1.1451,1.2859,1.4208,1.4598,1.5405,1.635,1.7075,1.7233,1.7523,1.8169,1.8235,1.8288,1.8433,1.8842,1.9092,1.9092,1.9092,1.9092,1.9092,1.9158,1.9448,1.9976,2.0253,2.0543,2.0833,2.0833,2.0833,2.0833,2.0833,2.0833,2.0833,2.0833,2.0833,2.0833,2.0833,2.0833,2.0833,2.0833,2.0833,2.0833,2.0833,2.0833,2.0833,2.0833,2.0833,2.0833,2.0833,2.0833,2.0833,2.0833,2.0833,2.0833,2.0833,2.0833,2.0833,2.0833,2.0833,2.0833,2.0833,2.0833,2.0833,2.0833,2.0833,2.0833,2.0833,2.0833,2.0846,2.0899,1.937,1.4119,0.1825,-0.0,-0.0,-0.0,-0.0,-0.0,-0.0,-0.0,-0.0,-0.0,-0.0,-0.0,-0.0,-0.0,-0.6784,-2.1796,-2.7939,-3.9044,-5.6879,-7.5741,-9.0301,-10.0945,-10.9881,-11.7285,-12.2968,-12.3297,-12.4612,0.0,0.0286,0.0146,0.0583,0.0594,0.0597,0.0284,0.0281,0.0,0.8706,0.5072,0.1692,0.4825,0.8151,1.09,1.2052,1.2663,1.351,1.5314,1.5083,1.5308,1.6416,1.6798,1.7299,1.8156,1.8235,1.8459,1.8987,1.9066,1.9092,1.9092,1.9092,1.9092,1.9092,1.9356,1.9659,1.9976,2.0253,2.0543,2.0833,2.0833,2.0833,2.0833,2.0833,2.0833,2.0833,2.0833,2.0833,2.0833,2.0833,2.0833,2.0833,2.0833,2.0833,2.0833,2.0833,2.0833,2.0833,2.0833,2.0833,2.0833,2.0833,2.0833,2.0833,2.0833,2.0833,2.0833,2.0833,2.0833,2.0833,2.0833,2.0833,2.0833,2.0833,2.0833,2.0833,2.0833,2.0833,2.0833,2.0833,2.0833,2.0846,2.0899,1.539,0.8603,0.1043,-0.0,-0.0,-0.0,-0.0,-0.0,-0.0,-0.0,-0.0,-0.0,-0.0,-0.0,-0.0,-0.0,-0.6851,-2.1809,-2.2719,-3.2085,-5.1238,-5.9637,-7.1627,-8.7595,-10.5593,-11.6777,-12.1456,-12.2837,-12.356,-0.0,-0.0,-0.0,-0.0,-0.0,-0.0,-0.0,-0.0,0.0715,0.3394,0.1855,0.0395,0.1738,0.3112,0.41,0.4532,1.0732,1.553,1.5596,1.5511,1.5971,1.6592,1.7033,1.7405,1.7906,1.813,1.8407,1.8802,1.9,1.9092,1.9092,1.9092,1.9171,1.9356,1.9659,1.9949,2.0239,2.053,2.0727,2.0833,2.0833,2.0833,2.0833,2.0833,2.0833,2.0833,2.0833,2.0833,0.0,2.0833,2.0833,2.0833,2.0833,2.0833,2.0833,2.0833,2.0833,2.0833,2.0833,2.0833,2.0833,2.0833,2.0833,2.0833,2.0833,2.0833,2.0833,2.0833,2.0833,2.0833,2.0833,2.0833,2.0833,2.0833,2.0833,2.0833,2.0833,2.0833,2.0833,2.0833,2.0833,2.0859,2.0692,1.515,0.8082,0.1045,-0.0,-0.0,-0.0,-0.0,-0.0,-0.0,-0.0,-0.0,-0.0,-0.0,-0.0,-0.0,-0.0,-0.2475,-0.8137,-1.2879,-2.3808,-4.1605,-5.4266,-6.9047,-8.6127,-10.0665,-11.2595,-12.1258,-12.286,-12.4122,-0.0,-0.0,-0.0,-0.0,-0.0,-0.0,-0.0,-0.0,-0.0,-0.0,-0.0,-0.0,-0.0,-0.0,0.1012,0.3942,1.0989,1.5979,1.5351,1.5738,1.6005,1.6484,1.6979,1.7352,1.7629,1.809,1.8499,1.8789,1.8987,1.9092,1.9092,1.9092,1.9224,1.9527,1.9831,2.0121,2.0385,2.0688,2.0833,2.0833,2.0833,2.0833,2.0833,2.0833,2.0833,2.0833,2.0833,2.0833,2.0833,2.0833,2.0833,2.0833,2.0833,2.0833,2.0833,2.0833,2.0833,2.0833,2.0833,2.0833,2.0833,2.0833,2.0833,2.0833,2.0833,2.0833,2.0833,2.0833,2.0833,2.0833,2.0833,2.0833,2.0833,2.0833,2.0833,2.0833,2.0833,2.0833,2.0833,2.0833,2.0833,2.0872,2.0718,1.5159,0.8082,0.1046,-0.0,-0.0,-0.0,-0.0,-0.0,-0.0,-0.0,-0.0,-0.0,-0.0,-0.0,-0.0,-0.0,-0.0,-0.0,-0.9527,-2.2399,-3.8682,-5.2803,-6.8726,-8.6127,-9.8126,-10.9273,-11.919,-12.175,-12.377,-0.0,-0.0,-0.0,-0.0,-0.0,-0.0,-0.0,-0.0,-0.0,-0.0,-0.0,-0.0,-0.0,-0.0,0.2931,1.2159,1.3589,1.399,1.4711,1.5314,1.5796,1.6047,1.6587,1.7049,1.7352,1.8169,1.8789,1.9066,1.9092,1.9092,1.9092,1.9092,1.9224,1.9527,1.9831,2.0121,2.0398,2.0688,2.0833,2.0833,2.0833,2.0833,2.0833,2.0833,2.0833,2.0833,2.0833,2.0833,2.0833,2.0833,2.0833,2.0833,2.0833,2.0833,2.0833,2.0833,2.0833,2.0833,2.0833,2.0833,2.0833,2.0833,2.0833,2.0833,2.0833,2.0833,2.0833,2.0833,2.0833,2.0833,2.0833,2.0833,2.0833,2.0833,2.0833,2.0833,2.0833,2.0833,2.0833,2.0833,2.0833,2.0872,2.0718,1.5159,0.8082,0.1046,-0.0,-0.0,-0.0,-0.0,-0.0,-0.0,-0.0,-0.0,-0.0,-0.0,-0.0,-0.0,-0.0,-0.0,-0.0,-1.4604,-2.9243,-4.3678,-5.4615,-6.8726,-8.6127,-9.8126,-10.7519,-11.4322,-11.919,-12.2181,-0.0,-0.0,-0.0,-0.0,-0.0,-0.0,-0.0,-0.0,-0.0,-0.0,-0.0,-0.0,-0.0,-0.0,0.092,0.3643,0.4093,0.4244,0.433,1.0827,1.5888,1.6781,1.6939,1.7128,1.7616,1.809,1.8565,1.9053,1.9092,1.9092,1.9092,1.9092,1.933,1.9831,1.9936,2.0213,2.0701,2.0793,2.0833,2.0833,2.0833,2.0833,2.0833,2.0833,2.0833,2.0833,2.0833,2.0833,2.0833,2.0833,2.0833,2.0833,2.0833,2.0833,2.0833,2.0833,2.0833,2.0833,2.0833,2.0833,2.0833,2.0833,2.0833,2.0833,2.0833,2.0833,2.0833,2.0833,2.0833,2.0833,2.0833,2.0833,2.0833,2.0833,2.0833,2.0833,2.0833,2.0833,2.0833,2.0833,2.0833,2.0872,2.0718,1.5159,0.8082,0.1046,-0.0,-0.0,-0.0,-0.0,-0.0,-0.0,-0.0,-0.0,-0.0,-0.0,-0.0,-0.0,-0.0,-0.2514,-0.7617,-2.2203,-3.4557,-4.3575,-5.6304,-7.0386,-8.6127,-9.7435,-10.6865,-11.4497,-12.0339,-12.3933,-0.0,-0.0,-0.0,-0.0,-0.0,-0.0,-0.0,-0.0,-0.0,-0.0,-0.0,-0.0,-0.0,-0.0,-0.0,-0.0,-0.0,0.146,0.5603,1.209,1.6459,1.7106,1.7166,1.7339,1.7906,1.813,1.8473,1.904,1.9092,1.9092,1.9092,1.9092,1.9369,1.9963,1.9989,2.0253,2.0833,2.0833,2.0833,2.0833,2.0833,2.0833,2.0833,2.0833,2.0833,2.0833,2.0833,2.0833,2.0833,2.0833,2.0833,2.0833,2.0833,2.0833,2.0833,2.0833,2.0833,2.0833,2.0833,2.0833,2.0833,2.0833,2.0833,2.0833,2.0833,2.0833,2.0833,2.0833,2.0833,2.0833,2.0833,2.0833,2.0833,2.0833,2.0833,2.0833,2.0833,2.0833,2.0833,2.0833,2.0833,2.0872,2.0718,1.5159,0.8082,0.1046,-0.0,-0.0,-0.0,-0.0,-0.0,-0.0,-0.0,-0.0,-0.0,-0.0,-0.2418,-0.7902,-0.3037,-0.3351,-1.1002,-2.5579,-3.6813,-4.3523,-5.7134,-7.1078,-8.5268,-9.6879,-10.6206,-11.3624,-12.0555,-12.4762,-0.0,-0.0,-0.0,-0.0,-0.0,-0.0,-0.0,-0.0,-0.0,-0.0,-0.0,-0.0,-0.0,-0.0,-0.0,-0.0,-0.0,0.3612,1.415,1.6099,1.6538,1.6799,1.7046,1.7629,1.8183,1.8262,1.8499,1.9053,1.9092,1.9092,1.9092,1.9092,1.9369,1.9963,1.9989,2.0253,2.0833,2.0833,2.0833,2.0833,2.0833,2.0833,2.0833,2.0833,2.0833,2.0833,2.0833,2.0833,2.0833,2.0833,2.0833,2.0833,2.0833,2.0833,2.0833,2.0833,2.0833,2.0833,2.0833,2.0833,2.0833,2.0833,2.0833,2.0833,2.0833,2.0833,2.0833,2.0833,2.0833,2.0833,2.0833,2.0833,2.0833,2.0833,2.0833,2.0833,2.0833,2.0833,2.0833,2.0833,2.0833,2.0872,2.0718,1.5159,0.8082,0.1046,-0.0,-0.0,-0.0,-0.0,-0.0,-0.0,-0.0,-0.0,-0.0,-0.1059,-0.7251,-1.9965,-0.8269,-0.4176,-1.0963,-2.5227,-3.6456,-4.3445,-5.71,-7.0593,-8.4118,-9.6378,-10.5668,-11.2549,-12.0262,-12.4695,-0.0,-0.0,-0.0,-0.0,-0.0,-0.0,-0.0,-0.0,-0.0,-0.0,-0.0,-0.0,-0.0,-0.0,-0.0,-0.0,-0.0,0.3955,1.5329,1.3306,1.2313,1.6657,1.7563,1.784,1.8196,1.8446,1.8723,1.9066,1.9092,1.9092,1.9092,1.9092,1.9369,1.9963,1.9989,2.0253,2.0833,2.0833,2.0833,2.0833,2.0833,2.0833,2.0833,2.0833,2.0833,2.0833,2.0833,2.0833,2.0833,2.0833,2.0833,2.0833,2.0833,2.0833,2.0833,2.0833,2.0833,2.0833,2.0833,2.0833,2.0833,2.0833,2.0833,2.0833,2.0833,2.0833,2.0833,2.0833,2.0833,2.0833,2.0833,2.0833,2.0833,2.0833,2.0833,2.0833,2.0833,2.0833,2.0833,2.0833,2.0833,2.0872,2.0718,1.5159,0.8082,0.1046,-0.0,-0.0,-0.0,-0.0,-0.0,-0.0,-0.0,-0.0,-0.0,-1.0054,-1.7694,-2.0515,-1.3033,-0.9279,-1.1219,-2.3581,-3.442,-4.3369,-5.6862,-7.0593,-8.4118,-9.5405,-10.477,-11.2549,-12.0523,-12.4862,-0.0,-0.0,-0.0,-0.0,-0.0,-0.0,-0.0,-0.0,-0.0,-0.0,-0.0,-0.0,-0.0,-0.0,-0.0,-0.0,-0.0,0.2023,0.8253,1.1283,1.393,1.7012,1.7682,1.7945,1.8235,1.8525,1.8789,1.9066,1.9092,1.9092,1.9092,1.9092,1.9369,1.9963,1.9989,2.0253,2.0833,2.0833,2.0833,2.0833,2.0833,2.0833,2.0833,2.0833,2.0833,2.0833,2.0833,2.0833,2.0833,2.0833,2.0833,2.0833,2.0833,2.0833,2.0833,2.0833,2.0833,2.0833,2.0833,2.0833,2.0833,2.0833,2.0833,2.0833,2.0833,2.0833,2.0833,2.0833,2.0833,2.0833,2.0833,2.0833,2.0833,2.0833,2.0833,2.0833,2.0833,2.0833,2.0833,2.0833,2.0833,2.0872,2.0718,1.5159,0.8082,0.1046,-0.0,-0.0,-0.0,-0.0,-0.0,-0.0,-0.0,-0.2607,-0.9395,-1.6614,-2.0793,-2.0668,-1.1269,-0.8612,-1.5965,-2.4635,-3.34,-4.2695,-5.5977,-6.8567,-8.0495,-9.322,-10.3574,-11.1551,-12.0209,-12.4972,-0.0,-0.0,-0.0,-0.0,-0.0,-0.0,-0.0,-0.0,-0.0,-0.0,-0.0,-0.0,-0.0,-0.0,-0.0,-0.0,-0.0,-0.0,-0.0,0.9935,1.7405,1.7306,1.6831,1.7069,1.8514,1.8781,1.8802,1.9079,1.9066,1.9053,1.9106,1.9092,1.9343,1.9883,1.9949,2.0253,2.0833,2.0833,2.0833,2.0833,2.0833,2.0833,2.0833,2.0833,2.0833,2.0833,2.0833,2.0833,2.0833,2.0833,2.0833,2.0833,2.0833,2.0833,2.0833,2.0833,2.0833,2.0833,2.0833,2.0833,2.0833,2.0833,2.0833,2.0833,2.0833,2.0833,2.0833,2.0833,2.0833,2.0833,2.0833,2.0833,2.0833,2.0833,2.0833,2.0833,2.0833,2.0833,2.0833,2.0833,2.0833,2.0872,2.0718,1.5159,0.8082,0.1046,-0.0,-0.0,-0.0,-0.0,-0.0,-0.0,-0.1044,-0.704,-1.9666,-2.0757,-2.0338,-1.9183,-0.9285,-0.9037,-2.1239,-2.6525,-3.3513,-4.1974,-5.5024,-6.6709,-7.7354,-9.1375,-10.2491,-11.0657,-11.9605,-12.4697,-0.0,-0.0,-0.0,-0.0,-0.0,-0.0,-0.0,-0.0,-0.0,-0.0,-0.0,-0.0,-0.0,-0.0,-0.0,-0.0,-0.0,-0.0,-0.0,0.9992,1.7393,1.7385,1.3271,1.279,1.8341,1.9065,1.9088,1.9132,1.8934,1.9142,1.9132,1.9106,1.9237,1.958,1.9844,2.0253,2.0833,2.0833,2.0833,2.0833,2.0833,2.0833,2.0833,2.0833,2.0833,2.0833,2.0833,2.0833,2.0833,2.0833,2.0833,2.0833,2.0833,2.0833,2.0833,2.0833,2.0833,2.0833,2.0833,2.0833,2.0833,2.0833,2.0833,2.0833,2.0833,2.0833,2.0833,2.0833,2.0833,2.0833,2.0833,2.0833,2.0833,2.0833,2.0833,2.0833,2.0833,2.0833,2.0833,2.0833,2.0833,2.0872,2.0718,1.5159,0.8082,0.1046,-0.0,-0.0,-0.0,-0.0,-0.0,-0.0,-0.5474,-1.2249,-2.0123,-2.0925,-1.8308,-1.2296,-1.5699,-1.8886,-2.0822,-2.7674,-3.4591,-4.1644,-5.4888,-6.7878,-8.0372,-9.1387,-10.142,-11.0657,-11.867,-12.379,-0.0,-0.0,-0.0,-0.0,-0.0,-0.0,-0.0,-0.0,-0.0,-0.0,-0.0,-0.0,-0.0,-0.0,-0.0,-0.0,-0.0,-0.0,-0.0,0.4455,0.7535,0.7646,1.195,1.5955,1.8843,1.5817,1.511,1.8713,1.5635,1.5207,1.8908,1.9132,1.9251,1.9527,1.9831,2.0174,2.0582,2.0754,2.0833,2.0833,2.0833,2.0833,2.0833,2.0833,2.0833,2.0833,2.0833,2.0833,2.0833,2.0833,2.0833,2.0833,2.0833,2.0833,2.0833,2.0833,2.0833,2.0833,2.0833,2.0833,2.0833,2.0833,2.0833,2.0833,2.0833,2.0833,2.0833,2.0833,2.0833,2.0833,2.0833,2.0833,2.0833,2.0833,2.0833,2.0833,2.0833,2.0833,2.0833,2.0833,2.0859,2.0899,2.0731,1.1744,0.3652,0.0523,-0.0,-0.0,-0.0,-0.0,-0.0,-0.0,-0.9662,-1.7529,-2.0433,-2.0705,-1.7789,-1.095,-1.701,-2.2576,-2.6262,-3.0874,-3.5802,-4.0981,-5.3663,-6.592,-7.7699,-8.9688,-10.0753,-11.0657,-11.8468,-12.3583,-0.0,-0.0,-0.0,-0.0,-0.0,-0.0,-0.0,-0.0,-0.0,-0.0,-0.0,-0.0,-0.0,-0.0,-0.0,-0.0,-0.0,-0.0,-0.0,-0.0,-0.0,-0.0,0.8382,1.4287,1.4128,1.2931,1.2661,1.4054,1.2789,1.4074,1.871,1.8947,1.9303,1.9567,2.0116,2.0396,2.0411,2.0714,2.0846,2.0833,2.0833,2.0833,2.0833,2.0833,2.0833,2.0833,2.0833,2.0833,2.0833,2.0833,2.0833,2.0833,2.0833,2.0833,2.0833,2.0833,2.0833,2.0833,2.0833,2.0833,2.0833,2.0833,2.0833,2.0833,2.0833,2.0833,2.0833,2.0833,2.0833,2.0833,2.0833,2.0833,2.0833,2.0833,2.0833,2.0833,2.0833,2.0833,2.0833,2.0833,2.0859,2.0899,2.0692,1.069,0.3391,0.4972,0.2355,-0.0,-0.0,-0.0,-0.1308,-0.4972,-1.3077,-1.8863,-2.0718,-2.0731,-1.7811,-1.095,-1.5439,-2.0459,-2.5391,-3.07,-3.5804,-4.0669,-5.2914,-6.4709,-7.6263,-8.886,-10.0214,-11.0657,-11.8468,-12.3583,-0.0,-0.0,-0.0,-0.0,-0.0,-0.0,-0.0,-0.0,-0.0,-0.0,-0.0,-0.0,-0.0,-0.0,-0.0,-0.0,-0.0,-0.0,-0.0,-0.0,-0.0,-0.0,0.0655,0.0879,0.0893,1.1593,1.3636,0.1872,1.1989,1.8778,1.9064,1.9038,1.9382,1.9916,2.047,2.074,2.0717,2.0754,2.0886,2.0833,2.0833,2.0833,2.0833,2.0833,2.0833,2.0833,2.0833,2.0833,2.0833,2.0833,2.0833,2.0833,2.0833,2.0833,2.0833,2.0833,2.0833,2.0833,2.0833,2.0833,2.0833,2.0833,2.0833,2.0833,2.0833,2.0833,2.0833,2.0833,2.0833,2.0833,2.0833,2.0833,2.0833,2.0833,2.0833,2.0833,2.0833,2.0833,2.0833,2.0833,2.0846,2.0846,2.0846,1.4843,1.228,1.872,0.8385,-0.0,-0.0,-0.0,-0.4972,-1.8401,-1.4388,-1.3564,-2.0123,-2.0705,-1.7811,-1.095,-1.095,-1.121,-1.147,-2.4022,-3.4064,-4.0435,-5.2744,-6.5839,-7.9733,-8.9923,-10.0214,-11.0657,-11.8468,-12.3583,-0.0,-0.0,-0.0,-0.0,-0.0,-0.0,-0.0,-0.0,-0.0,-0.0,-0.0,-0.0,-0.0,-0.0,-0.0,-0.0,-0.0,-0.0,-0.0,-0.0,-0.0,-0.0,-0.0,-0.0,-0.0,0.4081,0.4841,0.0234,0.426,1.0271,1.8586,1.9064,1.7449,1.3939,1.4024,1.4221,1.4288,1.853,2.078,2.0679,2.0679,2.0925,2.0886,2.0886,2.0886,2.0886,2.0886,2.0899,2.0679,2.0899,2.0886,2.0872,2.0846,2.0833,2.0833,2.0833,2.0833,2.0833,2.0833,2.0833,2.0833,2.0833,2.0833,2.0833,2.0833,2.0859,2.0886,2.0886,2.0886,2.0886,2.0886,2.0859,2.0833,2.0833,2.0833,2.0833,2.0833,2.0833,2.0833,2.0833,2.0833,2.0846,2.0872,1.8791,1.8049,2.0549,0.8902,-0.0,-0.0,-0.0,-0.1831,-0.6802,-1.3355,-1.8106,-2.0484,-2.077,-1.5989,-0.4432,-0.3648,-0.7822,-1.675,-2.4594,-3.2485,-4.0167,-5.2778,-6.5881,-7.9733,-8.9923,-9.9794,-10.918,-11.602,-12.0651,-0.0,-0.0,-0.0,-0.0,-0.0,-0.0,-0.0,-0.0,-0.0,-0.0,-0.0,-0.0,-0.0,-0.0,-0.0,-0.0,-0.0,-0.0,-0.0,-0.0,-0.0,-0.0,-0.0,-0.0,-0.0,-0.0,-0.0,-0.0,-0.0,0.36,1.2267,1.2746,1.0851,0.7033,0.7072,0.9135,1.387,1.8569,1.9742,1.7297,1.7297,1.7275,1.7497,1.9856,2.0701,2.0793,1.8415,1.743,1.754,1.9864,2.0899,2.0899,2.0859,2.0833,2.0833,2.0833,2.0833,2.0846,2.0859,2.0846,2.0833,2.0833,2.0833,2.0846,2.0859,2.0886,2.0381,1.8003,1.9062,2.0899,2.0899,2.0872,2.0833,2.0833,2.0833,2.0833,2.0833,2.0833,2.0833,2.0833,2.0833,2.0846,2.0872,2.0912,2.0705,2.0783,0.8897,-0.0,-0.0,-0.0,-0.0,-0.0,-1.258,-2.0809,-2.0809,-1.6531,-0.9935,-0.0521,-0.2347,-0.8608,-2.0211,-2.5917,-3.2485,-4.0167,-5.2812,-6.5756,-7.9192,-8.8952,-9.8526,-10.7808,-11.3606,-11.8261,-0.0,-0.0,-0.0,-0.0,-0.0,-0.0,-0.0,-0.0,-0.0,-0.0,-0.0,-0.0,-0.0,-0.0,-0.0,-0.0,-0.0,-0.0,-0.0,-0.0,-0.0,-0.0,-0.0,-0.0,-0.0,-0.0,-0.0,-0.0,-0.0,-0.0,-0.0,-0.0,-0.0,-0.0,-0.0,0.638,1.9996,2.029,1.6833,1.0235,1.0235,1.0484,1.0989,1.7818,2.0543,1.9767,1.3026,1.0284,1.0683,1.7744,2.0912,2.0899,2.0859,2.0846,2.0846,2.0846,2.0588,2.0575,2.0627,2.0872,2.0846,2.0846,2.0846,2.0846,2.0899,2.0381,1.8791,1.2517,1.539,2.064,2.064,2.0872,2.0833,2.0833,2.0833,2.0833,2.0833,2.0833,2.0833,2.0833,2.0833,2.0833,2.0846,2.0666,2.0731,2.0211,0.8624,-0.0,-0.0,-0.0,-0.0,-0.0,-1.205,-2.0275,-2.0275,-0.7837,-0.0,-0.0,-0.6511,-1.3573,-2.0471,-2.7225,-3.4042,-4.0409,-5.2812,-6.5246,-7.7958,-8.7169,-9.6559,-10.631,-11.1505,-11.6654,-0.0,-0.0,-0.0,-0.0,-0.0,-0.0,-0.0,-0.0,-0.0,-0.0,-0.0,-0.0,-0.0,-0.0,-0.0,-0.0,-0.0,-0.0,-0.0,-0.0,-0.0,-0.0,-0.0,-0.0,-0.0,-0.0,-0.0,-0.0,-0.0,-0.0,-0.0,-0.0,-0.0,-0.0,-0.0,0.1941,0.5644,0.5667,0.4714,0.3005,0.3005,0.828,1.7923,1.9937,1.5345,0.553,0.3809,0.2815,0.3861,1.5919,2.077,2.0757,2.0925,2.0886,2.0886,2.0679,1.7507,1.4074,1.911,2.0705,2.0692,2.0692,2.0692,2.0705,2.0718,1.3832,0.7557,1.5689,1.5679,1.4602,1.9592,2.0872,2.0833,2.0833,2.0833,2.0833,2.0833,2.0833,2.0833,2.0833,2.0833,2.0846,2.0886,2.0912,1.7248,0.7301,0.2351,-0.0,-0.0,-0.0,-0.0,-0.0,-0.34,-0.5756,-0.5756,-0.2091,-0.0,-0.0,-0.6511,-1.353,-2.051,-2.7376,-3.5036,-4.3922,-5.4028,-6.5205,-7.7958,-8.6065,-9.5213,-10.4779,-10.7885,-11.2625,-0.0,-0.0,-0.0,-0.0,-0.0,-0.0,-0.0,-0.0,-0.0,-0.0,-0.0,-0.0,-0.0,-0.0,-0.0,-0.0,-0.0,-0.0,-0.0,-0.0,-0.0,-0.0,-0.0,-0.0,-0.0,-0.0,-0.0,-0.0,-0.0,-0.0,-0.0,-0.0,-0.0,-0.0,-0.0,-0.0,-0.0,-0.0,-0.0,-0.0,-0.0,0.4192,1.212,1.2096,0.763,-0.0,-0.0,-0.0,0.1025,1.5035,2.0705,2.0536,1.7518,1.8285,2.0123,1.4179,1.1536,1.1011,1.5146,1.6517,1.6602,1.7363,1.7182,1.5959,1.3061,1.0443,0.9135,1.1491,1.3313,1.5649,1.9851,2.0872,2.0833,2.0833,2.0833,2.0833,2.0833,2.0833,2.0846,2.0859,2.0859,2.0886,2.0679,1.5919,0.9341,0.1285,-0.0,-0.0,-0.0,-0.0,-0.0,-0.0,-0.0,-0.0,-0.0,-0.2612,-0.3131,-0.0261,-0.9377,-1.6644,-2.0675,-2.8533,-3.6991,-4.5417,-5.5695,-6.6452,-7.7121,-8.4621,-9.319,-10.2536,-10.4335,-10.8941,-0.0907,-0.0436,-0.0,-0.0,-0.0,-0.0,0.0,-0.0,-0.0,-0.0,-0.0,-0.0,-0.0,-0.0,-0.0,-0.0,-0.0816,-0.124,-0.0207,-0.0,-0.0,-0.0,-0.0,-0.0,-0.0,-0.0,-0.0,-0.0,-0.0,-0.0,-0.0,-0.0,-0.0,-0.0,-0.0,-0.0,-0.0,-0.0,-0.0,-0.0,-0.0,-0.0,-0.0,-0.0,-0.0,-0.0,-0.0,-0.0,0.102,1.3315,1.838,1.8049,1.353,1.4565,1.6902,0.454,0.3996,0.9239,0.9239,1.033,1.1469,1.17,1.052,0.8046,0.1817,0.8575,1.6158,0.5453,1.1153,2.082,2.082,2.0793,2.0767,2.0806,2.0806,2.0806,2.0846,2.0846,2.0846,2.0859,2.0072,1.9285,1.8521,0.8311,-0.0,-0.0,-0.0,-0.0,-0.0,-0.0,-0.0,-0.0,-0.0,-0.0521,-0.2083,-0.7268,-0.8046,-0.2601,-1.3771,-2.1037,-2.1952,-3.1237,-3.9616,-4.6372,-5.7804,-6.7855,-7.6437,-8.3139,-9.0934,-10.0107,-10.1353,-10.5735,0.0,0.0,0.0,0.0,0.0,0.0,0.0,-0.0,-0.0,-0.0,-0.0,-0.0,-0.0,-0.0,-0.0,-0.0,-0.6168,-0.8546,-0.1015,-0.0,-0.0,-0.0,-0.0,-0.0,-0.0,-0.0,-0.0,-0.0,-0.0,-0.0,-0.0,-0.0,-0.0,-0.0,-0.0,-0.0,-0.0,-0.0,-0.0,-0.0,-0.0,-0.0,-0.0,-0.0,-0.0,-0.0,-0.0,-0.0,0.0248,0.3009,0.4039,0.5061,1.4952,1.2664,0.3791,0.1005,0.0752,0.2005,0.2005,0.8804,1.5697,0.5793,0.2269,0.1769,0.0506,0.1771,0.5816,1.4438,1.8784,2.0835,2.0794,2.0781,2.0835,2.0824,2.0837,2.0877,2.0912,2.0666,2.0846,2.093,1.6188,1.0721,0.5048,0.1764,-0.0,-0.0,-0.0,-0.0,-0.0,-0.0,-0.0,-0.0,-0.0,-0.4552,-1.5728,-1.2371,-1.1639,-1.5902,-1.8906,-2.3005,-2.8606,-3.605,-4.4006,-5.2723,-6.0158,-6.8908,-7.9362,-8.3075,-9.0081,-10.0107,-10.0356,-10.4244,0.0,0.0,0.0,0.0,0.0,0.0,0.0,0.0,0.0,0.0,0.0,-0.0,-0.0,0.0,-0.0,-0.0,-0.7773,-1.1441,-0.4521,-0.5436,-0.7125,-0.7782,-0.3209,-0.0,-0.0,-0.0,-0.0,-0.0,-0.0,-0.0,-0.0,-0.0,-0.0,-0.0,-0.0,-0.0,-0.0,-0.0,-0.0,-0.0,-0.0,-0.0,-0.0,-0.0,-0.0,-0.0,-0.0,-0.0,-0.0,-0.0,-0.0,0.0752,0.7656,0.6135,-0.0,-0.0,-0.0,0.0982,0.7365,0.9634,0.8458,0.1984,-0.0,-0.0,-0.0,0.2506,0.6754,1.3788,1.8067,2.0343,2.0316,1.8788,1.7059,1.6932,1.643,1.6473,2.0008,1.8181,1.4523,1.1135,0.7573,0.4031,0.0501,-0.0,-0.0,-0.0,-0.0,-0.0,-0.0,-0.0,-0.0,-0.0,-0.3189,-0.8116,-1.5123,-1.4278,-1.5318,-1.97,-2.1627,-2.5572,-3.2148,-3.8617,-4.6739,-5.6348,-6.3679,-7.1601,-8.0231,-8.541,-9.1722,-9.911,-10.1315,-10.5458,0.0,0.0,0.0,0.0,0.0,0.0,0.0,0.0,0.0,0.0,0.0,0.0,0.0,0.0,0.0,-0.2347,-0.8098,-1.1001,-0.744,-1.0789,-1.3942,-1.5146,-0.6271,-0.0,-0.0,-0.0,-0.0,-0.0,-0.0,-0.0,-0.0,-0.0,-0.0,-0.0,-0.0,-0.0,-0.0,-0.0,-0.0,-0.0,-0.0,0.0,-0.0,-0.0,-0.0,-0.0,-0.0,-0.0,-0.0,-0.0,-0.0,-0.0,-0.0,-0.0,-0.0,-0.0,0.1426,0.4756,1.5043,1.0567,-0.0,-0.0,-0.0,-0.0,-0.0,0.3972,0.0,1.1411,1.5883,1.987,1.987,1.7115,1.3634,1.1171,1.1689,1.3219,1.6042,1.2507,0.7479,0.4232,0.1743,-0.0,-0.0,0.1952,0.2876,0.0478,-0.0,-0.0,-0.0,-0.0,-0.0,-0.0,-0.5032,-0.9382,-1.1659,-1.5365,-1.8297,-1.9778,-2.2161,-2.6358,-3.3113,-4.0556,-4.8707,-5.79,-6.6289,-7.4189,-8.1067,-8.7578,-9.3419,-9.8598,-9.9815,-10.3754,0.0,0.0,0.0,0.0,0.0,0.0,0.0,0.0,0.0,0.0,0.0,0.0,0.0,0.0,0.0,0.0,-0.9198,-0.6942,-0.6998,-1.0201,-1.2873,-1.3838,-0.5636,-0.0,-0.0,-0.0,-0.0,-0.0,-0.0,-0.0,-0.0,-0.0,0.0,0.0,0.0,-0.0,-0.0,-0.0,-0.0,-0.0,-0.0,-0.0,-0.0,-0.0,-0.0,-0.0,-0.0,-0.0,-0.0,-0.0,-0.0,-0.0,-0.0,-0.0,-0.0,-0.0,0.6434,1.5483,1.6895,0.0,0.0,-0.0,-0.0,-0.0,-0.0,0.0482,0.3617,1.479,1.8485,1.9221,1.9221,1.8726,1.5577,0.4167,1.0829,1.6578,0.4732,0.1749,0.4232,1.4837,0.7876,-0.0,-0.0,0.9389,1.317,0.1649,-0.0,-0.0,-0.0,-0.0,-0.0,-0.0,-0.0718,0.0,-1.6058,-1.8247,-1.8875,-1.9158,-1.9182,-2.2664,-3.0472,-4.209,-5.1221,-5.7135,-6.5673,-7.4383,-8.3346,-8.751,-9.3282,-10.0296,-9.0604,-9.204,0.0,0.0,0.0,0.0,0.0,0.0,0.0,0.0,0.0,0.0,0.0,0.0,0.0,0.0,0.0,0.0,-1.1367,-1.0247,-1.0788,-1.2173,-1.1402,-0.6435,-0.2274,-0.0,-0.0,-0.0,-0.0,-0.0,-0.0,-0.0,-0.0,-0.0,-0.0,-0.0,-0.0,-0.0,-0.0,-0.0,-0.0,-0.0,-0.0,-0.0,-0.0,-0.0,-0.0,-0.0,-0.0,-0.0,-0.0,-0.0,-0.0,-0.0,0.0,0.0,0.0,0.0,1.3101,1.6365,0.963,0.412,-0.0,-0.0,-0.0,-0.0,-0.0,0.5137,1.2171,1.7638,1.6425,1.3569,1.3569,1.0825,0.6638,0.1192,0.4566,0.7033,0.1219,0.5866,1.0506,0.8497,0.363,0.0,0.9876,0.9376,0.6225,0.0714,-0.0,-0.0,-0.0,-0.0,-0.0,-0.0,-0.604,-1.2282,-1.818,-1.8354,0.0,0.0,0.0,-2.1895,-2.8936,-3.5946,0.0,0.0,0.0,-7.0497,-7.6802,-8.0157,0.0,0.0,-8.8747,-9.0648,0.0,0.0,0.0,0.0,0.0,0.0,0.0,0.0,0.0,0.0,0.0,0.0,0.0,0.0,0.0,0.0,-1.1914,-1.1869,-1.3643,-1.1629,-0.7452,-0.0858,-0.0,-0.0,-0.0,-0.0,-0.0,-0.0,-0.0,-0.0,-0.0,-0.0,-0.0,-0.0,-0.0,-0.0,-0.0,-0.0,-0.0,-0.0,-0.0,-0.0,-0.0,-0.0,-0.0,-0.0,-0.0,-0.0,-0.0,-0.0,-0.0,-0.0,-0.0,0.2008,0.5803,1.4128,1.7317,1.5721,0.4012,0.1788,0.3818,0.0902,-0.0,-0.0,-0.0,0.6411,1.3786,1.3786,1.0529,0.6843,0.6843,0.3453,-0.0,-0.0,-0.0,0.0948,0.4503,0.974,1.1192,0.1906,0.2846,0.7102,1.2852,0.6164,-0.0,-0.0,-0.0,-0.0,-0.0,-0.0,-0.0707,-0.2322,-1.1618,-1.7971,-1.8808,-1.8261,-1.8011,-1.8802,-1.8776,-2.1557,-2.7972,-3.1189,-4.0237,-5.6197,-6.2461,-6.7524,0.0,0.0,0.0,0.0,0.0,0.0,0.0,0.0,0.0,0.0,0.0,0.0,0.0,0.0,0.0,0.0,0.0,0.0,0.0,0.0,0.0,0.0,0.0,0.0,-1.323,-0.6052,-0.0306,-0.0,-0.0,-0.0,-0.0,-0.0,-0.0,-0.0,-0.0,-0.0,-0.0,-0.0,-0.0,-0.0,-0.0,-0.0,-0.0,-0.0,-0.0,-0.0,-0.0,-0.0,-0.0,-0.0,-0.0,-0.0,-0.0,-0.0,-0.0,-0.0,-0.0,-0.0,-0.0,0.6877,1.6811,1.7187,1.7394,1.5684,0.394,0.6716,1.3301,0.3257,-0.0,-0.0,-0.0,0.0229,0.0687,0.0687,0.0458,0.0229,0.0229,0.0229,-0.0,-0.0,-0.0,0.3438,1.5896,0.895,0.0461,-0.0,0.9958,1.4731,0.2751,0.0229,-0.0,-0.0,-0.0,0.0,-0.0,-0.0,-0.2283,-0.8664,-1.4842,-1.8288,-1.8248,-1.7721,-1.7642,-1.8222,-1.7998,-2.0946,-2.771,-3.1268,-3.776,-4.7261,-5.9173,-6.7217,-7.0919,0.0,0.0,0.0,0.0,0.0,0.0,0.0,0.0,0.0,0.0,0.0,0.0,0.0,0.0,0.0,0.0,0.0,0.0,0.0,0.0,0.0,0.0,0.0,0.0,-0.1913,-0.0,-0.0,-0.0,-0.0,-0.0,-0.0,-0.0,-0.0,-0.0,-0.0,-0.0,-0.0,-0.0,-0.0,-0.0,-0.0,-0.0,-0.0,-0.0,-0.0,-0.0,-0.0,-0.0,-0.0,-0.0,-0.0,-0.0,-0.0,-0.0,-0.0,-0.0,-0.0,-0.0,0.2487,0.6213,0.9746,1.0985,1.0341,0.66,0.9762,1.387,0.3368,-0.0,-0.0,-0.0,-0.0,-0.0,-0.0,-0.0,-0.0,-0.0,-0.0,-0.0,-0.0,-0.0,0.113,0.5484,0.2976,-0.0,-0.0,0.3386,0.5027,0.0836,-0.0,-0.0,-0.0,-0.0,-0.0,-0.0,-0.0,-0.3874,-1.3924,-1.6746,-1.784,-1.8222,-1.7879,-1.7813,-1.8209,-1.9907,-2.3656,-2.9804,-3.2887,-3.8684,-4.7602,-5.5064,-5.8462,-5.775,0.0,0.0,0.0,0.0,0.0,0.0,0.0,0.0,0.0,0.0,0.0,0.0,0.0,0.0,0.0,0.0,0.0,0.0,0.0,0.0,0.0,0.0,0.0,0.0,0.0,0.0,-0.0,-0.0,0.0,-0.0,-0.0,-0.0,-0.0,-0.0,-0.0,-0.0,-0.0,-0.0,-0.0,-0.0,-0.0,-0.0,-0.0,-0.0,-0.0,-0.0,-0.0,-0.0,-0.0,-0.0,-0.0,-0.0,-0.0,-0.0,-0.0,-0.0,-0.0,-0.0,-0.0,0.0765,0.7188,0.9609,0.9657,1.0193,1.2543,1.3895,0.348,-0.0,-0.0,-0.0,-0.0,-0.0,-0.0,-0.0,-0.0,-0.0,-0.0,-0.0,-0.0,-0.0,-0.0,-0.0,-0.0,-0.0,-0.0,-0.0,-0.0,-0.0,-0.3061,-0.419,-0.0593,-0.0,-0.0645,-0.2636,-0.4622,-0.8808,-1.6562,-1.7267,-1.7215,-1.7602,-1.7536,-1.7563,-1.7761,-2.0573,-2.4818,-3.0555,-3.5557,-4.0935,-4.7022,-5.3097,-5.4376,0.0,0.0,0.0,0.0,0.0,0.0,0.0,0.0,0.0,0.0,0.0,0.0,0.0,0.0,0.0,0.0,0.0,0.0,0.0,0.0,0.0,0.0,0.0,0.0,0.0,0.0,0.0,-0.0,-0.0,0.0,0.0,0.0,0.0,-0.0,-0.0,-0.0,-0.0,-0.0,-0.0,-0.0,-0.0,-0.0,-0.0,-0.0,-0.0,-0.0,-0.0,-0.0,-0.0,0.0604,0.0407,-0.0,-0.0,0.0207,0.0619,0.0793,0.0377,-0.0,-0.0,0.0344,0.1798,0.9927,1.3035,1.3304,1.4262,1.4841,1.3139,0.3167,-0.0,-0.0,-0.0,-0.0,0.0,0.0,-0.0,-0.0,0.0406,0.0206,-0.0,-0.0,-0.0,-0.0,-0.0,-0.0,-0.0,-0.0,-0.0,-0.02,-0.0555,0.0,-1.161,-0.1643,-0.0367,-0.2463,-0.7531,-1.3199,-1.6766,-1.6766,-1.6521,-1.6482,-1.6482,-1.6745,-1.6904,-1.7113,-2.038,-2.4952,-3.0811,-3.8674,-4.38,-4.5537,-5.2819,0.0,0.0,0.0,0.0,0.0,0.0,0.0,0.0,0.0,0.0,0.0,0.0,0.0,0.0,0.0,0.0,0.0,0.0,0.0,0.0,0.0,0.0,0.0,0.0,0.0,0.0,-0.0,-0.0,-0.0,-0.0,-0.0,0.0,0.0,0.0,0.0,0.0,0.0,-0.0,-0.0,-0.0,-0.0,-0.0,-0.0,-0.0,-0.0,-0.0,-0.0,-0.0,-0.0,0.0194,0.8058,0.7335,-0.0,-0.0,0.3988,1.0341,1.0244,0.6279,-0.0,-0.0,0.4733,1.175,1.2736,1.3588,1.4242,1.4052,0.9607,0.3494,0.085,-0.0,-0.0,-0.0,0.0,0.0,0.0,0.0,0.0994,0.5383,0.3294,-0.0,-0.0,-0.0,-0.0,-0.0,-0.0,-0.0,-0.0,-0.0,-0.1873,-0.7989,-0.7757,0.0,-0.2994,-0.5844,-0.9401,-1.2364,-1.4727,-1.633,-1.6508,-1.6495,-1.6482,-1.6482,-1.6561,-1.7407,-1.9233,-2.3771,-2.9565,-3.6601,-4.0328,-4.4347,-4.9055,0.0,0.0,0.0,0.0,0.0,0.0,0.0,0.0,0.0,0.0,0.0,0.0,0.0,0.0,0.0,0.0,0.0,0.0,0.0,0.0,0.0,0.0,0.0,0.0,0.0,0.0,0.0,-0.0,-0.0,-0.0,-0.0,-0.0,0.0,0.0,0.0,0.0,0.0,0.0,0.0,0.0,0.0,-0.0,-0.0,-0.0,-0.0,-0.0,-0.0,-0.0,-0.0,0.1857,0.5401,0.7787,0.555,0.0191,0.4211,0.8665,1.3125,1.3115,0.7994,0.0303,0.0,0.0,0.0,0.0,1.1968,1.3359,0.9179,0.4306,-0.0,-0.0,0.0,0.0,0.0,0.0,0.0,0.0,0.0,0.3935,0.4649,0.2428,-0.0,-0.0,-0.0,-0.0,-0.0,-0.0,-0.0353,-0.1618,-0.3755,-0.633,-0.9376,-0.775,0.0,0.0,0.0,-1.1886,-1.3798,-1.5135,-1.5939,-1.6112,-1.6112,-1.6112,-1.6112,-1.6231,-1.7491,-1.9865,-2.506,-3.0466,-3.6049,-4.0971,-4.4049,0.0,0.0,0.0,0.0,0.0,0.0,0.0,0.0,0.0,0.0,0.0,0.0,0.0,0.0,0.0,0.0,0.0,0.0,0.0,0.0,0.0,0.0,0.0,0.0,0.0,0.0,0.0,0.0,0.0,-0.0,-0.0,0.0,0.0,0.0,0.0,0.0,0.0,0.0,0.0,0.0,0.0,0.0,0.0,0.0,-0.0,-0.0,-0.0,-0.0,-0.0,0.1352,0.5055,1.0361,0.3223,0.0725,0.2182,1.0407,0.0,1.2244,1.1035,0.0,0.0,0.0,0.0,0.0,0.0,0.0,0.0,0.0,0.0,0.0,0.0,0.0,0.0,0.0,0.0,0.0,0.0,0.0,0.0,0.0,0.0,-0.0,-0.0,-0.0,-0.0,-0.0,-0.0643,-0.1733,-0.3849,-0.8206,-1.0625,0.0,0.0,0.0,0.0,0.0,0.0,-1.3361,-1.4833,-1.5625,-1.5625,-1.5625,-1.5625,-1.5625,-1.6254,-1.7757,-2.0634,-2.5454,-2.9838,-3.3664,-4.1083,0.0,0.0,0.0,0.0,0.0,0.0,0.0,0.0,0.0,0.0,0.0,0.0,0.0,0.0,0.0,0.0,0.0,0.0,0.0,0.0,0.0,0.0,0.0,0.0,0.0,0.0,0.0,0.0,0.0,0.0,0.0,0.0,0.0,0.0,0.0,0.0,0.0,0.0,0.0,0.0,0.0,0.0,0.0,0.0,0.0,0.0,0.0,0.0,0.0,0.0,0.8714,0.9052,0.2078,0.0619,0.4189,1.1512,1.3154,1.3252,1.176,0.4879,0.0,0.0,0.0,0.0,0.0,0.0,0.0,0.0,0.0,0.0,0.0,0.0,0.0,0.0,0.0,0.0,0.0,0.0,0.0,0.0,0.0,0.0,-0.0,-0.0,-0.0,-0.0,-0.0,0.0,0.0,0.0,0.0,0.0,0.0,0.0,0.0,0.0,0.0,0.0,-1.2658,-1.4451,-1.5625,-1.5625,-1.5625,-1.5625,-1.5625,-1.7584,-2.0814,-2.526,-2.79,-3.2247,0.0,0.0,0.0,0.0,0.0,0.0,0.0,0.0,0.0,0.0,0.0,0.0,0.0,0.0,0.0,0.0,0.0,0.0,0.0,0.0,0.0,0.0,0.0,0.0,0.0,0.0,0.0,0.0,0.0,0.0,0.0,0.0,0.0,0.0,0.0,0.0,0.0,0.0,0.0,0.0,0.0,0.0,0.0,0.0,0.0,0.0,0.0,0.0,0.0,0.0,0.0,0.0,0.0,0.0,0.0,0.0,0.0,0.0,1.3276,1.0241,0.0,0.0,0.0,0.0,0.0,0.0,0.0,0.0,0.0,0.0,0.0,0.0,0.0,0.0,0.0,0.0,0.0,0.0,0.0,0.0,0.0,0.0,0.0,0.0,0.0,0.0,0.0,0.0,0.0,0.0,0.0,0.0,0.0,0.0,0.0,0.0,0.0,0.0,0.0,0.0,-1.2223,-1.4148,-1.5453,-1.5611,-1.5625,-1.6011,-1.7539,-1.8676,-2.1309,-2.587,-2.8594,0.0,0.0,0.0,0.0,0.0,0.0,0.0,0.0,0.0,0.0,0.0,0.0,0.0,0.0,0.0,0.0,0.0,0.0,0.0,0.0,0.0,0.0,0.0,0.0,0.0,0.0,0.0,0.0,0.0,0.0,0.0,0.0,0.0,0.0,0.0,0.0,0.0,0.0,0.0,0.0,0.0,0.0,0.0,0.0,0.0,0.0,0.0,0.0,0.0,0.0,0.0,0.0,0.0,0.0,0.0,0.0,0.0,0.0,0.0,0.9659,0.557,0.0,0.0,0.0,0.0,0.0,0.0,0.0,0.0,0.0,0.0,0.0,0.0,0.0,0.0,0.0,0.0,0.0,0.0,0.0,0.0,0.0,0.0,0.0,0.0,0.0,0.0,0.0,0.0,0.0,0.0,0.0,0.0,0.0,0.0,0.0,0.0,0.0,0.0,0.0,0.0,-1.192,-1.3897,-1.5269,-1.5506,-1.5971,-1.7154,-1.9251,-2.0934,-2.3092,-2.6085,-2.9342,0.0,0.0,0.0,0.0,0.0,0.0,0.0,0.0,0.0,0.0,0.0,0.0,0.0,0.0,0.0,0.0,0.0,0.0,0.0,0.0,0.0,0.0,0.0,0.0,0.0,0.0,0.0,0.0,0.0,0.0,0.0,0.0,0.0,0.0,0.0,0.0,0.0,0.0,0.0,0.0,0.0,0.0,0.0,0.0,0.0,0.0,0.0,0.0,0.0,0.0,0.0,0.0,0.0,0.0,0.0,0.0,0.0,0.0,0.0,0.0,0.0,0.0,0.0,0.0,0.0,0.0,0.0,0.0,0.0,0.0,0.0,0.0,0.0,0.0,0.0,0.0,0.0,0.0,0.0,0.0,0.0,0.0,0.0,0.0,0.0,0.0,0.0,0.0,0.0,0.0,0.0,0.0,0.0,0.0,0.0,0.0,0.0,0.0,0.0,0.0,0.0,-1.1616,-1.3765,-1.5189,-1.5216,-1.7537,-1.9251,-1.9442,-2.557,-2.9294,-2.9027,0.0,0.0,0.0,0.0,0.0,0.0,0.0,0.0,0.0,0.0,0.0,0.0,0.0,0.0,0.0,0.0,0.0,0.0,0.0,0.0,0.0,0.0,0.0,0.0,0.0,0.0,0.0,0.0,0.0,0.0,0.0,0.0,0.0,0.0,0.0,0.0,0.0,0.0,0.0,0.0,0.0,0.0,0.0,0.0,0.0,0.0,0.0,0.0,0.0,0.0,0.0,0.0,0.0,0.0,0.0,0.0,0.0,0.0,0.0,0.0,0.0,0.0,0.0,0.0,0.0,0.0,0.0,0.0,0.0,0.0,0.0,0.0,0.0,0.0,0.0,0.0,0.0,0.0,0.0,0.0,0.0,0.0,0.0,0.0,0.0,0.0,0.0,0.0,0.0,0.0,0.0,0.0,0.0,0.0,0.0,0.0,0.0,0.0,0.0,0.0,0.0,0.0,-1.155,-1.3607,-1.5548,-1.7379,-1.8644,-2.0761,-2.3776,-2.7543,-2.9681,-2.9587,0.0,0.0,0.0,0.0,0.0,0.0,0.0,0.0,0.0,0.0,0.0,0.0,0.0,0.0,0.0,0.0,0.0,0.0,0.0,0.0,0.0,0.0,0.0,0.0,0.0,0.0,0.0,0.0,0.0,0.0,0.0,0.0,0.0,0.0,0.0,0.0,0.0,0.0,0.0,0.0,0.0,0.0,0.0,0.0,0.0,0.0,0.0,0.0,0.0,0.0,0.0,0.0,0.0,0.0,0.0,0.0,0.0,0.0,0.0,0.0,0.0,0.0,0.0,0.0,0.0,0.0,0.0,0.0,0.0,0.0,0.0,0.0,0.0,0.0,0.0,0.0,0.0,0.0,0.0,0.0,0.0,0.0,0.0,0.0,0.0,0.0,0.0,0.0,0.0,0.0,0.0,0.0,0.0,0.0,0.0,0.0,0.0,0.0,0.0,0.0,0.0,0.0,-1.1418,-1.3383,-1.5834,-1.8502,-1.9797,-2.2131,-2.6592,-2.9712,-3.1208,-3.0257,0.0,0.0,0.0,0.0,0.0,0.0,0.0,0.0,0.0,0.0,0.0,0.0,0.0,0.0,0.0,0.0,0.0,0.0,0.0,0.0,0.0,0.0,0.0,0.0,0.0,0.0,0.0,0.0,0.0,0.0,0.0,0.0,0.0,0.0,0.0,0.0,0.0,0.0,0.0,0.0,0.0,0.0,0.0,0.0,0.0,0.0,0.0,0.0,0.0,0.0,0.0,0.0,0.0,0.0,0.0,0.0,0.0,0.0,0.0,0.0,0.0,0.0,0.0,0.0,0.0,0.0,0.0,0.0,0.0,0.0,0.0,0.0,0.0,0.0,0.0,0.0,0.0,0.0,0.0,0.0,0.0,0.0,0.0,0.0,0.0,0.0,0.0,0.0,0.0,0.0,0.0,0.0,0.0,0.0,0.0,0.0,0.0,0.0,0.0,0.0,0.0,0.0,-1.1128,-1.3067,-1.5494,-1.8112,-2.1032,-2.3847,-2.6734,-3.2761,-3.5039,0.0,0.0,0.0,0.0,0.0,0.0,0.0,0.0,0.0,0.0,0.0,0.0,0.0,0.0,0.0,0.0,0.0,0.0,0.0,0.0,0.0,0.0,0.0,0.0,0.0,0.0,0.0,0.0,0.0,0.0,0.0,0.0,0.0,0.0,0.0,0.0,0.0,0.0,0.0,0.0,0.0,0.0,0.0,0.0,0.0,0.0,0.0,0.0,0.0,0.0,0.0,0.0,0.0,0.0,0.0,0.0,0.0,0.0,0.0,0.0,0.0,0.0,0.0,0.0,0.0,0.0,0.0,0.0,0.0,0.0,0.0,0.0,0.0,0.0,0.0,0.0,0.0,0.0,0.0,0.0,0.0,0.0,0.0,0.0,0.0,0.0,0.0,0.0,0.0,0.0,0.0,0.0,0.0,0.0,0.0,0.0,0.0,0.0,0.0,0.0,0.0,0.0,0.0,-1.0906,-1.2249,-1.511,-2.0105,-2.1517,-2.3989,-2.8132,-3.2599,-3.433,-3.2066,0.0,0.0,0.0,0.0,0.0,0.0,0.0,0.0,0.0,0.0,0.0,0.0,0.0,0.0,0.0,0.0,0.0,0.0,0.0,0.0,0.0,0.0,0.0,0.0,0.0,0.0,0.0,0.0,0.0,0.0,0.0,0.0,0.0,0.0,0.0,0.0,0.0,0.0,0.0,0.0,0.0,0.0,0.0,0.0,0.0,0.0,0.0,0.0,0.0,0.0,0.0,0.0,0.0,0.0,0.0,0.0,0.0,0.0,0.0,0.0,0.0,0.0,0.0,0.0,0.0,0.0,0.0,0.0,0.0,0.0,0.0,0.0,0.0,0.0,0.0,0.0,0.0,0.0,0.0,0.0,0.0,0.0,0.0,0.0,0.0,0.0,0.0,0.0,0.0,0.0,0.0,0.0,0.0,0.0,0.0,0.0,0.0,0.0,0.0,0.0,0.0,0.0,0.0,-1.2349,-1.5214,-2.0954,-2.1695,-2.3873,-2.8712,-3.2547,-3.3833,-3.2157,0.0,0.0,0.0,0.0,0.0,0.0,0.0,0.0,0.0,0.0,0.0,0.0,0.0,0.0,0.0,0.0,0.0,0.0,0.0,0.0,0.0,0.0,0.0,0.0,0.0,0.0,0.0,0.0,0.0,0.0,0.0,0.0,0.0,0.0,0.0,0.0,0.0,0.0,0.0,0.0,0.0,0.0,0.0,0.0,0.0,0.0,0.0,0.0,0.0,0.0,0.0,0.0,0.0,0.0,0.0,0.0,0.0,0.0,0.0,0.0,0.0,0.0,0.0,0.0,0.0,0.0,0.0,0.0,0.0,0.0,0.0,0.0,0.0,0.0,0.0,0.0,0.0,0.0,0.0,0.0,0.0,0.0,0.0,0.0,0.0,0.0,0.0,0.0,0.0,0.0,0.0,0.0,0.0,0.0,0.0,0.0,0.0,0.0,0.0,0.0,0.0,0.0,0.0,-1.3214,-1.5729,-2.0954,-2.157,-2.3658,-2.8558,-3.2428,-3.3767,-3.2084,-3.5275,0.0,0.0,0.0,0.0,0.0,0.0,0.0,0.0,0.0,0.0,0.0,0.0,0.0,0.0,0.0,0.0,0.0,0.0,0.0,0.0,0.0,0.0,0.0,0.0,0.0,0.0,0.0,0.0,0.0,0.0,0.0,0.0,0.0,0.0,0.0,0.0,0.0,0.0,0.0,0.0,0.0,0.0,0.0,0.0,0.0,0.0,0.0,0.0,0.0,0.0,0.0,0.0,0.0,0.0,0.0,0.0,0.0,0.0,0.0,0.0,0.0,0.0,0.0,0.0,0.0,0.0,0.0,0.0,0.0,0.0,0.0,0.0,0.0,0.0,0.0,0.0,0.0,0.0,0.0,0.0,0.0,0.0,0.0,0.0,0.0,0.0,0.0,0.0,0.0,0.0,0.0,0.0,0.0,0.0,0.0,0.0,0.0,0.0,0.0,0.0,0.0,0.0,-1.558,-1.7946,-2.0576,-2.2291,-2.4538,-2.7595,-3.1508,-3.274,-3.0318,-3.4191,0.0,0.0,0.0,0.0,0.0,0.0,0.0,0.0,0.0,0.0,0.0,0.0,0.0,0.0,0.0,0.0,0.0,0.0,0.0,0.0,0.0,0.0,0.0,0.0,0.0,0.0,0.0,0.0,0.0,0.0,0.0,0.0,0.0,0.0,0.0,0.0,0.0,0.0,0.0,0.0,0.0,0.0,0.0,0.0,0.0,0.0,0.0,0.0,0.0,0.0,0.0,0.0,0.0,0.0,0.0,0.0,0.0,0.0,0.0,0.0,0.0,0.0,0.0,0.0,0.0,0.0,0.0,0.0,0.0,0.0,0.0,0.0,0.0,0.0,0.0,0.0,0.0,0.0,0.0,0.0,0.0,0.0,0.0,0.0,0.0,0.0,0.0,0.0,0.0,0.0,0.0,0.0,0.0,0.0,0.0,0.0,0.0,0.0,0.0,0.0,0.0,0.0,-1.529,-1.8029,-2.1468,-2.2989,-2.4803,-2.7208,-3.1182,-3.251,-2.9802,-3.4535,0.0,0.0,0.0,0.0,0.0,0.0,0.0,0.0,0.0,0.0,0.0,0.0,0.0,0.0,0.0,0.0,0.0,0.0,0.0,0.0,0.0,0.0,0.0,0.0,0.0,0.0,0.0,0.0,0.0,0.0,0.0,0.0,0.0,0.0,0.0,0.0,0.0,0.0,0.0,0.0,0.0,0.0,0.0,0.0,0.0,0.0,0.0,0.0,0.0,0.0,0.0,0.0,0.0,0.0,0.0,0.0,0.0,0.0,0.0,0.0,0.0,0.0,0.0,0.0,0.0,0.0,0.0,0.0,0.0,0.0,0.0,0.0,0.0,0.0,0.0,0.0,0.0,0.0,0.0,0.0,0.0,0.0,0.0,0.0,0.0,0.0,0.0,0.0,0.0,0.0,0.0,0.0,0.0,0.0,0.0,0.0,0.0,0.0,0.0,0.0,0.0,0.0,0.0,-1.7528,-2.2639,-2.4121,-2.5792,-2.8164,-3.1981,-3.2986,-3.0372,0.0,0.0,0.0,0.0,0.0,0.0,0.0,0.0,0.0,0.0,0.0,0.0,0.0,0.0,0.0,0.0,0.0,0.0,0.0,0.0,0.0,0.0,0.0,0.0,0.0,0.0,0.0,0.0,0.0,0.0,0.0,0.0,0.0,0.0,0.0,0.0,0.0,0.0,0.0,0.0,0.0,0.0,0.0,0.0,0.0,0.0,0.0,0.0,0.0,0.0,0.0,0.0,0.0,0.0,0.0,0.0,0.0,0.0,0.0,0.0,0.0,0.0,0.0,0.0,0.0,0.0,0.0,0.0,0.0,0.0,0.0,0.0,0.0,0.0,0.0,0.0,0.0,0.0,0.0,0.0,0.0,0.0,0.0,0.0,0.0,0.0,0.0,0.0,0.0,0.0,0.0,0.0,0.0,0.0,0.0,0.0,0.0,0.0,0.0,0.0,0.0,0.0,0.0,0.0,-1.8389,-2.2646,-2.7021,-3.035,-3.2428,-3.495,-3.5182,-3.2431,0.0,0.0,0.0,0.0,0.0,0.0,0.0,0.0,0.0,0.0,0.0,0.0,0.0,0.0]}],[{"header":{"parameterUnit":"kt","parameterCategory":2,"dx":1,"dy":1,"la1":29.285339999999998,"la2":30.599998999999997,"lo1":-89.70041500000002,"lo2":-87.6738589999976,"nx":112,"ny":82,"refTime":"2022-10-29T12:00:00:Z","depth":0,"parameterNumber":2,"parameterNumberName":"V-component_of_WINDS"},"data":[-7.7203,-7.8345,-7.7916,-6.9497,-6.7428,-6.5073,-5.6225,-5.7082,-5.8744,-5.5436,-5.9403,-6.3277,-6.2844,-6.0728,-5.8683,-5.7586,-5.4306,-5.0864,0.0,-4.6165,-4.5951,-4.695,-5.1944,-5.5869,-5.7082,-5.9722,-6.5858,-7.6703,-7.5348,-7.8701,-8.9333,-9.1901,-9.4327,-9.6967,-9.9108,-10.1034,-10.2604,-10.3175,-10.346,-10.346,-10.4459,-10.5173,-10.5815,-10.7813,-10.9383,-11.0453,-11.1452,-11.2237,-11.2736,-11.2736,-11.2736,-11.2736,-11.2736,-11.2736,-11.2736,-11.2736,-11.2736,-11.2736,-11.2736,-11.2736,-11.2736,-11.2736,-11.2736,-11.2736,-11.2736,-11.2736,-11.2736,-11.2736,-11.2736,-11.312,-11.4958,-11.5443,-11.5902,-11.7791,-11.8149,-11.8149,-11.8149,-11.8149,-11.8149,-11.8149,-11.8149,-11.8149,-11.8149,-11.8149,-11.8149,-11.8149,-11.8373,-11.8753,-11.9077,-11.9364,-11.9439,-11.9212,-12.0846,-12.0182,-11.5733,-11.0639,-10.3002,-9.2231,-8.9224,-8.3439,-7.3824,-6.8329,-6.2549,-5.5615,-5.2722,-5.0123,-4.7889,-4.9031,-4.9603,-4.9629,-4.9196,-4.9083,-7.4206,-7.5562,-7.5134,-6.5073,-6.2932,-6.1006,-5.2158,-5.2943,-5.4584,-5.0874,-5.5784,-5.9679,-5.5999,-5.634,-5.6417,-5.4127,-5.3213,-5.1438,0.0,-4.6593,-4.7092,-4.9162,-5.6297,-6.1077,-6.122,-6.543,-7.1209,-7.8559,-7.813,-8.1841,-9.183,-9.3899,-9.6183,-9.9465,-10.0535,-10.1819,-10.3389,-10.346,-10.346,-10.346,-10.503,-10.6029,-10.66,-10.924,-11.0738,-11.1309,-11.2308,-11.2736,-11.2736,-11.2736,-11.2736,-11.2736,-11.2736,-11.2736,-11.2736,-11.2736,-11.2736,-11.2736,-11.2736,-11.2736,-11.2736,-11.2736,-11.2736,-11.2736,-11.2736,-11.2736,-11.2736,-11.2736,-11.2736,-11.312,-11.4958,-11.5443,-11.5902,-11.7791,-11.8149,-11.8149,-11.8149,-11.8149,-11.8149,-11.8149,-11.8149,-11.8149,-11.8149,-11.8149,-11.8149,-11.8149,-11.8373,-11.8725,-11.9117,-11.9358,-11.946,-11.9334,-12.1174,-12.1239,-11.8178,-11.3649,-10.5974,-9.4733,-9.1487,-8.6081,-7.7391,-7.2294,-6.6115,-5.789,-5.5039,-5.1517,-4.7889,-4.885,-4.9395,-4.9603,-5.0564,-5.1109,-7.178,-7.1281,-6.9925,-5.9079,-5.7581,-5.6654,-4.8947,-5.0589,-5.3371,-5.1944,-5.5226,-5.7867,-5.6395,-5.6526,-5.5684,-5.2241,-5.3468,0.0,0.0,-4.8805,-5.1057,-5.4242,-6.1269,-6.7195,-7.0552,-6.6696,-6.9195,0.0,-7.6907,-7.9415,-9.3328,-9.5612,-9.7972,-10.1043,-10.1186,-10.1971,-10.3389,-10.3389,-10.346,-10.3532,-10.5102,-10.66,-10.817,-10.9739,-11.1309,-11.2736,-11.2736,-11.2736,-11.2736,-11.2736,-11.2736,-11.2736,-11.2736,-11.2736,-11.2736,-11.2736,-11.2736,-11.2736,-11.2736,-11.2736,-11.2736,-11.2736,-11.2736,-11.2736,-11.2736,-11.2736,-11.2736,-11.2736,-11.2736,-11.3206,-11.4958,-11.5443,-11.5976,-11.7791,-11.8149,-11.8149,-11.8149,-11.8149,-11.8149,-11.8149,-11.8149,-11.8149,-11.8149,-11.8149,-11.8149,-11.8149,-11.8373,-11.8725,-11.9091,-11.9366,-11.9559,-11.9481,-12.1279,-12.1236,-11.8509,-11.6655,-11.1039,-9.9903,-9.5572,-8.906,-7.9829,-7.5312,-6.8368,-5.7922,-5.5069,-5.18,-4.7889,-4.846,-4.9031,-4.9603,-5.0174,-5.0745,-6.2005,-6.3075,-6.4431,-5.7963,-5.7581,-5.7224,-5.1659,-4.9661,-4.9162,-4.9875,-5.0089,0.0,0.0,0.0,-5.0252,-5.1486,0.0,-5.5084,-5.2485,-5.7367,-6.2816,-6.7104,-6.8946,-7.2077,-7.7668,-7.803,-8.1733,-9.0854,-8.6238,-8.7264,-9.6896,-9.8965,-10.0498,-10.1895,-10.305,-10.3769,-10.4202,-10.4274,-10.4539,-10.5102,-10.6671,-10.8241,-10.9811,-11.1381,-11.2308,-11.2736,-11.2736,-11.2736,-11.2736,-11.2736,-11.2736,-11.2736,-11.2736,-11.2736,-11.2736,-11.2736,-11.2736,-11.2736,-11.2736,-11.2736,-11.2736,-11.2736,-11.2736,-11.2736,-11.2736,-11.2736,-11.2736,-11.2736,-11.3206,-11.405,-11.5169,-11.5902,-11.6774,-11.7888,-11.8149,-11.8149,-11.8149,-11.8149,-11.8149,-11.8149,-11.8149,-11.8149,-11.8149,-11.8149,-11.8149,-11.8149,-11.8373,-11.8582,-11.8725,-11.9088,-11.9225,-11.9282,-12.0624,-12.0861,-11.9322,-11.7654,-11.4468,-10.9445,-10.12,-9.1731,-8.0892,-7.9037,-7.1989,-5.8902,-5.7718,-5.4251,-4.7889,-4.846,-4.9031,-4.9603,-4.9759,-5.0356,-5.9316,-6.0292,-6.2076,-5.6725,-5.8081,-5.8723,-5.1445,-4.9376,-4.8876,-4.8448,0.0,0.0,0.0,0.0,0.0,0.0,-5.6011,-5.8861,-5.7606,-6.3629,-7.005,-7.5002,-7.823,-8.1119,-8.4157,-8.5305,-8.866,-9.5518,-9.1366,-9.1756,-9.9322,-10.0934,-10.2034,-10.3194,-10.4136,-10.457,-10.457,-10.4923,-10.5243,-10.5744,-10.8027,-10.9525,-11.0453,-11.2023,-11.2736,-11.2736,-11.312,-11.3034,-11.2825,-11.312,-11.3105,-11.2736,-11.2736,-11.2736,-11.2736,-11.2736,-11.2736,-11.2736,-11.2736,-11.2736,-11.2736,-11.2736,-11.2736,-11.2736,-11.2736,-11.2736,-11.2736,-11.2736,-11.3461,-11.429,-11.5238,-11.6164,-11.7053,-11.7935,-11.8149,-11.8149,-11.8149,-11.8149,-11.8149,-11.8149,-11.8149,-11.8149,-11.8149,-11.8149,-11.8149,-11.8149,-11.8298,-11.8448,-11.8523,-11.8805,-11.9003,-11.9168,-12.0386,-12.0779,-11.9626,-11.838,-11.6357,-11.3295,-10.5722,-9.7719,-8.9477,-8.4004,-7.5436,-6.3658,-6.05,-5.5899,-5.0123,-4.9066,-4.8798,-4.9603,-4.9603,-5.02,-5.9714,-5.9555,-6.0507,-5.5171,-5.7698,-5.9294,-5.0589,0.0,-5.1516,-4.9804,0.0,-4.9745,-5.132,0.0,0.0,-5.402,-6.0267,-6.4807,-6.4077,-6.9851,-7.6069,-8.1248,-8.7994,-9.1722,-9.04,-9.04,-9.256,-9.7803,-9.4388,-9.4873,-10.1364,-10.2256,-10.3332,-10.4781,-10.4854,-10.4854,-10.4854,-10.5629,-10.6076,-10.6125,-10.9112,-11.0524,-11.0738,-11.2271,-11.2843,-11.2931,-11.3891,-11.3811,-11.3105,-11.3811,-11.3638,-11.2843,-11.2843,-11.2825,-11.2736,-11.2736,-11.2736,-11.2736,-11.2736,-11.2736,-11.2736,-11.2736,-11.2736,-11.2736,-11.2736,-11.2736,-11.2736,-11.2736,-11.3473,-11.4442,-11.5238,-11.6226,-11.7181,-11.801,-11.8149,-11.8149,-11.8149,-11.8149,-11.8149,-11.8149,-11.8149,-11.8149,-11.8149,-11.8149,-11.8149,-11.8149,-11.8149,-11.8224,-11.8448,-11.8523,-11.8718,-11.9166,-12.0396,-12.0789,-11.9605,-11.8955,-11.7063,-11.3595,-10.9041,-10.4784,-10.1062,-8.9537,-7.8993,-6.9663,-6.2882,-5.7567,-5.3466,-5.0123,-4.9041,-5.0171,-4.9952,-5.0278,-5.1451,-5.0902,-5.2138,-5.2565,-5.1366,-5.1588,0.0,0.0,0.0,-6.2576,-6.3464,-6.3524,-6.5075,-6.5001,-6.5536,-6.8103,-7.2466,-7.5373,-7.453,-8.3727,-9.1596,-9.4591,-9.5737,-9.6417,-9.6714,-9.7296,-9.9214,-10.2924,-10.1831,-10.2145,-10.4879,-10.5154,-10.5603,-10.6615,-10.6615,-10.6615,-10.6615,-10.7459,-10.8046,-10.8606,-10.9882,-11.1095,-11.2308,-11.3329,-11.3811,-11.3891,-11.4741,-11.5099,-11.4886,-11.429,-11.405,-11.3811,-11.3811,-11.3389,-11.2736,-11.2736,-11.2736,-11.2736,-11.2736,-11.2736,-11.2736,-11.2736,-11.2736,-11.2736,-11.2736,-11.2736,-11.2736,-11.2736,-11.3971,-11.5238,-11.5376,-11.6643,-11.801,-11.8149,-11.8149,-11.8149,-11.8149,-11.8149,-11.8149,-11.8149,-11.8149,-11.8149,-11.8149,-11.8149,-11.8149,-11.8149,-11.8149,-11.8224,-11.8224,-11.8448,-11.8718,-11.9166,-11.9452,-11.9618,-11.9551,-11.9383,-11.8193,-11.5452,-11.1361,-10.7313,-10.3155,-9.3692,-8.242,-6.9663,-6.5413,-6.005,-5.3466,-5.262,-5.2992,-5.3922,-5.1541,-5.0642,-4.9361,-4.8703,-4.9721,-4.9898,-5.0259,0.0,0.0,-5.2872,-5.4713,-6.135,-6.2394,-6.3931,-6.9846,-7.12,-7.2206,-7.4527,-7.9285,-8.3661,-8.6297,-9.2203,-9.6791,-9.8369,-9.8918,-9.9324,-9.964,-10.0857,-10.2548,-10.508,-10.5238,-10.5446,-10.5909,-10.6271,-10.6671,-10.712,-10.712,-10.7491,-10.838,-10.9068,-10.9845,-11.0504,-11.1693,-11.267,-11.3389,-11.3891,-11.4366,-11.4887,-11.5709,-11.5838,-11.5443,-11.5443,-11.5169,-11.4741,-11.429,-11.3556,-11.2736,-11.2736,-11.2736,-11.2736,-11.2736,-11.2736,-11.2736,-11.2736,-11.2736,-11.2736,-11.2736,-11.2736,-11.2736,-11.2736,-11.405,-11.5443,-11.5443,-11.6831,-11.8149,-11.8149,-11.8149,-11.8149,-11.8149,-11.8149,-11.8149,-11.8149,-11.8149,-11.8149,-11.8149,-11.8149,-11.8149,-11.8149,-11.8149,-11.8149,-11.8149,-11.8373,-11.8626,-11.8842,-11.9157,-11.9367,-11.9379,-11.8925,-11.7798,-11.5956,-11.1345,-10.7812,-10.5982,-9.7213,-8.8544,-8.0773,-7.1652,-6.4302,-5.8981,-5.7384,-5.611,-5.5092,-5.1947,-5.0745,-4.7848,-4.7851,-4.9054,-4.8852,-5.0369,0.0,-5.08,-5.2488,-5.5959,-6.189,-6.3438,-6.6233,-7.4532,-7.7497,-7.9056,-8.0314,-8.4982,-9.0336,-9.5752,-9.7154,-9.7994,-9.8893,-10.0127,-10.1025,-10.1399,-10.2894,-10.4464,-10.581,-10.6793,-10.7068,-10.6388,-10.7015,-10.7323,-10.7323,-10.7323,-10.814,-10.9899,-11.0485,-11.1351,-11.2264,-11.3643,-11.4366,-11.4366,-11.4593,-11.5029,-11.5774,-11.6643,-11.6643,-11.6102,-11.6585,-11.6408,-11.5643,-11.4741,-11.3811,-11.3018,-11.2825,-11.2736,-11.2736,-11.2736,-11.2736,-11.2736,-11.2736,-11.2736,-11.2825,-11.2931,-11.3018,-11.3018,-11.3018,-11.4207,-11.5443,-11.5443,-11.6831,-11.8149,-11.8149,-11.8149,-11.8149,-11.8149,-11.8149,-11.8149,-11.8149,-11.8149,-11.8149,-11.8149,-11.8149,-11.8149,-11.8149,-11.8149,-11.8149,-11.8149,-11.8448,-11.8719,-11.8718,-11.925,-11.9569,-11.9318,-11.8518,-11.7429,-11.5994,-11.0862,-10.7844,-10.808,-9.9556,-9.3783,-9.1708,-7.8295,-6.929,-6.4477,-6.3363,-6.045,-5.6228,-5.2219,-5.0745,-4.2409,-4.4034,-4.7234,-5.1811,-4.8747,0.0,-6.7217,-6.7217,-6.725,-8.0631,-8.504,-8.6766,-8.7846,-8.9923,-9.1495,-9.1644,-9.3,-9.495,-9.7882,-9.8369,-9.8967,-10.0501,-10.08,-10.1473,-10.2969,-10.4689,-10.5736,-10.5885,-10.7339,-10.8076,-10.8033,-10.8076,-10.8119,-10.8119,-10.8119,-10.8941,-11.0659,-11.1408,-11.2531,-11.4027,-11.4909,-11.5307,-11.5307,-11.6091,-11.6585,-11.6774,-11.7618,-11.7935,-11.784,-11.7127,-11.6774,-11.6585,-11.5643,-11.4814,-11.3811,-11.3018,-11.2736,-11.2736,-11.2736,-11.2736,-11.2736,-11.2736,-11.2736,-11.2843,-11.372,-11.3971,-11.3971,-11.3971,-11.4741,-11.5443,-11.5443,-11.6831,-11.8149,-11.8149,-11.8149,-11.8149,-11.8149,-11.8149,-11.8149,-11.8149,-11.8149,-11.8149,-11.8149,-11.8149,-11.8149,-11.8149,-11.8149,-11.8149,-11.8149,-11.8672,-11.91,-11.9117,-11.9585,-11.9895,-11.9891,-11.9352,-11.8224,-11.6375,-11.1511,-10.8577,-10.8018,-9.9556,-9.3783,-9.1708,-8.3271,-7.4053,-6.4477,-7.0346,-6.8703,-5.9891,-5.3384,-5.0745,-4.0292,-4.2403,-4.5233,-4.7444,0.0,0.0,-6.1525,-6.5167,-6.944,-7.9642,-8.325,-8.6086,-9.1119,-9.3623,-9.5267,-9.6239,-9.672,-9.7351,-9.8407,-9.9305,-10.0127,-10.08,-10.267,-10.4091,-10.4838,-10.6334,-10.7306,-10.7306,-10.7904,-10.8278,-10.8278,-10.8278,-10.8278,-10.8278,-10.925,-11.0521,-11.2241,-11.3465,-11.461,-11.5793,-11.6112,-11.6287,-11.6287,-11.6643,-11.7127,-11.7618,-11.8057,-11.8149,-11.8149,-11.7791,-11.7287,-11.6831,-11.6408,-11.5709,-11.4814,-11.4442,-11.429,-11.429,-11.429,-11.429,-11.429,-11.429,-11.429,-11.4366,-11.4814,-11.4886,-11.4814,-11.4212,-11.4366,-11.4814,-11.5307,-11.6831,-11.8149,-11.8149,-11.8149,-11.8149,-11.8149,-11.8149,-11.8149,-11.8149,-11.8149,-11.8149,-11.8149,-11.8149,-11.8149,-11.8149,-11.8149,-11.8149,-11.8149,-11.8792,-11.914,-11.9141,-11.9595,-12.0351,-12.1338,-12.002,-11.87,-11.7742,-11.211,-10.8844,-10.9139,-9.9953,-9.5053,-9.5787,-8.7303,-7.9919,-7.3538,-7.4472,-7.1108,-6.3271,-5.6671,-5.2814,-3.8689,0.0,0.0,0.0,0.0,0.0,-6.2938,-6.7534,-7.2827,-7.9611,-8.27,-8.6126,-9.2389,-9.5267,-9.7136,-9.8333,-9.8557,-9.8557,-9.8557,-9.9903,-10.1099,-10.1548,-10.4165,-10.611,-10.6558,-10.7605,-10.8278,-10.8278,-10.8278,-10.8278,-10.8278,-10.8278,-10.8278,-10.8278,-10.9923,-11.1643,-11.3288,-11.4859,-11.6198,-11.7234,-11.7234,-11.7234,-11.7234,-11.7234,-11.7568,-11.8149,-11.8149,-11.8149,-11.8149,-11.8149,-11.7791,-11.7181,-11.6943,-11.6408,-11.5774,-11.5577,-11.5443,-11.5443,-11.5443,-11.5443,-11.5443,-11.5443,-11.5443,-11.5511,-11.5774,-11.5838,-11.5643,-11.4741,-11.4667,-11.4958,-11.5376,-11.6831,-11.8149,-11.8149,-11.8149,-11.8149,-11.8149,-11.8149,-11.8149,-11.8149,-11.8149,-11.8149,-11.8149,-11.8149,-11.8149,-11.8149,-11.8149,-11.8149,-11.8149,-11.8792,-11.914,-11.9141,-11.9595,-12.0579,-12.2325,-12.04,-11.9,-11.8783,-11.2458,-10.9236,-10.9924,-10.0147,-9.6005,-9.8524,-8.9513,-8.3259,-8.0049,-7.7789,-7.2611,-6.5045,-6.0877,-5.6669,0.0,0.0,0.0,-6.057,-6.1144,-6.3611,-8.1177,-8.1657,-8.0311,-8.6966,-9.093,-9.3248,-9.3472,-9.6239,-9.8482,-9.8557,-9.8557,-9.8557,-9.8557,-9.9903,-10.1473,-10.3118,-10.4838,-10.6558,-10.8054,-10.8278,-10.8278,-10.8278,-10.8278,-10.8278,-10.8278,-10.8278,-10.8278,-10.8278,-10.9923,-11.1643,-11.3288,-11.4859,-11.6504,-11.8149,-11.8149,-11.8149,-11.8149,-11.8149,-11.8149,-11.8149,-11.8149,-11.8149,-11.8149,-11.8149,-11.8149,-11.8057,-11.7181,-11.6831,-11.6643,-11.5774,-11.5443,-11.5443,-11.5443,-11.5443,-11.5443,-11.5443,-11.5443,-11.5643,-11.6527,-11.6831,-11.6585,-11.5643,-11.6102,-11.6527,-11.5643,-11.6831,-11.8149,-11.8149,-11.8149,-11.8149,-11.8149,-11.8149,-11.8149,-11.8149,-11.8149,-11.8149,-11.8149,-11.8149,-11.8149,-11.8149,-11.8149,-11.8149,-11.8149,-11.8792,-11.914,-11.9141,-11.9595,-12.0579,-12.2325,-12.04,-11.9,-11.8783,-11.2458,-10.9214,-11.0006,-10.0171,-9.6005,-9.8524,-8.9513,-8.3259,-8.0049,-8.0711,-7.5461,-6.4548,-6.5778,-6.26,-4.0903,-4.6679,-5.369,-6.1916,-6.73,-7.246,-7.9563,-8.3302,-8.592,-8.8163,-9.1229,-9.3472,-9.3472,-9.6239,-9.8557,-9.8557,-9.8557,-9.8931,-9.9978,-10.1548,-10.3193,-10.4913,-10.6483,-10.768,-10.8203,-10.8278,-10.8278,-10.8278,-10.8278,-10.8278,-10.8278,-10.8278,-10.8278,-10.8278,-10.9923,-11.2092,-11.4859,-11.6504,-11.7625,-11.8149,-11.8149,-11.8149,-11.8149,-11.8149,-11.8149,-11.8149,-11.8149,-11.8149,-11.8149,-11.8149,-11.8149,-11.8149,-11.784,-11.7742,-11.7668,-11.734,-11.7287,-11.7287,-11.7287,-11.7287,-11.7287,-11.7287,-11.7287,-11.734,-11.7618,-11.7742,-11.7568,-11.6585,-11.6585,-11.6774,-11.6468,-11.6831,-11.7392,-11.8057,-11.8149,-11.8149,-11.8149,-11.8149,-11.8149,-11.8149,-11.8149,-11.8149,-11.8149,-11.8149,-11.8149,-11.8149,-11.8149,-11.8149,-11.8149,-11.8792,-11.914,-11.9141,-11.9595,-12.0579,-12.2325,-12.1633,-12.0688,-11.9787,-11.5482,-11.2013,-10.969,-10.1485,-9.6965,-9.7343,-9.1391,-8.5535,-8.0049,-8.0964,-7.7169,-6.8925,-6.741,-6.4279,-4.4268,-5.0475,-5.7205,-6.6178,-7.3282,-7.889,-8.1657,-8.5546,-8.8836,-8.9434,-9.1677,-9.3696,-9.4295,-9.6688,-9.8557,-9.8557,-9.8557,-9.908,-10.0651,-10.2371,-10.4016,-10.5736,-10.7306,-10.8278,-10.8278,-10.8278,-10.8278,-10.8278,-10.8278,-10.8278,-10.8278,-10.8278,-10.8278,-10.8278,-10.9923,-11.2092,-11.4784,-11.7027,-11.8149,-11.8149,-11.8149,-11.8149,-11.8149,-11.8149,-11.8149,-11.8149,-11.8149,-11.8149,-11.8149,-11.8149,-11.8149,-11.8149,-11.8149,-11.8149,-11.8149,-11.8149,-11.8149,-11.8149,-11.8149,-11.8149,-11.8149,-11.8149,-11.8149,-11.8149,-11.8149,-11.8149,-11.801,-11.7053,-11.7053,-11.7234,-11.6887,-11.7053,-11.7466,-11.8057,-11.8149,-11.8149,-11.8149,-11.8149,-11.8149,-11.8149,-11.8149,-11.8149,-11.8149,-11.8149,-11.8149,-11.8149,-11.8149,-11.8149,-11.8149,-11.8792,-11.914,-11.9141,-11.9595,-12.0579,-12.2325,-12.2259,-12.1798,-12.1208,-11.7882,-11.4329,-11.0696,-10.3041,-9.8126,-9.6541,-9.225,-8.6782,-8.0049,-8.0964,-7.7895,-7.1299,-6.9264,-6.6054,-4.6867,-5.3466,-6.057,-7.3506,-7.919,-8.2779,-8.7565,-8.8612,-8.9135,-9.0855,-9.2425,-9.407,-9.5865,-9.7435,-9.8557,-9.8557,-9.8557,-9.9155,-10.08,-10.2445,-10.4091,-10.581,-10.7381,-10.8278,-10.8278,-10.8278,-10.8278,-10.8278,-10.8278,-10.8278,-10.8278,-10.8278,-10.8278,-10.8278,-10.9998,-11.1718,-11.3288,-11.6578,-11.8149,-11.8149,-11.8149,-11.8149,-11.8149,-11.8149,-11.8149,-11.8149,-11.8149,-11.8149,-11.8149,-11.8149,-11.8149,-11.8149,-11.8149,-11.8149,-11.8149,-11.8149,-11.8149,-11.8149,-11.8149,-11.8149,-11.8149,-11.8149,-11.8149,-11.8149,-11.8149,-11.8149,-11.8057,-11.7181,-11.7517,-11.801,-11.7127,-11.7568,-11.8149,-11.8149,-11.8149,-11.8149,-11.8149,-11.8149,-11.8149,-11.8149,-11.8149,-11.8149,-11.8149,-11.8149,-11.8149,-11.8149,-11.8149,-11.8149,-11.8149,-11.8792,-11.914,-11.9141,-11.9595,-12.0579,-12.2173,-12.219,-12.2438,-12.3169,-11.9645,-11.596,-11.256,-10.4698,-9.9282,-9.6645,-9.22,-8.6782,-8.0298,-8.1007,-7.7895,-7.1531,-7.1607,-6.7901,-5.2569,-6.2888,-7.1487,-7.9788,-8.3377,-8.5546,-8.8013,-8.8612,-8.9135,-9.0855,-9.2425,-9.4369,-9.7361,-9.8258,-9.8557,-9.8557,-9.8557,-9.9529,-10.2371,-10.3118,-10.4464,-10.7306,-10.8054,-10.8278,-10.8278,-10.8278,-10.8278,-10.8278,-10.8278,-10.8278,-10.8278,-10.8278,-10.8278,-10.8278,-11.112,-11.2914,-11.3363,-11.6578,-11.8149,-11.8149,-11.8149,-11.8149,-11.8149,-11.8149,-11.8149,-11.8149,-11.8149,-11.8149,-11.8149,-11.8149,-11.8149,-11.8149,-11.8149,-11.8149,-11.8149,-11.8149,-11.8149,-11.8149,-11.8149,-11.8149,-11.8149,-11.8149,-11.8149,-11.8149,-11.8149,-11.8149,-11.8103,-11.7888,-11.8057,-11.8103,-11.7888,-11.8057,-11.8149,-11.8149,-11.8149,-11.8149,-11.8149,-11.8149,-11.8149,-11.8149,-11.8149,-11.8149,-11.8149,-11.8149,-11.8149,-11.8149,-11.8149,-11.8149,-11.8149,-11.8792,-11.914,-11.9141,-11.9595,-12.0123,-12.0503,-12.1676,-12.2341,-12.2345,-11.9923,-11.6485,-11.2136,-10.4945,-9.9327,-9.5309,-9.1847,-8.802,-8.3747,-8.197,-7.9144,-7.4838,-7.3184,-6.9814,-5.0754,-6.3561,-7.5451,-8.2106,-8.5471,-8.749,-8.8387,-8.8612,-8.9285,-9.1752,-9.2874,-9.4519,-9.7884,-9.8557,-9.8557,-9.8557,-9.8557,-9.9454,-10.1997,-10.2969,-10.439,-10.6932,-10.7829,-10.8278,-10.8278,-10.8278,-10.8278,-10.8278,-10.8278,-10.8278,-10.8278,-10.8278,-10.8278,-10.8278,-11.1568,-11.3363,-11.3363,-11.6578,-11.8149,-11.8149,-11.8149,-11.8149,-11.8149,-11.8149,-11.8149,-11.8149,-11.8149,-11.8149,-11.8149,-11.8149,-11.8149,-11.8149,-11.8149,-11.8149,-11.8149,-11.8149,-11.8149,-11.8149,-11.8149,-11.8149,-11.8149,-11.8149,-11.8149,-11.8149,-11.8149,-11.8149,-11.8149,-11.8149,-11.8149,-11.8149,-11.8149,-11.8149,-11.8149,-11.8149,-11.8149,-11.8149,-11.8149,-11.8149,-11.8149,-11.8149,-11.8149,-11.8149,-11.8149,-11.8149,-11.8149,-11.8149,-11.8149,-11.8149,-11.8149,-11.8792,-11.914,-11.9141,-11.9595,-11.9971,-11.9971,-12.149,-12.2739,-12.3349,-12.112,-11.7855,-11.3307,-10.6259,-9.9938,-9.488,-9.1695,-8.7545,-8.2769,-8.1323,-7.9274,-7.6112,-7.3298,-7.0144,-4.8138,-6.1093,-7.4927,-8.2031,-8.6219,-8.8612,-8.8612,-8.8612,-8.9584,-9.2799,-9.3472,-9.4444,-9.766,-9.8407,-9.8557,-9.8557,-9.8557,-9.908,-10.0651,-10.2371,-10.4016,-10.5736,-10.7306,-10.8278,-10.8278,-10.8278,-10.8278,-10.8278,-10.8278,-10.8278,-10.8278,-10.8278,-10.8278,-10.8278,-11.1568,-11.3363,-11.3363,-11.6578,-11.8149,-11.8149,-11.8149,-11.8149,-11.8149,-11.8149,-11.8149,-11.8149,-11.8149,-11.8149,-11.8149,-11.8149,-11.8149,-11.8149,-11.8149,-11.8149,-11.8149,-11.8149,-11.8149,-11.8149,-11.8149,-11.8149,-11.8149,-11.8149,-11.8149,-11.8149,-11.8149,-11.8149,-11.8149,-11.8149,-11.8149,-11.8149,-11.8149,-11.8149,-11.8149,-11.8149,-11.8149,-11.8149,-11.8149,-11.8149,-11.8149,-11.8149,-11.8149,-11.8149,-11.8149,-11.8149,-11.8149,-11.8149,-11.8149,-11.8224,-11.8224,-11.8792,-11.9179,-11.9181,-11.9612,-11.9971,-11.9971,-12.1262,-12.2933,-12.4907,-12.2218,-11.89,-11.5046,-10.7506,-10.0848,-9.5394,-9.2094,-8.745,-8.1292,-8.0547,-7.8973,-7.6691,-7.3021,-6.9899,-5.9972,-6.6403,-7.2086,-8.1433,-8.6219,-8.8612,-8.8612,-8.8612,-8.9584,-9.2799,-9.3472,-9.407,-9.6089,-9.7585,-9.8557,-9.8557,-9.8557,-9.908,-10.0651,-10.2371,-10.4016,-10.5736,-10.7306,-10.8278,-10.8278,-10.8278,-10.8278,-10.8278,-10.8278,-10.8278,-10.8278,-10.8278,-10.8278,-10.8278,-11.1568,-11.3363,-11.3363,-11.6578,-11.8149,-11.8149,-11.8149,-11.8149,-11.8149,-11.8149,-11.8149,-11.8149,-11.8149,-11.8149,-11.8149,-11.8149,-11.8149,-11.8149,-11.8149,-11.8149,-11.8149,-11.8149,-11.8149,-11.8149,-11.8149,-11.8149,-11.8149,-11.8149,-11.8149,-11.8149,-11.8149,-11.8149,-11.8149,-11.8149,-11.8149,-11.8149,-11.8149,-11.8149,-11.8149,-11.8149,-11.8149,-11.8149,-11.8149,-11.8149,-11.8149,-11.8149,-11.8149,-11.8149,-11.8149,-11.8149,-11.8149,-11.8149,-11.8149,-11.8224,-11.8448,-11.8867,-11.9212,-11.9475,-11.9741,-11.9971,-11.9971,-12.0199,-12.1718,-12.4831,-12.0164,-11.6565,-11.4979,-10.6464,-10.0542,-9.7538,-9.4874,-9.189,-8.8257,-8.2769,-7.9886,-7.9307,-7.3768,-7.0689,-5.7055,-6.3785,-7.074,-7.8068,-8.4349,-8.8612,-8.8612,-8.8612,-8.9584,-9.2799,-9.3472,-9.3996,-9.5715,-9.7361,-9.8557,-9.8557,-9.8557,-9.8781,-9.9529,-10.1847,-10.3717,-10.4539,-10.6783,-10.8278,-10.8278,-10.8278,-10.8278,-10.8278,-10.8278,-10.8278,-10.8278,-10.8278,-10.8278,-10.8278,-11.0671,-11.2466,-11.3363,-11.5681,-11.7326,-11.8149,-11.8149,-11.8149,-11.8149,-11.8149,-11.8149,-11.8149,-11.8149,-11.8149,-11.8149,-11.8149,-11.8149,-11.8149,-11.8149,-11.8149,-11.8149,-11.8149,-11.8149,-11.8149,-11.8149,-11.8149,-11.8149,-11.8149,-11.8149,-11.8149,-11.8149,-11.8149,-11.8149,-11.8149,-11.8149,-11.8149,-11.8149,-11.8149,-11.8149,-11.8149,-11.8149,-11.8149,-11.8149,-11.8149,-11.8149,-11.8149,-11.8149,-11.8149,-11.8149,-11.8149,-11.8149,-11.8149,-11.8149,-11.8298,-11.8523,-11.8879,-11.9268,-11.9511,-11.9744,-11.9971,-11.9971,-11.9971,-12.1338,-12.4755,-11.9589,-11.6491,-11.6455,-10.8912,-10.1377,-9.4457,-9.3611,-9.0505,-8.4764,-8.1539,-7.9299,-7.7325,-7.32,-7.1072,-5.4064,-6.1243,-6.9842,-7.5451,-8.1508,-8.6518,-8.8686,-8.8911,-8.9359,-9.1902,-9.3023,-9.3921,-9.5192,-9.7136,-9.8557,-9.8557,-9.8557,-9.8557,-9.8557,-10.1025,-10.3044,-10.3343,-10.596,-10.7904,-10.8203,-10.8278,-10.8278,-10.8278,-10.8278,-10.8278,-10.8278,-10.8278,-10.8278,-10.8278,-10.9923,-11.1643,-11.3288,-11.4859,-11.6504,-11.8149,-11.8149,-11.8149,-11.8149,-11.8149,-11.8149,-11.8149,-11.8149,-11.8149,-11.8149,-11.8149,-11.8149,-11.8149,-11.8149,-11.8149,-11.8149,-11.8149,-11.8149,-11.8149,-11.8149,-11.8149,-11.8149,-11.8149,-11.8149,-11.8149,-11.8149,-11.8149,-11.8149,-11.8149,-11.8149,-11.8149,-11.8149,-11.8149,-11.8149,-11.8149,-11.8149,-11.8149,-11.8149,-11.8149,-11.8149,-11.8149,-11.8149,-11.8149,-11.8149,-11.8149,-11.8149,-11.8149,-11.8224,-11.8373,-11.8718,-11.9049,-11.9365,-11.9591,-11.982,-11.9971,-11.9971,-12.0275,-12.1794,-12.4831,-12.0419,-11.7659,-11.7529,-11.1763,-10.3753,-9.3182,-9.2461,-8.862,-8.1044,-7.98,-7.7536,-7.5068,-7.2211,-7.111,-6.1617,-6.4757,-6.8571,-7.6498,-7.7993,-7.9863,-8.8911,-8.9733,-8.8686,-8.8985,-9.1453,-9.3547,-9.3696,-9.6388,-9.8557,-9.8557,-9.8557,-9.8557,-9.8557,-10.0053,-10.1698,-10.3268,-10.5063,-10.6708,-10.8129,-10.8278,-10.8278,-10.8278,-10.8278,-10.8278,-10.8278,-10.8278,-10.8278,-10.8278,-10.9923,-11.1643,-11.3288,-11.4859,-11.6504,-11.8149,-11.8149,-11.8149,-11.8149,-11.8149,-11.8149,-11.8149,-11.8149,-11.8149,-11.8149,-11.8149,-11.8149,-11.8149,-11.8149,-11.8149,-11.8149,-11.8149,-11.8149,-11.8149,-11.8149,-11.8149,-11.8149,-11.8149,-11.8149,-11.8149,-11.8149,-11.8149,-11.8149,-11.8149,-11.8149,-11.8149,-11.8149,-11.8149,-11.8149,-11.8149,-11.8149,-11.8149,-11.8149,-11.8149,-11.8149,-11.8149,-11.8149,-11.8149,-11.8149,-11.8149,-11.8149,-11.8149,-11.8373,-11.8792,-11.9391,-11.947,-11.9589,-11.9895,-11.9895,-11.9971,-11.9971,-12.1338,-12.3009,-12.4907,-12.3165,-12.029,-11.6253,-11.3238,-10.7974,-10.0434,-9.4747,-8.9337,-8.4522,-7.8546,-7.5284,-7.5027,-7.1629,-7.054,-5.3316,-5.8476,-6.4533,-6.8795,-7.5376,-8.1882,-8.5845,-8.7714,-8.8911,-8.9958,-9.1977,-9.3472,-9.3472,-9.5416,-9.7361,-9.8333,-9.8557,-9.8557,-9.8557,-9.9903,-10.1548,-10.3193,-10.4913,-10.6558,-10.8129,-10.8278,-10.8278,-10.8278,-10.8278,-10.8278,-10.8278,-10.8278,-10.8278,-10.8278,-10.8951,-11.0073,-11.1793,-11.3438,-11.5083,-11.6653,-11.77,-11.8149,-11.8149,-11.8149,-11.8149,-11.8149,-11.8149,-11.8149,-11.8149,-11.8149,-11.8149,-11.8149,-11.8149,-11.8149,-11.8149,-11.8149,-11.8149,-11.8149,-11.8149,-11.8149,-11.8149,-11.8149,-11.8149,-11.8149,-11.8149,-11.8149,-11.8149,-11.8149,-11.8149,-11.8149,-11.8149,-11.8149,-11.8149,-11.8149,-11.8149,-11.8149,-11.8149,-11.8149,-11.8149,-11.8149,-11.8149,-11.8149,-11.8149,-11.8149,-11.8149,-11.8149,-11.8373,-11.8804,-11.945,-11.9544,-11.9668,-11.9895,-11.9971,-11.9971,-11.9971,-12.149,-12.316,-12.4907,-12.3543,-12.1677,-11.9331,-11.551,-10.9526,-10.1486,-9.4343,-8.7691,-8.2032,-7.7283,-7.4037,-7.2036,-7.0499,-7.073,-4.8605,-5.3391,-5.9448,-6.2514,-7.1039,-7.919,-8.1134,-8.4125,-8.7191,-8.9883,-9.1677,-9.2949,-9.3397,-9.4893,-9.6613,-9.8258,-9.8557,-9.8557,-9.8557,-9.9529,-10.08,-10.2445,-10.4165,-10.581,-10.7381,-10.7979,-10.8278,-10.8278,-10.8278,-10.8278,-10.8278,-10.8278,-10.8278,-10.8278,-10.8278,-10.9101,-11.0746,-11.2466,-11.4111,-11.5681,-11.7401,-11.8149,-11.8149,-11.8149,-11.8149,-11.8149,-11.8149,-11.8149,-11.8149,-11.8149,-11.8149,-11.8149,-11.8149,-11.8149,-11.8149,-11.8149,-11.8149,-11.8149,-11.8149,-11.8149,-11.8149,-11.8149,-11.8149,-11.8149,-11.8149,-11.8149,-11.8149,-11.8149,-11.8149,-11.8149,-11.8149,-11.8149,-11.8149,-11.8149,-11.8149,-11.8149,-11.8149,-11.8149,-11.8149,-11.8149,-11.8149,-11.8149,-11.8149,-11.8149,-11.8149,-11.8149,-11.8448,-11.8915,-11.9348,-11.9509,-11.9657,-11.9833,-11.9872,-11.9971,-11.9971,-12.149,-12.316,-12.4907,-12.4345,-12.3386,-12.2188,-11.7012,-11.0334,-10.2278,-9.4003,-8.6522,-8.0049,-7.6775,-7.33,-7.0009,-7.0274,-7.1148,-5.1671,-5.1746,-5.3391,-5.9972,-6.4159,-6.8347,-7.4927,-7.8965,-8.2704,-8.7639,-9.0032,-9.1677,-9.3248,-9.4893,-9.6613,-9.8258,-9.8557,-9.8557,-9.8557,-9.8557,-9.9155,-10.0726,-10.2445,-10.4091,-10.581,-10.7381,-10.8278,-10.8278,-10.8278,-10.8278,-10.8278,-10.8278,-10.8278,-10.8278,-10.8278,-10.9101,-11.0746,-11.2466,-11.4111,-11.5681,-11.7401,-11.8149,-11.8149,-11.8149,-11.8149,-11.8149,-11.8149,-11.8149,-11.8149,-11.8149,-11.8149,-11.8149,-11.8149,-11.8149,-11.8149,-11.8149,-11.8149,-11.8149,-11.8149,-11.8149,-11.8149,-11.8149,-11.8149,-11.8149,-11.8149,-11.8149,-11.8149,-11.8149,-11.8149,-11.8149,-11.8149,-11.8149,-11.8149,-11.8149,-11.8149,-11.8149,-11.8149,-11.8149,-11.8149,-11.8149,-11.8149,-11.8149,-11.8149,-11.8149,-11.8149,-11.8149,-11.8718,-11.9175,-11.9141,-11.9358,-11.9554,-11.9503,-11.9773,-11.9971,-11.9971,-12.149,-12.316,-12.4907,-12.6172,-12.5974,-12.3868,-11.7313,-11.0571,-10.3898,-9.4528,-8.6522,-8.0049,-7.6775,-7.33,-7.0047,-7.0882,-7.1717,-4.7783,-5.0026,-5.3316,-5.9972,-6.4982,-6.9319,-7.3656,-7.8068,-8.233,-8.6144,-8.6443,-8.6966,-8.9658,-9.1528,-9.3622,-9.6388,-9.6837,-9.7211,-9.8407,-9.8557,-9.9155,-10.0726,-10.1399,-10.2819,-10.5661,-10.6409,-10.7156,-10.8203,-10.8278,-10.8278,-10.8278,-10.8278,-10.8278,-10.8278,-10.8278,-10.8502,-10.9026,-11.1942,-11.3587,-11.4111,-11.6878,-11.8149,-11.8149,-11.8149,-11.8149,-11.8149,-11.8149,-11.8149,-11.8149,-11.8149,-11.8149,-11.8149,-11.8149,-11.8149,-11.8149,-11.8149,-11.8149,-11.8149,-11.8149,-11.8149,-11.8149,-11.8149,-11.8149,-11.8149,-11.8149,-11.8149,-11.8149,-11.8149,-11.8149,-11.8149,-11.8149,-11.8149,-11.8149,-11.8149,-11.8149,-11.8149,-11.8149,-11.8149,-11.8149,-11.8149,-11.8149,-11.8149,-11.8149,-11.8149,-11.8224,-11.8373,-11.8867,-11.9216,-11.9413,-11.9656,-11.9814,-11.9855,-11.9906,-11.9971,-11.9971,-12.149,-12.316,-12.4907,-12.521,-12.5372,-12.5468,-11.8136,-11.1354,-10.5521,-9.5055,-8.6522,-8.0049,-7.6775,-7.3618,-7.0882,-7.1148,-7.2021,-4.8269,-5.0231,-5.2643,-6.057,-6.3935,-6.6477,-7.0964,-7.3955,-7.6797,-8.0685,-8.1209,-8.1956,-8.5247,-8.921,-9.2724,-9.4743,-9.5566,-9.6388,-9.7435,-9.7585,-9.8183,-9.9828,-10.0501,-10.1997,-10.4689,-10.5586,-10.6558,-10.8129,-10.8278,-10.8278,-10.8278,-10.8278,-10.8278,-10.8278,-10.8278,-10.8278,-10.8278,-11.1643,-11.3662,-11.426,-11.6878,-11.8149,-11.8149,-11.8149,-11.8149,-11.8149,-11.8149,-11.8149,-11.8149,-11.8149,-11.8149,-11.8149,-11.8149,-11.8149,-11.8149,-11.8149,-11.8149,-11.8149,-11.8149,-11.8149,-11.8149,-11.8149,-11.8149,-11.8149,-11.8149,-11.8149,-11.8149,-11.8149,-11.8149,-11.8149,-11.8149,-11.8149,-11.8149,-11.8149,-11.8149,-11.8149,-11.8149,-11.8149,-11.8149,-11.8149,-11.8149,-11.8149,-11.8149,-11.8224,-11.8373,-11.8523,-11.9026,-11.9332,-11.9511,-11.967,-11.981,-11.9909,-11.9857,-11.982,-11.9971,-12.0883,-12.2477,-12.4831,-12.4574,-12.46,-12.5195,-11.7985,-11.1555,-10.6242,-9.6682,-8.7975,-8.0049,-7.8042,-7.4999,-7.1299,-7.1603,-7.2438,-5.1548,-5.159,-5.1671,-6.1093,-6.1542,-6.1294,-6.7573,-6.7599,-6.7599,-7.2235,-7.4479,-7.6647,-7.9937,-8.7041,-9.265,-9.3248,-9.4743,-9.594,-9.6314,-9.6463,-9.7136,-9.8707,-10.0202,-10.1698,-10.3268,-10.4838,-10.6483,-10.8129,-10.8278,-10.8278,-10.8278,-10.8278,-10.8278,-10.8278,-10.8278,-10.8353,-10.8428,-11.1718,-11.4111,-11.5681,-11.7401,-11.8149,-11.8149,-11.8149,-11.8149,-11.8149,-11.8149,-11.8149,-11.8149,-11.8149,-11.8149,-11.8149,-11.8149,-11.8149,-11.8149,-11.8149,-11.8149,-11.8149,-11.8149,-11.8149,-11.8149,-11.8149,-11.8149,-11.8149,-11.8149,-11.8149,-11.8149,-11.8149,-11.8149,-11.8149,-11.8149,-11.8149,-11.8149,-11.8149,-11.8149,-11.8149,-11.8149,-11.8149,-11.8149,-11.8149,-11.8149,-11.8149,-11.8149,-11.8373,-11.8568,-11.8582,-11.913,-11.9516,-11.9592,-11.9595,-11.9636,-11.9888,-11.9744,-11.9668,-11.9895,-11.9971,-12.1338,-12.4603,-12.4327,-12.3915,-12.3657,-11.7275,-11.1503,-10.6304,-9.8692,-9.0283,-8.0547,-8.0298,-7.7318,-7.1914,-7.2135,-7.297,-4.754,-4.9857,-5.227,-5.7055,-6.1542,-6.5505,-6.8347,-6.6702,-6.4832,-6.6029,-6.7599,-6.9768,-7.3058,-7.8367,-8.4274,-9.0705,-9.3023,-9.5416,-9.923,-10.0875,-10.1847,-10.2221,-10.2595,-10.2969,-10.3343,-10.3791,-10.5212,-10.8054,-10.8278,-10.8278,-10.8278,-10.8278,-10.8278,-10.8278,-10.8278,-10.8876,-11.0148,-11.2241,-11.4111,-11.5681,-11.7401,-11.8149,-11.8149,-11.8149,-11.8149,-11.8149,-11.8149,-11.8149,-11.8149,-11.8149,-11.8149,-11.8149,-11.8149,-11.8149,-11.8149,-11.8149,-11.8149,-11.8149,-11.8149,-11.8149,-11.8149,-11.8149,-11.8149,-11.8149,-11.8149,-11.8149,-11.8149,-11.8149,-11.8149,-11.8149,-11.8149,-11.8149,-11.8149,-11.8149,-11.8149,-11.8149,-11.8149,-11.8149,-11.8149,-11.8149,-11.8149,-11.8149,-11.8149,-11.8373,-11.8678,-11.8944,-11.9315,-11.9592,-11.982,-11.9861,-11.984,-11.9971,-11.9895,-11.9895,-11.9971,-11.9971,-12.0807,-12.2933,-12.3645,-12.3915,-12.3657,-11.8233,-11.2373,-10.6304,-9.9482,-9.2203,-8.3747,-8.1292,-7.8636,-7.6104,-7.3725,-7.3274,-4.9106,-5.2187,-5.3873,-5.3391,-5.7631,-6.1892,-6.1144,-6.0271,-5.9448,-5.9448,-6.0794,-6.3636,-6.9244,-7.1787,-7.6273,-8.6144,-8.906,-9.1603,-9.5865,-9.7809,-9.9679,-10.1997,-10.1623,-10.2072,-10.4315,-10.3866,-10.4464,-10.7007,-10.7829,-10.8278,-10.8278,-10.8278,-10.8278,-10.8278,-10.8278,-10.9101,-11.0746,-11.2466,-11.4485,-11.6803,-11.77,-11.8149,-11.8149,-11.8149,-11.8149,-11.8149,-11.8149,-11.8149,-11.8149,-11.8149,-11.8149,-11.8149,-11.8149,-11.8149,-11.8149,-11.8149,-11.8149,-11.8149,-11.8149,-11.8149,-11.8149,-11.8149,-11.8149,-11.8149,-11.8149,-11.8149,-11.8149,-11.8149,-11.8149,-11.8149,-11.8149,-11.8149,-11.8149,-11.8149,-11.8149,-11.8149,-11.8149,-11.8149,-11.8149,-11.8149,-11.8149,-11.8149,-11.8149,-11.8523,-11.891,-11.9117,-11.9509,-11.9744,-11.9895,-11.9971,-11.9971,-11.9971,-11.9971,-11.9971,-11.9971,-11.9971,-12.0351,-12.1262,-12.181,-12.2223,-12.2484,-11.806,-11.3305,-10.8142,-10.0602,-9.2578,-8.4729,-8.1697,-7.8507,-7.5119,-7.3296,-7.3388,-5.2153,-5.5455,-5.6219,-5.1974,-5.4105,-5.6435,-5.3582,-5.3656,-5.4309,-5.4309,-5.5506,-5.8873,-6.6178,-6.6926,-6.9842,-7.9937,-8.3452,-8.6518,-9.093,-9.3323,-9.6164,-10.0426,-9.9978,-10.095,-10.5137,-10.424,-10.424,-10.6184,-10.753,-10.8278,-10.8278,-10.8278,-10.8278,-10.8278,-10.8278,-10.9175,-11.112,-11.2615,-11.4933,-11.8149,-11.8149,-11.8149,-11.8149,-11.8149,-11.8149,-11.8149,-11.8149,-11.8149,-11.8149,-11.8149,-11.8149,-11.8149,-11.8149,-11.8149,-11.8149,-11.8149,-11.8149,-11.8149,-11.8149,-11.8149,-11.8149,-11.8149,-11.8149,-11.8149,-11.8149,-11.8149,-11.8149,-11.8149,-11.8149,-11.8149,-11.8149,-11.8149,-11.8149,-11.8149,-11.8149,-11.8149,-11.8149,-11.8149,-11.8149,-11.8149,-11.8149,-11.8149,-11.8149,-11.8718,-11.9175,-11.9192,-11.9585,-11.9971,-11.9971,-11.9971,-11.9971,-11.9971,-11.9971,-11.9971,-11.9971,-11.9971,-11.9971,-11.9971,-12.0218,-12.0684,-12.1539,-11.854,-11.4794,-11.0452,-10.1566,-9.3085,-8.5123,-8.1854,-7.7652,-7.3104,-7.2712,-7.3312,-4.9838,-5.4733,-5.9032,-5.815,-5.8494,-5.8932,-5.8406,-5.6342,-5.454,-5.4405,-5.5847,-5.7794,-6.0196,-6.3885,-6.7696,-7.0889,-7.6124,-8.2928,-9.1902,-9.6987,-10.0053,-10.08,-10.1922,-10.2969,-10.3717,-10.3567,-10.4689,-10.768,-10.8129,-10.8278,-10.8278,-10.8278,-10.8278,-10.8278,-10.8278,-10.9774,-11.2914,-11.3213,-11.4933,-11.8149,-11.8149,-11.8149,-11.8149,-11.8149,-11.8149,-11.8149,-11.8149,-11.8149,-11.8149,-11.8149,-11.8149,-11.8149,-11.8149,-11.8149,-11.8149,-11.8149,-11.8149,-11.8149,-11.8149,-11.8149,-11.8149,-11.8149,-11.8149,-11.8149,-11.8149,-11.8149,-11.8149,-11.8149,-11.8149,-11.8149,-11.8149,-11.8149,-11.8149,-11.8149,-11.8149,-11.8149,-11.8149,-11.8149,-11.8149,-11.8149,-11.8149,-11.8149,-11.8149,-11.8718,-11.9175,-11.9192,-11.9585,-11.9971,-11.9971,-11.9971,-11.9971,-11.9971,-11.9971,-11.9971,-11.9971,-11.9971,-11.9971,-11.9971,-12.1279,-12.2541,-12.3513,-12.2838,-11.8662,-11.0544,-10.3098,-9.5904,-8.8571,-8.2834,-7.8594,-7.5526,-7.3455,-7.3008,-5.0957,-5.6101,-6.0755,-5.8785,-5.9044,-5.9402,-5.8468,-5.7049,-5.5677,-5.473,-5.5214,-5.6787,-6.0041,-6.1132,-6.4134,-7.2096,-7.5733,-8.043,-8.8529,-9.3882,-9.7585,-9.938,-10.0277,-10.1473,-10.3268,-10.3418,-10.4016,-10.5511,-10.7306,-10.8278,-10.8278,-10.8278,-10.8278,-10.8278,-10.8278,-10.9923,-11.3288,-11.4186,-11.5831,-11.8149,-11.8149,-11.8149,-11.8149,-11.8149,-11.8149,-11.8149,-11.8149,-11.8149,-11.8149,-11.8149,-11.8149,-11.8149,-11.8149,-11.8149,-11.8149,-11.8149,-11.8149,-11.8149,-11.8149,-11.8149,-11.8149,-11.8149,-11.8149,-11.8149,-11.8149,-11.8149,-11.8149,-11.8149,-11.8149,-11.8149,-11.8149,-11.8149,-11.8149,-11.8149,-11.8149,-11.8149,-11.8149,-11.8149,-11.8149,-11.8149,-11.8149,-11.8224,-11.8373,-11.8867,-11.9181,-11.9338,-11.9649,-11.9971,-11.9971,-11.9971,-11.9971,-11.9971,-11.9971,-11.9971,-11.9971,-11.9971,-12.0351,-12.1262,-12.2056,-12.3372,-12.5496,-12.4837,-12.1513,-11.5548,-10.5187,-9.6326,-8.8928,-8.2942,-7.7788,-7.3593,-7.2452,-7.2514,-5.5012,0.0,-6.3089,-6.0415,-6.0988,-6.1662,0.0,-5.8987,-5.835,-5.6233,-5.5875,-5.7036,-6.0761,-5.9722,-6.179,-7.2297,-7.4835,-7.7603,-8.3858,-8.8496,-9.2724,-9.6837,-9.7734,-9.938,-10.3044,-10.3418,-10.3717,-10.4539,-10.6857,-10.8278,-10.8278,-10.8278,-10.8278,-10.8278,-10.8652,-11.0297,-11.3288,-11.4859,-11.6504,-11.8149,-11.8149,-11.8149,-11.8149,-11.8149,-11.8149,-11.8149,-11.8149,-11.8149,-11.8149,-11.8149,-11.8149,-11.8149,-11.8149,-11.8149,-11.8149,-11.8149,-11.8149,-11.8149,-11.8149,-11.8149,-11.8149,-11.8149,-11.8149,-11.8149,-11.8149,-11.8149,-11.8149,-11.8149,-11.8149,-11.8149,-11.8149,-11.8149,-11.8149,-11.8149,-11.8149,-11.8149,-11.8149,-11.8149,-11.8149,-11.8149,-11.8149,-11.8224,-11.8523,-11.8936,-11.9291,-11.9502,-11.9744,-11.9971,-11.9971,-11.9971,-11.9971,-11.9971,-11.9971,-11.9971,-11.9971,-11.9971,-12.0655,-12.2325,-12.2857,-12.4266,-12.6844,-12.6023,-12.3833,-11.9923,-10.918,-9.985,-9.1692,-8.3934,-7.6895,-7.0996,-7.1186,-7.1945,0.0,-6.5528,-6.7047,-6.6817,-6.8032,-6.8411,-6.5148,-6.4389,0.0,-6.0041,-5.9466,-5.9658,-5.9639,-6.0885,-6.2613,-6.5029,-6.9163,-7.3794,-7.8785,-8.2383,-8.6817,-9.3098,-9.5267,-9.8108,-10.2969,-10.3418,-10.4689,-10.768,-10.8129,-10.8278,-10.8278,-10.8278,-10.8278,-10.8278,-10.9774,-11.1494,-11.3288,-11.4859,-11.6504,-11.8149,-11.8149,-11.8149,-11.8149,-11.8149,-11.8149,-11.8149,-11.8149,-11.8149,-11.8149,-11.8149,-11.8149,-11.8149,-11.8149,-11.8149,-11.8149,-11.8149,-11.8149,-11.8149,-11.8149,-11.8149,-11.8149,-11.8149,-11.8149,-11.8149,-11.8149,-11.8149,-11.8149,-11.8149,-11.8149,-11.8149,-11.8149,-11.8149,-11.8149,-11.8149,-11.8149,-11.8149,-11.8149,-11.8149,-11.8149,-11.8149,-11.8149,-11.8224,-11.8523,-11.8904,-11.9282,-11.9511,-11.9744,-11.9971,-11.9971,-11.9971,-11.9971,-11.9971,-11.9971,-11.9971,-11.9971,-11.9971,-12.0655,-12.2325,-12.392,-12.5479,-12.6919,-12.7222,-12.5189,-12.0709,-11.7044,-11.0296,-10.0324,-8.6658,-7.6562,-7.0123,-7.092,-7.1337,-6.5984,-6.9249,-7.1907,-7.0844,-7.1831,-7.2211,-6.887,-6.7275,-6.5525,-6.2171,-6.0717,-6.0364,-6.1252,-6.1958,-6.4716,-7.1536,-7.4018,-7.7194,-8.3137,-8.5778,-8.8318,-9.1755,-9.5379,-9.8707,-10.1548,-10.2819,-10.439,-10.6633,-10.7755,-10.8278,-10.8278,-10.8278,-10.8727,-10.9774,-11.1494,-11.3139,-11.4784,-11.6429,-11.7551,-11.8149,-11.8149,-11.8149,-11.8149,-11.8149,-11.8149,-11.8149,-11.8149,-11.8149,0.0,-11.8149,-11.8149,-11.8149,-11.8149,-11.8149,-11.8149,-11.8149,-11.8149,-11.8149,-11.8149,-11.8149,-11.8149,-11.8149,-11.8149,-11.8149,-11.8149,-11.8149,-11.8149,-11.8149,-11.8149,-11.8149,-11.8149,-11.8149,-11.8149,-11.8149,-11.8149,-11.8149,-11.8149,-11.8149,-11.8149,-11.8149,-11.8149,-11.8298,-11.8867,-11.9088,-11.9318,-11.9739,-11.9895,-11.9971,-11.9971,-11.9971,-11.9971,-11.9971,-11.9971,-11.9971,-11.9971,-11.9971,-12.111,-12.3844,-12.4603,-12.6022,-12.8446,-12.7905,-12.54,-12.083,-11.7039,-11.0499,-10.1288,-8.9847,-7.9206,-7.0009,-6.8103,-6.8802,-6.9553,-7.2742,-7.5552,-7.4413,-7.5779,-7.6235,-7.1755,-6.9857,-6.7807,-6.3479,-6.1277,-6.0593,-6.2264,-6.3023,-6.628,-7.5221,-7.6973,-7.9427,-8.5961,-8.8129,-8.9624,-9.1158,-9.508,-9.8407,-9.9978,-10.2595,-10.4913,-10.6558,-10.768,-10.8278,-10.8278,-10.8278,-10.9026,-11.0746,-11.2466,-11.4111,-11.5606,-11.7326,-11.8149,-11.8149,-11.8149,-11.8149,-11.8149,-11.8149,-11.8149,-11.8149,-11.8149,-11.8149,-11.8149,-11.8149,-11.8149,-11.8149,-11.8149,-11.8149,-11.8149,-11.8149,-11.8149,-11.8149,-11.8149,-11.8149,-11.8149,-11.8149,-11.8149,-11.8149,-11.8149,-11.8149,-11.8149,-11.8149,-11.8149,-11.8149,-11.8149,-11.8149,-11.8149,-11.8149,-11.8149,-11.8149,-11.8149,-11.8149,-11.8149,-11.8149,-11.8149,-11.8373,-11.9017,-11.9163,-11.9318,-11.9891,-11.9971,-11.9971,-11.9971,-11.9971,-11.9971,-11.9971,-11.9971,-11.9971,-11.9971,-12.0427,-12.1946,-12.4831,-12.5514,-12.6881,-12.9387,-12.8198,-12.5428,-12.0841,-11.654,-10.9984,-10.1288,-9.1504,-8.197,-7.304,-6.8533,-6.7552,-7.4109,-7.6311,-7.7602,-7.7602,-8.0032,-8.0715,-7.4033,-7.2514,-7.0616,-6.401,-6.1277,-6.0593,-6.2264,-6.3934,-6.7135,-7.3643,-7.6094,-7.9339,-8.5611,-8.7972,-8.9584,-9.1004,-9.407,-9.6688,-9.8407,-10.3044,-10.6558,-10.8129,-10.8278,-10.8278,-10.8278,-10.8278,-10.9026,-11.0746,-11.2466,-11.4111,-11.5681,-11.7326,-11.8149,-11.8149,-11.8149,-11.8149,-11.8149,-11.8149,-11.8149,-11.8149,-11.8149,-11.8149,-11.8149,-11.8149,-11.8149,-11.8149,-11.8149,-11.8149,-11.8149,-11.8149,-11.8149,-11.8149,-11.8149,-11.8149,-11.8149,-11.8149,-11.8149,-11.8149,-11.8149,-11.8149,-11.8149,-11.8149,-11.8149,-11.8149,-11.8149,-11.8149,-11.8149,-11.8149,-11.8149,-11.8149,-11.8149,-11.8149,-11.8149,-11.8149,-11.8149,-11.8373,-11.9017,-11.9163,-11.9318,-11.9891,-11.9971,-11.9971,-11.9971,-11.9971,-11.9971,-11.9971,-11.9971,-11.9971,-11.9971,-12.149,-12.316,-12.4907,-12.6577,-12.8096,-12.9387,-12.8178,-12.5415,-12.0823,-11.6457,-10.9984,-10.1288,-9.1504,-8.4381,-8.0049,-7.304,-6.8075,-7.5855,-7.8057,-7.9576,-8.0715,-8.2613,-8.2765,-7.7298,-7.4185,-7.092,-6.5377,-6.2947,-6.234,-6.3934,-6.6592,-7.0306,-7.5844,-7.8102,-8.0983,-8.6225,-8.8177,-9.0107,-9.2802,-9.4856,-9.7136,-9.9903,-10.2595,-10.5287,-10.8054,-10.8278,-10.8278,-10.8278,-10.8278,-10.9624,-11.2466,-11.3064,-11.4634,-11.7401,-11.7924,-11.8149,-11.8149,-11.8149,-11.8149,-11.8149,-11.8149,-11.8149,-11.8149,-11.8149,-11.8149,-11.8149,-11.8149,-11.8149,-11.8149,-11.8149,-11.8149,-11.8149,-11.8149,-11.8149,-11.8149,-11.8149,-11.8149,-11.8149,-11.8149,-11.8149,-11.8149,-11.8149,-11.8149,-11.8149,-11.8149,-11.8149,-11.8149,-11.8149,-11.8149,-11.8149,-11.8149,-11.8149,-11.8149,-11.8149,-11.8149,-11.8149,-11.8149,-11.8149,-11.8373,-11.9017,-11.9163,-11.9318,-11.9891,-11.9971,-11.9971,-11.9971,-11.9971,-11.9971,-11.9971,-11.9971,-11.9971,-11.9971,-12.149,-12.316,-12.4907,-12.6577,-12.7995,-12.9162,-12.7545,-12.4608,-12.0538,-11.4805,-10.8386,-10.1288,-9.0463,-8.3492,-7.98,-7.0532,-6.4172,-7.783,-7.9728,-8.1398,-8.2993,-8.4663,-8.4663,-7.9728,-7.6463,-7.2894,-6.7123,-6.4617,-6.401,-6.5605,-6.8718,-7.2818,-7.8589,-8.0943,-8.3663,-8.8434,-9.0312,-9.2165,-9.4595,-9.6127,-9.8333,-10.1548,-10.2819,-10.4764,-10.7979,-10.8278,-10.8278,-10.8278,-10.8278,-10.9848,-11.3213,-11.3363,-11.4859,-11.8149,-11.8149,-11.8149,-11.8149,-11.8149,-11.8149,-11.8149,-11.8149,-11.8149,-11.8149,-11.8149,-11.8149,-11.8149,-11.8149,-11.8149,-11.8149,-11.8149,-11.8149,-11.8149,-11.8149,-11.8149,-11.8149,-11.8149,-11.8149,-11.8149,-11.8149,-11.8149,-11.8149,-11.8149,-11.8149,-11.8149,-11.8149,-11.8149,-11.8149,-11.8149,-11.8149,-11.8149,-11.8149,-11.8149,-11.8149,-11.8149,-11.8149,-11.8149,-11.8149,-11.8149,-11.8373,-11.9017,-11.9163,-11.9318,-11.9891,-11.9971,-11.9971,-11.9971,-11.9971,-11.9971,-11.9971,-11.9971,-11.9895,-11.9744,-12.1414,-12.3137,-12.4733,-12.6541,-12.7976,-12.8994,-12.7143,-12.4277,-12.0395,-11.397,-10.7387,-10.0723,-8.9947,-8.2978,-7.9192,-6.9252,-6.2544,-7.988,-8.155,-8.3221,-8.4815,-8.641,-8.641,-8.1626,-7.9196,-7.6083,-6.9325,-6.682,-6.6212,-6.7275,-7.0616,-7.5248,-8.1398,-8.4132,-8.7094,-9.1933,-9.3693,-9.5004,-9.65,-9.7921,-9.9978,-10.3118,-10.3567,-10.4913,-10.8054,-10.8278,-10.8278,-10.8278,-10.8278,-10.9848,-11.3213,-11.3363,-11.4859,-11.8149,-11.8149,-11.8149,-11.8149,-11.8149,-11.8149,-11.8149,-11.8149,-11.8149,-11.8149,-11.8149,-11.8149,-11.8149,-11.8149,-11.8149,-11.8149,-11.8149,-11.8149,-11.8149,-11.8149,-11.8149,-11.8149,-11.8149,-11.8149,-11.8149,-11.8149,-11.8149,-11.8149,-11.8149,-11.8149,-11.8149,-11.8149,-11.8149,-11.8149,-11.8149,-11.8149,-11.8149,-11.8149,-11.8149,-11.8149,-11.8149,-11.8149,-11.8149,-11.8149,-11.8149,-11.8373,-11.9017,-11.9163,-11.9318,-11.9891,-11.9971,-11.9971,-11.9971,-11.9971,-11.9971,-11.9971,-11.9895,-11.982,-11.9592,-12.1334,-12.2947,-12.4301,-12.6155,-12.7572,-12.8541,-12.6826,-12.4066,-12.0181,-11.3902,-10.7162,-9.9805,-8.9482,-8.2557,-7.8078,-6.8388,-6.217,-8.1474,-8.4132,-8.6486,-8.6865,-8.8232,-8.846,-8.4739,-8.2613,-7.95,-7.2818,-7.2211,-7.1755,-6.811,-7.3501,-7.9348,-8.2006,-8.6106,-9.0576,-9.5437,-9.62,-9.6792,-9.8219,-9.9604,-10.1174,-10.3193,-10.4614,-10.6184,-10.8129,-10.8278,-10.8278,-10.8278,-10.8278,-10.9848,-11.3213,-11.3363,-11.4859,-11.8149,-11.8149,-11.8149,-11.8149,-11.8149,-11.8149,-11.8149,-11.8149,-11.8149,-11.8149,-11.8149,-11.8149,-11.8149,-11.8149,-11.8149,-11.8149,-11.8149,-11.8149,-11.8149,-11.8149,-11.8149,-11.8149,-11.8149,-11.8149,-11.8149,-11.8149,-11.8149,-11.8149,-11.8149,-11.8149,-11.8149,-11.8149,-11.8149,-11.8149,-11.8149,-11.8149,-11.8149,-11.8149,-11.8149,-11.8149,-11.8149,-11.8149,-11.8149,-11.8149,-11.8149,-11.8373,-11.9017,-11.9163,-11.9318,-11.9891,-11.9971,-11.9971,-11.9971,-11.9971,-11.9971,-11.9971,-11.9744,-11.9592,-11.9516,-12.0997,-12.2036,-12.2595,-12.3996,-12.4866,-12.5088,-12.4207,-12.2044,-11.835,-11.3426,-10.7162,-9.9805,-8.8967,-8.1856,-7.8078,-6.5098,-5.9222,-8.3221,-8.5499,-8.7701,-8.846,-8.9371,-8.9295,-8.6789,-8.4815,-8.2234,-7.7146,-7.6235,-7.5476,-7.2742,-7.7146,-8.2006,-8.4436,-8.846,-9.269,-9.6765,-9.7146,-9.7569,-9.9006,-10.0277,-10.1772,-10.3418,-10.5063,-10.6558,-10.8129,-10.8278,-10.8278,-10.8278,-10.8278,-10.9848,-11.3213,-11.3363,-11.4859,-11.8149,-11.8149,-11.8149,-11.8149,-11.8149,-11.8149,-11.8149,-11.8149,-11.8149,-11.8149,-11.8149,-11.8149,-11.8149,-11.8149,-11.8149,-11.8149,-11.8149,-11.8149,-11.8149,-11.8149,-11.8149,-11.8149,-11.8149,-11.8149,-11.8149,-11.8149,-11.8149,-11.8149,-11.8149,-11.8149,-11.8149,-11.8149,-11.8149,-11.8149,-11.8149,-11.8149,-11.8149,-11.8149,-11.8149,-11.8149,-11.8149,-11.8149,-11.8149,-11.8149,-11.8149,-11.8373,-11.9017,-11.9163,-11.9318,-11.9891,-11.9971,-11.9971,-11.9971,-11.9971,-11.9971,-11.9971,-11.9668,-11.9487,-11.9374,-12.0119,-12.1007,-12.1876,-12.2644,-12.3163,-12.3346,-12.2453,-12.0437,-11.7303,-11.1662,-10.5584,-9.8961,-8.8077,-8.0921,-7.7386,-6.3916,-5.8275,-8.4587,-8.641,-8.8232,-8.9675,-8.9979,-8.9599,-8.8232,-8.6865,-8.4891,-8.1626,-8.0032,-7.9044,-7.8133,-8.0867,-8.4511,-8.8156,-9.1649,-9.499,-9.8407,-9.8667,-9.8707,-9.9418,-10.0577,-10.2,-10.3677,-10.5171,-10.6633,-10.8203,-10.8129,-10.8054,-10.8353,-10.8278,-10.9699,-11.2765,-11.3139,-11.4859,-11.8149,-11.8149,-11.8149,-11.8149,-11.8149,-11.8149,-11.8149,-11.8149,-11.8149,-11.8149,-11.8149,-11.8149,-11.8149,-11.8149,-11.8149,-11.8149,-11.8149,-11.8149,-11.8149,-11.8149,-11.8149,-11.8149,-11.8149,-11.8149,-11.8149,-11.8149,-11.8149,-11.8149,-11.8149,-11.8149,-11.8149,-11.8149,-11.8149,-11.8149,-11.8149,-11.8149,-11.8149,-11.8149,-11.8149,-11.8149,-11.8149,-11.8149,-11.8149,-11.8149,-11.8149,-11.8373,-11.9017,-11.9163,-11.9318,-11.9891,-11.9971,-11.9971,-11.9971,-11.9971,-11.9895,-11.9895,-11.9663,-11.9384,-11.9118,-11.9241,-11.993,-12.1119,-12.1363,-12.161,-12.2009,-12.0892,-11.8829,-11.611,-10.9761,-10.371,-9.7684,-8.6712,-7.9716,-7.6409,-6.3595,-5.8147,-8.4891,-8.7245,-8.9751,-8.9979,-8.9979,-8.9979,-8.9675,-8.9523,-8.8384,-8.4967,-8.5271,-8.4815,-8.0563,-8.36,-8.8384,-9.3244,-9.6812,-10.0077,-10.3494,-10.3774,-10.2561,-9.9866,-10.0802,-10.2318,-10.4016,-10.5429,-10.6891,-10.8502,-10.7381,-10.719,-10.8502,-10.8353,-10.9101,-11.1045,-11.254,-11.4859,-11.8149,-11.8149,-11.8149,-11.8149,-11.8149,-11.8149,-11.8149,-11.8149,-11.8149,-11.8149,-11.8149,-11.8149,-11.8149,-11.8149,-11.8149,-11.8149,-11.8149,-11.8149,-11.8149,-11.8149,-11.8149,-11.8149,-11.8149,-11.8149,-11.8149,-11.8149,-11.8149,-11.8149,-11.8149,-11.8149,-11.8149,-11.8149,-11.8149,-11.8149,-11.8149,-11.8149,-11.8149,-11.8149,-11.8149,-11.8149,-11.8149,-11.8149,-11.8149,-11.8149,-11.8149,-11.8373,-11.9017,-11.9163,-11.9318,-11.9891,-11.9971,-11.9971,-11.9971,-11.9971,-11.982,-11.9592,-11.939,-11.9039,-11.8657,-11.8672,-11.895,-11.9492,-11.9246,-11.9244,-11.9615,-11.8686,-11.6778,-11.3645,-10.8895,-10.304,-9.6209,-8.5593,-7.9238,-7.6409,-6.2766,-5.7396,-8.4436,-8.7397,-8.9979,-8.9979,-8.9979,-8.9979,-8.9979,-8.9979,-8.9599,-8.808,-8.9143,-8.9675,-8.7473,-8.9599,-9.2788,-9.5977,-9.7648,-9.9394,-10.1824,-10.203,-10.1392,-9.9937,-10.0967,-10.218,-10.2923,-10.4276,-10.5838,-10.7497,-10.7834,-10.8202,-10.8619,-10.8502,-10.9175,-11.0746,-11.2466,-11.441,-11.6728,-11.77,-11.8149,-11.8149,-11.8149,-11.8149,-11.8149,-11.8149,-11.8149,-11.8149,-11.8149,-11.8149,-11.8149,-11.8149,-11.8149,-11.8149,-11.8149,-11.8149,-11.8149,-11.8149,-11.8149,-11.8149,-11.8149,-11.8149,-11.8149,-11.8149,-11.8149,-11.8149,-11.8149,-11.8149,-11.8149,-11.8149,-11.8149,-11.8149,-11.8149,-11.8149,-11.8149,-11.8149,-11.8149,-11.8149,-11.8149,-11.8149,-11.8149,-11.8149,-11.8298,-11.8523,-11.9092,-11.9243,-11.9536,-11.9894,-11.9971,-11.9971,-11.9971,-11.9971,-11.9895,-11.9744,-11.9429,-11.9068,-11.8912,-11.8942,-11.9029,-11.9166,-11.9143,-11.891,-11.8462,-11.7266,-11.53,-11.2594,-10.7046,-10.1508,-9.595,-8.4739,-7.8364,-7.6409,-6.266,-5.73,-8.3524,-8.6486,-8.8915,-8.9751,-8.9979,-8.9979,-8.9979,-8.9979,-8.9979,-8.9979,-9.1042,-9.1877,-9.1877,-9.3244,-9.5218,-9.7724,-9.8559,-9.9394,-10.0989,-10.1216,-10.0913,-10.0001,-10.0869,-10.166,-10.2142,-10.3449,-10.5012,-10.6749,-10.8055,-10.8738,-10.8884,-10.8843,-10.9475,-11.097,-11.2646,-11.4216,-11.5756,-11.7476,-11.8224,-11.8149,-11.8149,-11.8149,-11.8149,-11.8149,-11.8149,-11.8149,-11.8149,-11.8149,-11.8149,-11.8149,-11.8149,-11.8149,-11.8149,-11.8149,-11.8149,-11.8149,-11.8149,-11.8149,-11.8149,-11.8149,-11.8149,-11.8149,-11.8149,-11.8149,-11.8149,-11.8149,-11.8149,-11.8149,-11.8149,-11.8149,-11.8149,-11.8149,-11.8149,-11.8149,-11.8149,-11.8149,-11.8149,-11.8149,-11.8149,-11.8149,-11.8298,-11.8523,-11.8867,-11.9189,-11.9544,-11.9868,-11.9948,-11.9971,-11.9971,-11.9971,-11.9888,-11.9868,-11.9409,-11.9094,-11.9017,-11.9092,-11.9179,-11.9166,-11.928,-11.9062,-11.8186,-11.6605,-11.4425,-11.1737,-10.5552,-10.0121,-9.5448,-8.3957,-7.7944,-7.6409,-6.266,-5.73,-8.2082,-8.3828,-8.5954,-8.9219,-8.9979,-8.9979,-8.9979,-8.9979,-8.9979,-8.9979,-9.0054,-9.013,-9.013,-9.1497,-9.4231,-9.9014,-10.114,-10.2811,-10.4481,-10.4709,-10.3494,-10.0305,-9.9999,-10.0681,-10.2276,-10.376,-10.5349,-10.7275,-10.7307,-10.7871,-10.9516,-10.9367,-10.9923,-11.1525,-11.32,-11.4694,-11.601,-11.77,-11.8448,-11.8149,-11.8149,-11.8149,-11.8149,-11.8149,-11.8149,-11.8149,-11.8149,-11.8149,-11.8149,-11.8149,-11.8149,-11.8149,-11.8149,-11.8149,-11.8149,-11.8149,-11.8149,-11.8149,-11.8149,-11.8149,-11.8149,-11.8149,-11.8149,-11.8149,-11.8149,-11.8149,-11.8149,-11.8149,-11.8149,-11.8149,-11.8149,-11.8149,-11.8149,-11.8149,-11.8149,-11.8149,-11.8149,-11.8149,-11.8149,-11.8149,-11.8224,-11.8224,-11.8224,-11.8744,-11.9341,-11.9885,-11.9906,-11.9971,-11.9971,-11.9971,-11.9868,-11.9551,-11.9335,-11.9049,-11.8657,-11.8942,-11.9179,-11.9166,-11.9166,-11.9141,-11.9117,-11.6767,-11.4083,-11.1095,-10.5213,-9.9473,-9.3768,-8.3489,-7.7944,-7.6409,-6.266,-5.73,-8.436,-8.5347,-8.5726,-8.9143,-8.9979,-8.9979,-8.9979,-8.9979,-8.9979,-8.9979,-9.1725,-9.3244,-9.3244,-9.5446,-9.7875,-9.9622,-10.0381,-10.0989,-10.1672,-10.1748,-10.1292,-10.0077,-9.9926,-10.0609,-10.2279,-10.387,-10.5585,-10.7367,-10.8422,-10.9163,-10.9599,-10.9516,-11.017,-11.151,-11.2189,-11.3771,-11.6364,-11.6994,-11.785,-11.8792,-11.8792,-11.8672,-11.8448,-11.8448,-11.8448,-11.8448,-11.8448,-11.8523,-11.8792,-11.8523,-11.8448,-11.8373,-11.8224,-11.8149,-11.8149,-11.8149,-11.8149,-11.8149,-11.8149,-11.8149,-11.8149,-11.8149,-11.8149,-11.8149,-11.8149,-11.8298,-11.8448,-11.8448,-11.8448,-11.8448,-11.8448,-11.8298,-11.8149,-11.8149,-11.8149,-11.8149,-11.8149,-11.8149,-11.8149,-11.8149,-11.8149,-11.8224,-11.8373,-11.8644,-11.899,-11.9586,-11.9793,-11.9971,-11.9971,-11.9971,-11.9881,-11.9778,-11.9531,-11.9365,-11.9211,-11.9316,-11.9437,-11.9434,-11.9384,-11.9336,-11.918,-11.6958,-11.4227,-11.1112,-10.5281,-9.9536,-9.3768,-8.3489,-7.7618,-7.5741,-6.4311,-5.852,-8.2385,-8.3676,-8.4663,-8.6865,-8.8764,-8.9979,-8.9979,-8.9979,-8.9979,-8.9979,-9.1801,-9.3395,-9.3395,-9.6053,-9.8255,-9.8255,-9.9166,-9.9926,-9.9926,-9.9926,-9.9926,-9.9926,-9.9926,-10.0609,-10.2279,-10.395,-10.5696,-10.7367,-10.9037,-10.9965,-10.9797,-10.9742,-11.0175,-11.1017,-11.1623,-11.2921,-11.5038,-11.5604,-11.6411,-11.749,-11.749,-11.734,-11.7077,-11.7085,-11.7401,-11.7924,-11.7935,-11.8392,-11.9143,-11.87,-11.8523,-11.8523,-11.8298,-11.8149,-11.8149,-11.8149,-11.8149,-11.8224,-11.8298,-11.8224,-11.8149,-11.8149,-11.8149,-11.8224,-11.8298,-11.8448,-11.8613,-11.869,-11.8678,-11.8523,-11.8523,-11.8373,-11.8149,-11.8149,-11.8149,-11.8149,-11.8149,-11.8149,-11.8149,-11.8149,-11.8149,-11.8224,-11.8373,-11.8597,-11.8942,-11.9391,-11.9717,-11.9971,-11.9971,-11.9971,-11.9971,-11.9971,-11.9692,-11.954,-11.954,-11.9517,-11.9559,-11.9515,-11.9493,-11.9358,-11.9181,-11.6905,-11.4227,-11.1112,-10.5349,-9.9346,-9.3132,-8.4412,-7.8371,-7.4789,-6.6253,-6.0257,-7.6235,-7.8741,-8.2309,-8.2309,-8.6106,-8.9751,-8.9751,-8.9827,-8.9903,-8.9979,-8.9979,-8.9979,-8.9979,-9.2712,-9.499,-9.499,-9.7724,-9.985,-9.985,-9.985,-9.9926,-9.9926,-9.9926,-10.0609,-10.2279,-10.395,-10.562,-10.7291,-10.8961,-10.9948,-10.9948,-11.0024,-11.0024,-11.0024,-11.1619,-11.2349,-11.1974,-11.3618,-11.4335,-11.4122,-11.4122,-11.41,-11.4128,-11.4109,-11.5038,-11.6561,-11.6588,-11.7548,-11.9114,-11.8729,-11.8597,-11.8523,-11.8298,-11.8224,-11.8224,-11.8224,-11.8269,-11.8194,-11.8493,-11.8373,-11.8224,-11.8224,-11.8224,-11.8224,-11.8523,-11.8613,-11.8644,-11.9088,-11.8904,-11.8568,-11.8568,-11.8373,-11.8149,-11.8149,-11.8149,-11.8149,-11.8149,-11.8149,-11.8149,-11.8149,-11.8149,-11.8149,-11.8224,-11.8718,-11.9092,-11.9181,-11.9585,-11.9971,-11.9971,-11.9971,-11.9971,-11.9971,-11.967,-11.9555,-11.9555,-11.9563,-11.9516,-11.9516,-11.9262,-11.9125,-11.9137,-11.6763,-11.401,-11.1024,-10.5349,-9.9045,-9.2088,-8.6036,-7.9951,-7.375,-6.7996,-6.2353,-8.1854,-8.1474,-8.0715,-8.0715,-8.2613,-8.4511,-8.4511,-8.5423,-8.7017,-8.9523,-8.9979,-8.9979,-8.9979,-9.1801,-9.3244,-9.3244,-9.6053,-9.8255,-9.8255,-9.9166,-9.9926,-9.9926,-9.9926,-10.0609,-10.2279,-10.2887,-10.3874,-10.5544,-10.7215,-10.8202,-10.8202,-10.9341,-11.0024,-11.0024,-11.048,-11.1222,-11.2388,-11.2843,-11.3647,-11.4769,-11.4769,-11.4814,-11.4784,-11.4528,-11.4621,-11.5131,-11.634,-11.728,-11.7934,-11.8911,-11.9316,-11.9241,-11.8672,-11.8448,-11.8448,-11.8792,-11.8917,-11.8914,-11.8978,-11.8942,-11.8867,-11.8867,-11.8867,-11.8942,-11.9017,-11.9095,-11.9277,-11.9171,-11.9096,-11.8926,-11.8669,-11.8373,-11.8149,-11.8149,-11.8149,-11.8149,-11.8149,-11.8149,-11.8149,-11.8149,-11.8149,-11.8224,-11.8448,-11.8597,-11.8955,-11.9369,-11.9721,-11.9971,-11.9971,-11.9971,-11.9971,-11.9971,-11.9847,-11.9833,-11.9833,-11.9801,-11.9744,-11.9592,-11.9262,-11.8748,-11.782,-11.626,-11.3709,-11.0091,-10.4902,-9.8982,-9.2088,-8.5317,-7.8837,-7.3027,-6.9061,-6.3073,-7.8361,-7.6311,-7.3957,-7.464,-7.5476,-7.7298,-8.1474,-8.2158,-8.2993,-8.7017,-8.846,-8.8915,-8.8915,-9.089,-9.256,-9.256,-9.4762,-9.6509,-9.6509,-9.7875,-9.8938,-9.8938,-9.8331,-9.8559,-10.0229,-10.0989,-10.2128,-10.3798,-10.5469,-10.6456,-10.6456,-10.805,-10.8961,-10.8961,-10.9645,-11.048,-11.1467,-11.1467,-11.1999,-11.2986,-11.2986,-11.2984,-11.2945,-11.2718,-11.2652,-11.2758,-11.4428,-11.6023,-11.7461,-11.8184,-11.8942,-11.9511,-11.8992,-11.88,-11.8657,-11.7601,-11.7127,-11.7025,-11.7021,-11.7526,-11.8127,-11.7941,-11.8504,-11.9212,-11.9258,-11.9364,-11.9395,-11.9343,-11.9154,-11.887,-11.8626,-11.8373,-11.8149,-11.8149,-11.8149,-11.8149,-11.8149,-11.8149,-11.8224,-11.8298,-11.8298,-11.8448,-11.8792,-11.8911,-11.8693,-11.7838,-11.7769,-11.7921,-11.7921,-11.8453,-11.8908,-11.8908,-11.9516,-11.9971,-11.9971,-11.9715,-11.9551,-11.9516,-11.9147,-11.8428,-11.7251,-11.5512,-11.3008,-10.9647,-10.4198,-9.8057,-9.1503,-8.6111,-7.9241,-7.1464,-7.0044,-6.3851,-6.9319,-6.6666,-6.4617,-6.5756,-6.6212,-6.8718,0.0,-7.783,-7.7298,-8.2234,-8.4739,-8.6106,-8.6334,-8.9295,-9.1725,-9.1953,-9.3544,-9.4754,-9.4762,-9.6205,-9.7268,-9.704,-9.5825,-9.5673,-9.7116,-9.8559,-10.0077,-10.1748,-10.3418,-10.4481,-10.4709,-10.6304,-10.7215,-10.7215,-10.8885,-10.9721,-10.9721,-10.9948,-11.0024,-11.0024,-11.0024,-11.0024,-11.0024,-11.0024,-11.0024,-11.01,-11.1619,-11.3973,-11.6854,-11.6861,-11.771,-11.899,-11.8748,-11.8625,-11.8391,-11.5554,-11.4435,-11.4207,-11.4207,-11.5181,-11.6447,-11.6195,-11.7299,-11.8788,-11.897,-11.8903,-11.8725,-11.8935,-11.8537,-11.8074,-11.8074,-11.7924,-11.7775,-11.7999,-11.7999,-11.7999,-11.8224,-11.8224,-11.8224,-11.8298,-11.8357,-11.8411,-11.861,-11.8846,-11.8073,-11.5491,-11.5112,-11.5112,-11.5112,-11.6251,-11.7162,-11.7162,-11.8529,-11.9363,-11.9346,-11.8838,-11.8788,-11.9184,-11.8567,-11.7804,-11.7019,-11.4575,-11.1873,-10.9246,-10.3217,-9.6906,-9.0291,-8.7229,-8.0451,-6.977,-7.0639,-6.4478,0.0,0.0,0.0,0.0,0.0,0.0,0.0,-6.4997,-6.6895,-7.1831,-7.5324,-7.7905,-7.9196,-8.3297,-8.6865,-8.8232,-9.1061,-9.3004,-9.301,-9.4458,-9.5066,-9.3699,-9.4458,-9.5218,-9.5522,-9.5825,-9.6736,-9.8407,-10.0001,-10.152,-10.2887,-10.4557,-10.5469,-10.5469,-10.7139,-10.7974,-10.7974,-10.9341,-11.0024,-11.0024,-11.0024,-11.0024,-11.0024,-11.0024,-11.0024,-11.0024,-11.0404,-11.1619,-11.3593,-11.4921,-11.5649,-11.5913,-11.5515,-11.5635,-11.5809,-11.5183,-11.4957,-11.4866,-11.4866,-11.5079,-11.5339,-11.5346,-11.5545,-11.5858,-11.5946,-11.5934,-11.5801,-11.5504,-11.5339,-11.5217,-11.4993,-11.4918,-11.5217,-11.6608,-11.6683,-11.6907,-11.8597,-11.8718,-11.8224,-11.7206,-11.7035,-11.667,-11.5609,-11.5478,-11.5415,-11.5112,-11.5112,-11.5112,-11.5112,-11.534,-11.5491,-11.5491,-11.5795,-11.5858,-11.5565,-11.5285,-11.559,-11.6844,-11.6088,-11.5655,-11.5807,-11.3471,-11.0302,-10.6327,-10.2128,-9.616,-8.814,-8.6027,-7.9697,-6.977,-6.9944,-6.3568,0.0,0.0,0.0,0.0,0.0,0.0,0.0,0.0,0.0,0.0,0.0,-7.0236,-7.1072,0.0,-8.1398,-8.2385,-8.6669,-8.9937,-9.0017,-9.2172,-9.3123,-9.1242,-9.1897,-9.2864,-9.3699,-9.3775,-9.4458,-9.6205,-9.7799,-9.909,-10.0001,-10.2355,-10.3722,-10.3722,-10.5393,-10.6228,-10.6228,-10.7898,-10.8734,-10.8809,-10.9645,-11.0024,-11.0024,-11.0024,-11.0024,-11.0024,-11.0024,-11.048,-11.1391,-11.3138,-11.4352,-11.4882,-11.303,-11.2363,-11.253,-11.253,-11.253,-11.2526,-11.2365,-11.2955,-11.3811,-11.3652,-11.4277,-11.5112,-11.5112,-11.4857,-11.4533,-11.4359,-11.407,-11.3917,-11.3768,-11.3799,-11.4148,-11.5011,-11.5084,-11.5385,-11.6442,-11.6434,-11.6182,-11.564,-11.5547,-11.5421,-11.4883,-11.3365,-11.2302,-11.253,-11.253,-11.253,-11.253,-11.3289,-11.3517,-11.2682,-11.2409,-11.2542,-11.2965,-11.2233,-11.2556,-11.4646,-11.3912,-11.3014,-11.2112,-10.981,-10.6855,-10.3242,-9.8527,-9.3312,-8.7556,-8.284,-7.6623,-6.9076,-6.239,-5.4606,0.0,0.0,0.0,0.0,0.0,0.0,0.0,0.0,0.0,0.0,0.0,0.0,0.0,0.0,0.0,-7.6807,-8.2215,-8.6472,-8.7232,-8.9482,-9.0582,-8.9311,-8.9684,-9.051,-9.1877,-9.2029,-9.2712,-9.4458,-9.5825,-9.6736,-9.704,-9.9926,-10.152,-10.152,-10.3418,-10.4481,-10.4481,-10.6152,-10.6987,-10.7063,-10.8354,0.0,-10.9037,-10.9037,-10.9037,-10.9037,-10.9417,-10.9569,-10.9645,-11.1391,-11.2834,-11.3745,-11.0404,-10.9037,-10.9037,-10.8961,-10.8952,-10.8933,-10.8761,-10.9745,-11.1087,-11.1239,-11.2302,-11.3669,-11.3973,-11.3752,0.0,-11.3324,-11.3014,-11.269,-11.269,-11.2834,-11.3078,-11.3424,-11.3601,-11.3815,-11.4142,-11.4201,-11.4108,-11.4046,-11.4111,-11.4125,-11.4125,-11.183,-10.9835,-10.9568,-10.9797,-10.9873,-10.9569,-11.1011,-11.1543,-11.01,-10.9757,-11.0005,-11.0932,-10.933,-10.9339,-11.2167,-11.141,-10.979,-10.7468,-10.4968,-10.2116,-9.8787,-9.3365,-8.8808,-8.5427,-7.8511,-7.2333,-6.6193,-5.1961,-4.2976,0.0,0.0,0.0,0.0,0.0,0.0,0.0,0.0,0.0,0.0,0.0,0.0,0.0,0.0,0.0,0.0,-7.9195,-8.354,-8.6507,-8.6188,-8.6137,-8.7371,-8.8965,-9.0054,-9.0282,-9.0282,-9.0966,-9.2712,-9.3016,-9.3775,-9.5294,-9.7116,0.0,0.0,0.0,-10.2735,-10.2735,-10.4405,-10.5241,-10.5241,-10.5469,-10.5544,-10.5544,-10.5544,-10.5544,-10.562,-10.7139,-10.7822,-10.7898,-10.9645,-11.0404,-11.0252,-10.6835,-10.5544,-10.5544,-10.5241,-10.5196,-10.517,-10.5183,0.0,0.0,-10.7519,-10.8202,-10.8658,-11.01,-11.0555,-11.0497,-11.0481,-11.0463,-11.0414,-11.0414,-11.0422,-11.0833,-11.2301,-11.2466,-11.2607,-11.4102,-11.4491,-11.4046,-11.2697,-11.2635,-11.2302,-11.086,-11.008,-10.9233,-10.7962,-10.9037,-10.9493,-10.7974,-10.9265,-11.01,-10.9721,-10.9642,0.0,-10.9076,-10.619,-10.5695,-10.8652,-10.7414,-10.5491,-10.2873,-9.9762,-9.5827,-9.0992,-8.6756,-8.261,-7.8404,-7.2782,-6.6537,-5.9079,-4.1052,-3.1692,0.0,0.0,0.0,0.0,0.0,0.0,0.0,0.0,0.0,0.0,0.0,0.0,0.0,0.0,0.0,0.0,-7.1772,-7.6539,-7.7998,-8.0253,-8.2436,-8.4114,-8.6836,-8.8536,-8.8536,-8.9447,-9.0282,-9.1042,-9.1953,-9.2864,-9.3547,-9.5218,-9.6129,-9.6129,-9.742,-9.8635,-9.9622,-10.1216,-10.2507,-10.3494,-10.4481,-10.4937,-10.4937,-10.4937,-10.4937,-10.5013,-10.5696,-10.6,-10.6076,-10.6759,-10.7063,-10.6987,0.0,0.0,0.0,0.0,-10.4805,-10.4806,-10.4799,-10.4856,-10.5089,-10.5772,-10.6,-10.6152,-10.6835,-10.694,-10.6828,-10.6832,-10.6718,-10.6659,-10.6659,-10.7507,-10.8531,-10.9259,-11.0082,-11.1017,-11.1764,-11.1921,-11.1657,-11.1067,-11.0876,0.0,-11.0114,-10.9929,-10.962,-10.9035,-10.9569,-10.9797,-10.9037,-10.9569,-10.9569,-10.8278,-10.636,-10.5745,-10.7203,-10.4091,0.0,0.0,0.0,-10.6429,-10.434,-10.2218,0.0,0.0,0.0,-7.6598,-7.1619,-6.0677,0.0,0.0,-2.7344,-2.0512,0.0,0.0,0.0,0.0,0.0,0.0,0.0,0.0,0.0,0.0,0.0,0.0,0.0,0.0,0.0,0.0,-6.4282,-6.9072,-6.8589,-7.3421,-7.7396,-7.866,-8.3145,-8.5726,-8.4815,-8.7093,-8.8764,-8.9295,-9.0434,-9.1345,-9.1801,-9.3471,-9.4383,-9.4383,-9.4838,-9.5673,-9.6888,-9.8027,-9.9166,-10.0381,-10.1672,-10.2507,-10.2963,-10.2963,-10.3191,-10.357,-10.4102,-10.4254,-10.433,-10.4785,-10.4937,-10.4785,-10.2963,-10.226,-10.2191,-10.2142,-10.2112,-10.214,-10.2125,-10.2416,-10.2892,-10.3414,-10.3874,-10.433,-10.4861,-10.4817,-10.4717,-10.4717,-10.456,-10.4409,-10.4409,-10.5488,-10.6532,-10.6532,-10.7595,-10.8653,-10.8564,-10.8601,-10.8767,-10.9173,-10.8696,-10.8349,-10.8583,-10.8559,-10.8354,-10.7974,-10.8354,-10.843,-10.7974,-10.8278,-10.7972,-10.643,-10.3986,-10.3233,-10.5321,-10.2256,-10.2146,-10.6633,-10.6483,-10.5955,-10.531,-10.2816,-9.8968,-9.3528,-8.214,-7.2729,0.0,0.0,0.0,0.0,0.0,0.0,0.0,0.0,0.0,0.0,0.0,0.0,0.0,0.0,0.0,0.0,0.0,0.0,0.0,0.0,0.0,0.0,0.0,0.0,-6.0298,-6.5859,-7.0084,-7.016,-7.7526,-8.1322,-7.8209,-8.2234,-8.5802,-8.7397,-8.7625,-8.8384,-8.9979,-9.1725,-9.2636,-9.2636,-9.4231,-9.5066,-9.5142,-9.5218,-9.5218,-9.5294,-9.537,-9.6205,-9.7799,-9.7799,-9.8635,-10.0153,-10.1824,-10.2507,-10.2659,-10.4254,-10.4937,-10.433,-9.7875,-9.535,-9.5342,-9.5043,-9.5005,-9.4995,-9.4984,-9.6046,-9.7734,-9.9493,-10.114,-10.2811,-10.4481,-10.4937,-10.4935,-10.4935,-10.4936,-10.4937,-10.4937,-10.5013,-10.5013,-10.5013,-10.5089,-10.5033,-10.4801,-10.4936,-10.5543,-10.6911,-10.5836,-10.4818,-10.5053,-10.4937,-10.4254,-10.2887,-10.4102,0.0,-10.2887,-10.3874,-10.4608,-10.4274,-10.3959,-10.3717,-10.3492,-10.0501,-10.0053,-10.3343,-10.2072,-10.1818,-10.3415,-9.8419,-9.4645,-9.2755,-8.2958,-7.2081,-6.0304,0.0,0.0,0.0,0.0,0.0,0.0,0.0,0.0,0.0,0.0,0.0,0.0,0.0,0.0,0.0,0.0,0.0,0.0,0.0,0.0,0.0,0.0,0.0,0.0,-6.2614,-6.7807,-6.6668,-7.2059,-7.4564,-7.1148,-7.54,-7.9044,-8.0791,-8.2917,-8.4891,-8.6562,-8.8232,-8.9219,-8.9219,-9.0814,-9.2256,-9.3395,-9.3395,-9.3927,-9.5066,-9.5066,-9.537,-9.5901,-9.5901,-9.6205,-9.6736,-9.7268,-9.7572,-9.7572,-9.8179,-9.8407,-9.8179,-9.5901,-9.4957,-9.4787,-9.4718,-9.4582,-9.4425,-9.438,-9.4869,-9.566,-9.645,-9.704,-9.7648,-9.8255,-9.8407,-9.8407,-9.8407,-9.8407,-9.8407,-9.8407,-9.9242,-10.0305,-10.1368,-10.2507,-10.3564,-10.4642,-10.4895,-10.5089,-10.562,-10.3439,-10.0103,-9.5822,-10.0533,-10.2811,-9.6812,-10.1064,-10.4709,-10.395,-10.4254,-10.441,-10.4009,-10.2823,-10.2485,-10.3343,-10.1399,-10.1025,-10.3268,-10.2413,-10.1456,-10.0616,-9.829,-9.5747,-9.2922,-8.7271,-7.6881,-6.139,0.0,0.0,0.0,0.0,0.0,0.0,0.0,0.0,0.0,0.0,0.0,0.0,0.0,0.0,0.0,0.0,0.0,0.0,0.0,0.0,0.0,0.0,0.0,0.0,0.0,0.0,-6.3403,-6.7655,0.0,-6.5225,-6.8338,-7.1299,-7.297,-7.502,-7.7678,-8.1246,-8.2993,-8.4511,-8.565,-8.7321,-8.8991,-9.0662,-9.0738,-9.1573,-9.3244,-9.3244,-9.3547,-9.4155,-9.4155,-9.4458,-9.5066,-9.5066,-9.5066,-9.499,-9.3775,-9.2181,-9.051,-9.051,-8.9295,-8.7697,-8.8853,-8.954,-8.9993,-9.1233,-9.2166,-9.297,-9.3786,-9.2864,-9.1345,-9.0738,-8.9751,-8.9219,-9.0966,-9.1877,-9.2788,-9.461,-9.5901,-9.6964,-9.7951,-9.9014,-10.0077,-10.1216,-10.1444,-10.1444,-10.1444,-9.9622,-9.5977,-8.9371,-9.3497,-9.5962,-9.0584,-9.4307,-9.8481,-10.065,-10.0807,-10.068,-10.0314,-9.9193,-9.8894,-9.9828,-9.9454,-9.9604,-10.0726,-10.1119,-10.0474,-9.8404,-9.7033,-9.4145,-8.9374,-8.4562,-7.5186,0.0,0.0,0.0,0.0,0.0,0.0,0.0,0.0,0.0,0.0,0.0,0.0,0.0,0.0,0.0,0.0,0.0,0.0,0.0,0.0,0.0,0.0,0.0,0.0,0.0,0.0,0.0,-5.9834,-6.3858,0.0,0.0,0.0,0.0,-6.4162,-6.439,-6.7351,-7.4033,-7.6007,-7.8437,-8.1854,-8.3676,-8.5423,-8.7169,-8.7321,-8.8156,-8.9751,-8.9827,-9.0662,-9.2256,-9.233,-9.3243,-9.4838,-9.4838,-9.4838,-9.4532,-9.0886,-8.6485,-8.2158,-8.1778,-7.874,-7.4923,-7.8036,-8.004,-8.1689,-8.5225,-8.7514,-8.9244,-9.0683,-8.808,-8.4056,-8.2158,-7.9424,0.0,0.0,-8.5271,-8.7777,-9.2939,-9.4306,-9.4383,-9.4838,-9.4914,-9.499,-9.5066,-9.5066,-9.4914,-9.4307,-9.4003,-9.1649,-8.4737,0.0,-8.394,-8.366,-8.4207,-8.683,-9.3091,-9.3915,-9.3884,-9.3884,-9.3696,-9.3472,-9.3472,-9.4968,-9.5865,-9.5828,-9.798,-9.8249,-9.6253,-9.3947,-8.9308,-8.215,-7.5084,0.0,0.0,0.0,0.0,0.0,0.0,0.0,0.0,0.0,0.0,0.0,0.0,0.0,0.0,0.0,0.0,0.0,0.0,0.0,0.0,0.0,0.0,0.0,0.0,0.0,0.0,-5.0039,-5.4898,-5.4443,-5.5506,-5.4822,0.0,0.0,0.0,0.0,0.0,0.0,-6.5453,-6.7275,-7.0236,-7.4868,-7.7905,-8.0791,-8.3676,-8.4967,-8.5802,-8.6258,-8.7321,-8.8156,-8.8763,-8.9846,-9.0669,-9.1269,-9.1269,-9.1334,-9.0758,-8.3429,-7.9785,-7.8437,-7.464,-7.2208,-7.1171,-7.3161,-7.3316,-7.3269,-7.7708,-7.9682,-8.0031,-7.7901,-7.7374,-7.6539,-7.1072,0.0,0.0,0.0,0.0,-7.5925,-8.2133,-8.3839,-8.5499,-9.1725,-9.3168,-9.3547,-9.4762,-9.5066,-9.2484,-8.36,-8.1854,-7.8035,-6.6264,-6.9425,0.0,-6.8577,-7.6391,-8.414,-8.7975,-9.1689,-9.3807,-9.3622,-9.3547,-9.3472,-9.3472,-9.3921,-9.3922,-9.3488,-9.2752,-9.0991,-8.782,-8.3144,-7.7592,-7.1043,0.0,0.0,0.0,0.0,0.0,0.0,0.0,0.0,0.0,0.0,0.0,0.0,0.0,0.0,0.0,0.0,0.0,0.0,0.0,0.0,0.0,0.0,0.0,0.0,0.0,0.0,0.0,-4.5787,-5.1405,-5.1405,-5.1405,-5.0039,0.0,0.0,0.0,0.0,0.0,0.0,0.0,0.0,0.0,-6.4693,-6.7427,-7.0692,-7.4716,-7.7146,-7.9044,-8.0487,-8.36,-8.5099,-8.5252,-8.6821,-8.7601,-8.77,-8.7675,-8.6051,-8.2871,-7.7333,-7.2989,-6.9476,0.0,0.0,0.0,0.0,-6.3036,-6.3532,-6.8562,-7.0409,-7.0312,-6.849,0.0,0.0,0.0,0.0,0.0,0.0,0.0,-6.929,-7.6017,-7.9463,-8.2461,-8.7928,-8.9219,-8.9447,-9.0434,-8.6562,-8.0942,-7.4167,-7.1657,-6.7282,-5.6787,-5.887,0.0,0.0,0.0,-7.7224,-8.2454,-8.808,-9.1563,-9.1378,-9.1378,-9.1378,-9.1378,-9.2051,-9.2129,-9.1492,-9.0365,-8.7242,-8.1446,-7.6251,-6.8811,0.0,0.0,0.0,0.0,0.0,0.0,0.0,0.0,0.0,0.0,0.0,0.0,0.0,0.0,0.0,0.0,0.0,0.0,0.0,0.0,0.0,0.0,0.0,0.0,0.0,0.0,0.0,0.0,0.0,-4.7533,-4.8216,0.0,0.0,0.0,0.0,0.0,0.0,0.0,0.0,0.0,0.0,0.0,0.0,0.0,-5.8467,-6.3251,-6.644,-6.9477,-7.2438,-7.7438,-7.9796,-8.0047,-8.2018,-8.3066,-8.3344,-8.1802,0.0,-7.3167,-7.0671,0.0,0.0,0.0,0.0,0.0,0.0,0.0,0.0,0.0,0.0,0.0,0.0,0.0,0.0,0.0,0.0,0.0,0.0,0.0,0.0,0.0,0.0,-8.0032,-8.2385,-8.3297,-8.3297,-8.193,-7.3651,-6.6189,-6.5263,-6.2333,-5.8034,0.0,0.0,0.0,0.0,0.0,0.0,-7.6751,-8.4125,-8.8612,-8.8612,-8.8612,-8.8612,-8.8612,-8.9887,-9.0299,-8.9374,-8.8043,-8.3679,-7.561,-7.0446,0.0,0.0,0.0,0.0,0.0,0.0,0.0,0.0,0.0,0.0,0.0,0.0,0.0,0.0,0.0,0.0,0.0,0.0,0.0,0.0,0.0,0.0,0.0,0.0,0.0,0.0,0.0,0.0,0.0,0.0,0.0,0.0,0.0,0.0,0.0,0.0,0.0,0.0,0.0,0.0,0.0,0.0,0.0,0.0,0.0,0.0,0.0,0.0,0.0,0.0,-6.4027,-6.651,-6.8003,-7.0917,-7.3762,-7.5898,-6.6131,-6.371,-6.5854,-5.872,0.0,0.0,0.0,0.0,0.0,0.0,0.0,0.0,0.0,0.0,0.0,0.0,0.0,0.0,0.0,0.0,0.0,0.0,0.0,0.0,0.0,0.0,-6.5377,-7.1224,-7.4716,-7.4489,-6.6212,0.0,0.0,0.0,0.0,0.0,0.0,0.0,0.0,0.0,0.0,0.0,-7.1787,-8.1956,-8.8612,-8.8612,-8.8612,-8.8612,-8.8612,-8.8399,-8.7538,-8.5964,-7.8243,-7.1585,0.0,0.0,0.0,0.0,0.0,0.0,0.0,0.0,0.0,0.0,0.0,0.0,0.0,0.0,0.0,0.0,0.0,0.0,0.0,0.0,0.0,0.0,0.0,0.0,0.0,0.0,0.0,0.0,0.0,0.0,0.0,0.0,0.0,0.0,0.0,0.0,0.0,0.0,0.0,0.0,0.0,0.0,0.0,0.0,0.0,0.0,0.0,0.0,0.0,0.0,0.0,0.0,0.0,0.0,0.0,0.0,0.0,0.0,-5.694,-5.2079,0.0,0.0,0.0,0.0,0.0,0.0,0.0,0.0,0.0,0.0,0.0,0.0,0.0,0.0,0.0,0.0,0.0,0.0,0.0,0.0,0.0,0.0,0.0,0.0,0.0,0.0,0.0,0.0,0.0,0.0,0.0,0.0,0.0,0.0,0.0,0.0,0.0,0.0,0.0,0.0,-6.9319,-8.0236,-8.7639,-8.8537,-8.8612,-8.8543,-8.8175,-8.7864,-8.5464,-8.0215,-7.3528,0.0,0.0,0.0,0.0,0.0,0.0,0.0,0.0,0.0,0.0,0.0,0.0,0.0,0.0,0.0,0.0,0.0,0.0,0.0,0.0,0.0,0.0,0.0,0.0,0.0,0.0,0.0,0.0,0.0,0.0,0.0,0.0,0.0,0.0,0.0,0.0,0.0,0.0,0.0,0.0,0.0,0.0,0.0,0.0,0.0,0.0,0.0,0.0,0.0,0.0,0.0,0.0,0.0,0.0,0.0,0.0,0.0,0.0,0.0,-4.8014,-4.2308,0.0,0.0,0.0,0.0,0.0,0.0,0.0,0.0,0.0,0.0,0.0,0.0,0.0,0.0,0.0,0.0,0.0,0.0,0.0,0.0,0.0,0.0,0.0,0.0,0.0,0.0,0.0,0.0,0.0,0.0,0.0,0.0,0.0,0.0,0.0,0.0,0.0,0.0,0.0,0.0,-6.7599,-7.8816,-8.6593,-8.7939,-8.8318,-8.8251,-8.774,-8.7197,-8.3267,-7.4697,-6.9126,0.0,0.0,0.0,0.0,0.0,0.0,0.0,0.0,0.0,0.0,0.0,0.0,0.0,0.0,0.0,0.0,0.0,0.0,0.0,0.0,0.0,0.0,0.0,0.0,0.0,0.0,0.0,0.0,0.0,0.0,0.0,0.0,0.0,0.0,0.0,0.0,0.0,0.0,0.0,0.0,0.0,0.0,0.0,0.0,0.0,0.0,0.0,0.0,0.0,0.0,0.0,0.0,0.0,0.0,0.0,0.0,0.0,0.0,0.0,0.0,0.0,0.0,0.0,0.0,0.0,0.0,0.0,0.0,0.0,0.0,0.0,0.0,0.0,0.0,0.0,0.0,0.0,0.0,0.0,0.0,0.0,0.0,0.0,0.0,0.0,0.0,0.0,0.0,0.0,0.0,0.0,0.0,0.0,0.0,0.0,0.0,0.0,0.0,0.0,0.0,0.0,-6.5879,-7.8068,-8.6144,-8.6293,-8.7169,-8.774,-8.7697,-8.5635,-8.0485,-7.1395,0.0,0.0,0.0,0.0,0.0,0.0,0.0,0.0,0.0,0.0,0.0,0.0,0.0,0.0,0.0,0.0,0.0,0.0,0.0,0.0,0.0,0.0,0.0,0.0,0.0,0.0,0.0,0.0,0.0,0.0,0.0,0.0,0.0,0.0,0.0,0.0,0.0,0.0,0.0,0.0,0.0,0.0,0.0,0.0,0.0,0.0,0.0,0.0,0.0,0.0,0.0,0.0,0.0,0.0,0.0,0.0,0.0,0.0,0.0,0.0,0.0,0.0,0.0,0.0,0.0,0.0,0.0,0.0,0.0,0.0,0.0,0.0,0.0,0.0,0.0,0.0,0.0,0.0,0.0,0.0,0.0,0.0,0.0,0.0,0.0,0.0,0.0,0.0,0.0,0.0,0.0,0.0,0.0,0.0,0.0,0.0,0.0,0.0,0.0,0.0,0.0,0.0,-6.5505,-7.7171,-8.4922,-8.5419,-8.6783,-8.7316,-8.6465,-8.4143,-7.7829,-6.6453,0.0,0.0,0.0,0.0,0.0,0.0,0.0,0.0,0.0,0.0,0.0,0.0,0.0,0.0,0.0,0.0,0.0,0.0,0.0,0.0,0.0,0.0,0.0,0.0,0.0,0.0,0.0,0.0,0.0,0.0,0.0,0.0,0.0,0.0,0.0,0.0,0.0,0.0,0.0,0.0,0.0,0.0,0.0,0.0,0.0,0.0,0.0,0.0,0.0,0.0,0.0,0.0,0.0,0.0,0.0,0.0,0.0,0.0,0.0,0.0,0.0,0.0,0.0,0.0,0.0,0.0,0.0,0.0,0.0,0.0,0.0,0.0,0.0,0.0,0.0,0.0,0.0,0.0,0.0,0.0,0.0,0.0,0.0,0.0,0.0,0.0,0.0,0.0,0.0,0.0,0.0,0.0,0.0,0.0,0.0,0.0,0.0,0.0,0.0,0.0,0.0,0.0,-6.4757,-7.5899,-8.3401,-8.4328,-8.5749,-8.6352,-8.5641,-8.2756,-7.5343,-6.2036,0.0,0.0,0.0,0.0,0.0,0.0,0.0,0.0,0.0,0.0,0.0,0.0,0.0,0.0,0.0,0.0,0.0,0.0,0.0,0.0,0.0,0.0,0.0,0.0,0.0,0.0,0.0,0.0,0.0,0.0,0.0,0.0,0.0,0.0,0.0,0.0,0.0,0.0,0.0,0.0,0.0,0.0,0.0,0.0,0.0,0.0,0.0,0.0,0.0,0.0,0.0,0.0,0.0,0.0,0.0,0.0,0.0,0.0,0.0,0.0,0.0,0.0,0.0,0.0,0.0,0.0,0.0,0.0,0.0,0.0,0.0,0.0,0.0,0.0,0.0,0.0,0.0,0.0,0.0,0.0,0.0,0.0,0.0,0.0,0.0,0.0,0.0,0.0,0.0,0.0,0.0,0.0,0.0,0.0,0.0,0.0,0.0,0.0,0.0,0.0,0.0,0.0,-6.3112,-7.4105,-8.1611,-8.2548,-8.3576,-8.4554,-8.5438,-8.1597,-7.305,0.0,0.0,0.0,0.0,0.0,0.0,0.0,0.0,0.0,0.0,0.0,0.0,0.0,0.0,0.0,0.0,0.0,0.0,0.0,0.0,0.0,0.0,0.0,0.0,0.0,0.0,0.0,0.0,0.0,0.0,0.0,0.0,0.0,0.0,0.0,0.0,0.0,0.0,0.0,0.0,0.0,0.0,0.0,0.0,0.0,0.0,0.0,0.0,0.0,0.0,0.0,0.0,0.0,0.0,0.0,0.0,0.0,0.0,0.0,0.0,0.0,0.0,0.0,0.0,0.0,0.0,0.0,0.0,0.0,0.0,0.0,0.0,0.0,0.0,0.0,0.0,0.0,0.0,0.0,0.0,0.0,0.0,0.0,0.0,0.0,0.0,0.0,0.0,0.0,0.0,0.0,0.0,0.0,0.0,0.0,0.0,0.0,0.0,0.0,0.0,0.0,0.0,0.0,-6.107,-6.9468,-7.5962,-7.9895,-8.1726,-8.2302,-8.1702,-7.8218,-7.0778,-5.8449,0.0,0.0,0.0,0.0,0.0,0.0,0.0,0.0,0.0,0.0,0.0,0.0,0.0,0.0,0.0,0.0,0.0,0.0,0.0,0.0,0.0,0.0,0.0,0.0,0.0,0.0,0.0,0.0,0.0,0.0,0.0,0.0,0.0,0.0,0.0,0.0,0.0,0.0,0.0,0.0,0.0,0.0,0.0,0.0,0.0,0.0,0.0,0.0,0.0,0.0,0.0,0.0,0.0,0.0,0.0,0.0,0.0,0.0,0.0,0.0,0.0,0.0,0.0,0.0,0.0,0.0,0.0,0.0,0.0,0.0,0.0,0.0,0.0,0.0,0.0,0.0,0.0,0.0,0.0,0.0,0.0,0.0,0.0,0.0,0.0,0.0,0.0,0.0,0.0,0.0,0.0,0.0,0.0,0.0,0.0,0.0,0.0,0.0,0.0,0.0,0.0,0.0,0.0,-6.8294,-7.4779,-7.8891,-8.0264,-8.0594,-7.9969,-7.6675,-6.9754,-5.8313,0.0,0.0,0.0,0.0,0.0,0.0,0.0,0.0,0.0,0.0,0.0,0.0,0.0,0.0,0.0,0.0,0.0,0.0,0.0,0.0,0.0,0.0,0.0,0.0,0.0,0.0,0.0,0.0,0.0,0.0,0.0,0.0,0.0,0.0,0.0,0.0,0.0,0.0,0.0,0.0,0.0,0.0,0.0,0.0,0.0,0.0,0.0,0.0,0.0,0.0,0.0,0.0,0.0,0.0,0.0,0.0,0.0,0.0,0.0,0.0,0.0,0.0,0.0,0.0,0.0,0.0,0.0,0.0,0.0,0.0,0.0,0.0,0.0,0.0,0.0,0.0,0.0,0.0,0.0,0.0,0.0,0.0,0.0,0.0,0.0,0.0,0.0,0.0,0.0,0.0,0.0,0.0,0.0,0.0,0.0,0.0,0.0,0.0,0.0,0.0,0.0,0.0,0.0,-6.9601,-7.6456,-7.8891,-7.9118,-7.9233,-7.954,-7.6395,-6.9617,-5.818,-4.9453,0.0,0.0,0.0,0.0,0.0,0.0,0.0,0.0,0.0,0.0,0.0,0.0,0.0,0.0,0.0,0.0,0.0,0.0,0.0,0.0,0.0,0.0,0.0,0.0,0.0,0.0,0.0,0.0,0.0,0.0,0.0,0.0,0.0,0.0,0.0,0.0,0.0,0.0,0.0,0.0,0.0,0.0,0.0,0.0,0.0,0.0,0.0,0.0,0.0,0.0,0.0,0.0,0.0,0.0,0.0,0.0,0.0,0.0,0.0,0.0,0.0,0.0,0.0,0.0,0.0,0.0,0.0,0.0,0.0,0.0,0.0,0.0,0.0,0.0,0.0,0.0,0.0,0.0,0.0,0.0,0.0,0.0,0.0,0.0,0.0,0.0,0.0,0.0,0.0,0.0,0.0,0.0,0.0,0.0,0.0,0.0,0.0,0.0,0.0,0.0,0.0,0.0,-6.5524,-7.0023,-7.6791,-7.7102,-7.6656,-7.6336,-7.4229,-6.8258,-5.7321,-4.9749,0.0,0.0,0.0,0.0,0.0,0.0,0.0,0.0,0.0,0.0,0.0,0.0,0.0,0.0,0.0,0.0,0.0,0.0,0.0,0.0,0.0,0.0,0.0,0.0,0.0,0.0,0.0,0.0,0.0,0.0,0.0,0.0,0.0,0.0,0.0,0.0,0.0,0.0,0.0,0.0,0.0,0.0,0.0,0.0,0.0,0.0,0.0,0.0,0.0,0.0,0.0,0.0,0.0,0.0,0.0,0.0,0.0,0.0,0.0,0.0,0.0,0.0,0.0,0.0,0.0,0.0,0.0,0.0,0.0,0.0,0.0,0.0,0.0,0.0,0.0,0.0,0.0,0.0,0.0,0.0,0.0,0.0,0.0,0.0,0.0,0.0,0.0,0.0,0.0,0.0,0.0,0.0,0.0,0.0,0.0,0.0,0.0,0.0,0.0,0.0,0.0,0.0,-5.7062,-6.3395,-7.4257,-7.5786,-7.5772,-7.5265,-7.346,-6.7778,-5.7249,-5.0249,0.0,0.0,0.0,0.0,0.0,0.0,0.0,0.0,0.0,0.0,0.0,0.0,0.0,0.0,0.0,0.0,0.0,0.0,0.0,0.0,0.0,0.0,0.0,0.0,0.0,0.0,0.0,0.0,0.0,0.0,0.0,0.0,0.0,0.0,0.0,0.0,0.0,0.0,0.0,0.0,0.0,0.0,0.0,0.0,0.0,0.0,0.0,0.0,0.0,0.0,0.0,0.0,0.0,0.0,0.0,0.0,0.0,0.0,0.0,0.0,0.0,0.0,0.0,0.0,0.0,0.0,0.0,0.0,0.0,0.0,0.0,0.0,0.0,0.0,0.0,0.0,0.0,0.0,0.0,0.0,0.0,0.0,0.0,0.0,0.0,0.0,0.0,0.0,0.0,0.0,0.0,0.0,0.0,0.0,0.0,0.0,0.0,0.0,0.0,0.0,0.0,0.0,0.0,-5.824,-7.0726,-7.4237,-7.5441,-7.4831,-7.3115,-6.7632,-5.7121,0.0,0.0,0.0,0.0,0.0,0.0,0.0,0.0,0.0,0.0,0.0,0.0,0.0,0.0,0.0,0.0,0.0,0.0,0.0,0.0,0.0,0.0,0.0,0.0,0.0,0.0,0.0,0.0,0.0,0.0,0.0,0.0,0.0,0.0,0.0,0.0,0.0,0.0,0.0,0.0,0.0,0.0,0.0,0.0,0.0,0.0,0.0,0.0,0.0,0.0,0.0,0.0,0.0,0.0,0.0,0.0,0.0,0.0,0.0,0.0,0.0,0.0,0.0,0.0,0.0,0.0,0.0,0.0,0.0,0.0,0.0,0.0,0.0,0.0,0.0,0.0,0.0,0.0,0.0,0.0,0.0,0.0,0.0,0.0,0.0,0.0,0.0,0.0,0.0,0.0,0.0,0.0,0.0,0.0,0.0,0.0,0.0,0.0,0.0,0.0,0.0,0.0,0.0,0.0,-5.877,-6.4396,-7.0392,-7.3725,-7.2835,-7.1659,-6.6517,-5.589,0.0,0.0,0.0,0.0,0.0,0.0,0.0,0.0,0.0,0.0,0.0,0.0,0.0,0.0]}]]]